GFSGBSN_prec_cloud_003.txt.gz
Cloud_Cover
100 100 100 100 100 100 100 76 55 12 34 5 5 7 5 14 39 1 0 0 0 0 0 0 1 1 10 54 54 75 5 15 1 5 5 0 0 0 68 92 100 100 2 1 1 9 1
91 100 96 100 100 100 100 99 88 37 46 94 69 5 5 51 26 6 5 0 0 0 0 0 4 42 14 88 46 81 90 95 100 16 36 29 6 0 35 87 91 86 51 11 19 5 0
100 85 77 100 100 100 100 100 99 98 68 78 100 27 5 14 37 6 22 5 4 3 5 5 5 9 61 99 98 100 100 100 22 20 66 18 76 38 9 34 58 100 100 85 26 54 2
80 100 23 66 100 100 100 100 100 100 100 96 100 94 40 5 58 5 10 10 5 5 5 5 5 33 100 100 59 100 59 24 63 6 9 66 90 31 100 83 52 100 100 99 63 49 6
6 97 2 56 99 100 100 100 100 100 100 46 100 87 9 5 51 72 98 98 42 5 5 5 17 72 77 100 87 53 49 28 67 100 100 89 65 99 71 100 64 100 84 99 97 76 10
26 21 66 72 49 83 100 100 100 100 100 100 92 98 92 5 5 85 100 100 100 97 58 47 49 81 98 92 28 21 99 100 100 100 100 100 88 100 60 96 100 63 100 94 92 72 22
85 95 64 18 100 100 100 100 100 100 100 100 100 98 32 88 32 47 23 100 100 100 100 51 36 82 67 96 96 100 100 71 100 100 100 100 81 94 5 8 74 92 94 40 27 72 100
90 97 13 5 88 100 100 100 100 100 100 97 100 67 72 100 75 76 100 99 100 100 100 100 86 79 97 92 99 73 97 100 100 100 98 98 100 5 3 5 93 100 99 100 100 100 40
100 66 39 6 81 100 100 100 100 100 100 100 85 57 63 100 91 64 96 77 100 100 100 100 100 100 100 100 78 96 100 100 100 82 96 74 6 3 48 9 99 100 100 100 79 95 3
100 63 5 5 3 100 100 100 100 100 100 99 96 96 96 100 69 58 91 100 100 100 100 77 100 100 100 100 100 100 100 100 100 41 98 62 98 100 100 52 98 100 100 100 100 100 16
100 100 14 6 86 3 42 100 100 100 100 100 69 14 96 85 94 100 100 100 100 100 100 60 100 100 100 100 100 100 100 100 59 100 70 49 100 100 100 42 100 100 100 95 100 100 91
100 100 100 36 34 68 28 100 100 100 100 100 100 82 55 79 90 87 95 100 100 100 100 99 100 100 100 100 100 100 100 23 95 100 75 90 100 100 42 100 100 100 100 100 100 97 20
100 100 100 83 100 99 53 100 100 100 100 100 100 100 68 90 100 100 100 100 100 100 100 100 100 100 100 100 100 100 100 89 92 100 100 100 100 100 100 100 100 100 100 100 100 82 28
100 100 100 100 77 98 40 100 100 100 100 100 100 100 100 91 100 100 100 100 100 100 100 100 100 100 100 100 100 100 96 100 100 100 100 98 100 100 100 100 100 97 100 97 71 47 7
100 100 100 100 100 71 96 100 100 100 100 100 100 100 100 100 100 100 100 100 100 100 100 100 100 100 100 100 100 74 95 100 96 100 100 68 100 100 100 100 100 100 100 100 54 5 86
100 100 100 100 100 100 100 100 100 100 100 100 100 100 100 100 100 100 100 100 100 100 100 100 93 75 100 96 100 100 94 81 100 100 100 97 100 100 100 100 100 100 95 34 7 12 91
100 100 100 100 100 100 100 100 100 100 100 100 100 100 100 100 100 100 100 100 100 100 100 100 60 21 100 92 100 100 90 100 100 100 100 100 100 100 100 100 100 100 100 80 90 6 99
100 100 100 100 100 100 100 100 100 100 100 100 100 100 100 100 100 100 100 100 100 100 100 100 100 99 99 100 100 100 100 100 100 100 100 100 100 100 100 100 100 100 98 66 52 32 1
99 100 100 100 100 100 100 100 100 100 100 100 100 100 100 100 100 100 100 100 100 100 100 100 89 63 19 77 84 100 100 100 100 100 100 100 100 100 100 97 100 100 100 100 64 50 43
100 100 100 100 100 100 100 100 100 100 100 100 100 100 100 100 100 100 100 100 100 100 100 62 96 85 17 26 9 36 71 81 100 95 100 100 100 99 100 100 49 100 100 98 40 5 5
100 100 100 100 100 100 100 100 100 100 100 100 100 100 100 100 100 100 100 100 100 100 100 100 100 37 17 12 7 83 61 98 80 75 100 83 82 100 98 99 100 100 99 96 15 69 48
100 100 100 100 100 100 100 100 100 100 100 100 100 100 100 100 100 100 100 100 100 100 100 100 100 56 48 25 2 8 94 100 79 83 82 99 71 5 16 5 64 98 11 6 10 20 5
100 100 100 100 100 100 100 100 100 100 100 100 100 100 100 100 100 100 100 100 100 100 100 100 95 100 49 55 53 72 100 100 100 100 100 100 82 37 99 5 5 6 4 4 4 4 5
100 100 100 100 100 100 100 100 100 100 100 100 100 100 100 100 100 100 100 100 100 100 100 100 100 100 89 100 72 77 98 94 100 100 99 100 99 100 87 11 63 5 0 0 0 0 0
100 100 100 100 100 100 100 100 100 100 100 100 100 100 100 100 100 77 100 100 100 100 100 100 100 100 100 99 100 100 98 88 100 100 75 95 100 88 100 68 30 0 1 0 0 1 0
100 100 100 100 100 100 100 100 100 100 100 100 100 100 100 100 100 56 100 100 100 100 100 100 100 100 100 99 98 96 100 100 100 100 100 100 100 98 66 64 96 92 6 5 5 5 5
100 100 100 100 100 100 100 100 100 100 100 100 100 100 100 100 100 100 100 100 100 100 100 100 100 100 88 100 100 100 100 100 100 100 100 100 100 100 99 70 89 76 63 13 5 10 5
100 100 100 100 100 100 100 100 100 100 100 100 100 100 100 100 100 100 100 100 100 100 100 100 100 99 100 100 100 100 97 100 100 75 94 100 100 100 100 100 94 82 19 75 59 5 35
100 100 100 100 100 100 100 100 100 100 100 100 100 100 100 100 100 100 100 100 100 100 100 100 100 99 100 100 100 100 69 100 48 46 33 100 63 59 80 100 100 76 100 98 96 93 85

GFSGBSN_prec_cloud_006.txt.gz
Cloud_Cover
3 0 19 10 3 100 100 100 100 100 100 100 100 45 67 90 75 16 24 5 5 0 7 0 0 0 0 44 13 14 4 0 0 1 2 10 16 3 3 1 55 18 16 41 5 0 15
68 61 2 0 5 66 100 100 100 100 100 100 99 20 59 46 22 64 6 5 4 7 3 1 0 0 11 53 0 0 32 4 1 80 2 8 86 3 2 59 31 74 87 60 79 9 27
100 81 95 4 3 5 93 100 100 100 100 100 58 55 76 91 100 88 27 15 5 5 5 5 2 2 58 7 0 0 38 79 1 1 44 98 19 100 98 37 99 86 58 81 27 6 100
100 100 100 98 82 5 88 80 100 100 100 100 100 100 100 16 37 100 100 98 5 5 5 9 2 42 100 0 3 1 3 6 94 97 88 80 95 100 86 100 27 22 12 87 0 100 11
45 87 100 100 100 100 57 74 66 100 100 100 100 100 100 100 74 20 87 5 61 19 66 98 11 24 87 5 5 4 2 0 0 4 99 64 48 43 100 75 100 56 27 5 3 19 95
100 61 94 100 100 95 98 100 98 12 86 100 100 100 100 100 100 100 95 6 69 53 100 97 88 38 5 31 6 5 5 5 32 60 94 91 73 86 11 76 86 100 92 5 5 1 37
100 100 63 100 100 100 96 100 62 97 41 100 77 100 100 100 100 100 100 16 44 60 100 51 100 61 64 10 5 5 5 11 85 100 100 100 100 98 100 99 42 12 45 18 5 5 79
100 98 100 37 99 100 100 65 98 100 100 100 100 100 100 100 100 100 62 60 9 67 100 100 100 100 95 40 14 80 7 44 88 100 92 98 80 100 100 98 25 5 61 34 8 59 16
100 86 100 100 100 100 100 100 87 100 100 100 100 100 100 100 100 100 98 73 53 26 100 100 74 100 100 100 99 100 20 38 38 50 100 81 18 100 100 100 100 38 10 84 6 13 88
100 100 100 100 100 93 96 100 98 59 95 100 100 100 100 100 100 76 64 98 85 86 100 85 97 100 99 100 99 94 100 94 52 58 25 64 44 100 100 100 100 61 4 69 67 92 88
4 90 40 100 100 100 41 40 81 42 100 100 100 100 100 100 100 100 100 99 100 100 100 55 98 71 99 100 100 72 100 100 85 100 100 43 100 100 100 92 56 8 2 100 100 100 74
67 99 44 99 100 100 100 13 90 95 100 100 100 100 100 100 100 94 100 89 100 100 66 53 98 96 100 100 100 100 97 100 100 100 98 69 89 44 6 4 4 6 90 100 100 100 96
6 100 61 100 100 100 100 58 88 100 100 100 100 100 100 100 49 75 100 100 100 100 9 90 99 100 100 100 100 100 100 100 100 100 78 98 64 100 100 100 93 69 100 100 100 100 100
82 98 78 97 100 100 100 75 62 99 100 100 100 100 100 100 99 97 100 100 100 75 81 100 100 100 100 100 100 100 100 100 61 25 100 89 38 24 88 50 50 100 100 100 100 100 98
24 100 92 96 100 100 100 100 100 90 100 100 100 100 100 100 100 100 100 100 72 84 99 100 100 100 100 100 100 100 87 99 100 100 100 100 100 100 100 91 100 100 100 100 100 100 99
100 100 100 74 100 100 100 100 100 100 100 100 100 100 100 100 100 100 100 100 100 97 100 100 100 99 97 85 96 99 84 80 100 100 100 100 100 100 100 100 100 100 100 100 100 100 35
100 100 100 99 100 100 100 100 100 100 100 100 100 100 100 100 100 100 100 100 100 100 100 100 100 72 30 48 69 44 87 99 98 100 100 100 100 100 100 100 100 100 100 100 100 100 6
100 100 100 100 100 100 100 100 100 100 100 100 100 100 100 100 100 100 100 100 100 100 100 100 100 32 22 100 16 83 95 100 100 100 100 100 100 100 100 100 100 100 100 100 100 100 96
100 100 100 100 100 100 100 100 95 100 100 100 100 100 100 100 100 100 100 100 100 100 100 100 100 5 69 100 100 100 100 100 100 100 100 100 100 100 100 100 100 100 100 100 100 93 100
100 100 100 100 100 100 100 100 100 100 100 100 100 100 100 100 100 100 100 100 100 100 100 100 100 47 6 93 67 100 100 100 100 100 100 100 100 100 100 100 92 100 100 100 100 100 90
97 100 100 100 100 100 100 100 100 100 100 100 100 100 100 100 100 100 100 100 100 100 100 100 100 39 48 37 100 100 100 100 100 100 100 100 100 100 100 100 100 100 100 100 80 100 72
5 100 100 100 100 100 100 100 100 100 100 100 100 100 100 100 100 100 100 100 100 100 100 100 100 99 76 32 12 88 100 100 100 100 100 100 100 100 100 100 100 100 100 100 100 60 61
5 100 100 100 100 100 100 100 100 100 100 100 100 100 100 100 100 100 100 100 100 100 100 100 100 100 46 40 95 100 88 99 99 100 100 100 90 86 100 99 100 100 90 94 75 95 36
10 100 100 95 99 100 100 100 100 100 100 100 100 100 100 100 100 100 99 100 100 100 100 100 100 100 99 62 93 100 100 97 100 100 79 68 74 55 5 5 5 5 8 6 63 41 43
28 100 100 96 100 100 100 100 100 100 100 100 100 100 100 100 100 92 92 100 100 100 100 100 100 100 66 18 94 88 100 100 99 82 100 94 98 73 8 5 23 1 2 5 5 6 4
100 100 100 99 100 100 100 100 100 100 100 100 100 100 100 100 100 100 100 100 100 100 100 100 100 100 100 100 100 100 100 55 88 100 100 100 100 70 5 87 5 5 2 0 1 3 0
92 100 100 100 100 100 100 100 100 100 100 100 100 100 100 100 100 100 100 100 100 100 100 100 100 100 100 100 100 87 54 31 99 100 100 100 100 100 90 77 25 91 11 5 2 0 4
98 100 100 100 100 100 100 100 100 100 100 100 100 100 100 100 100 100 100 100 100 100 100 100 100 100 100 100 100 77 66 60 42 52 96 100 100 100 100 100 100 51 71 73 68 32 5
100 94 100 100 100 100 100 100 100 100 100 100 100 100 100 100 100 100 100 100 100 100 100 100 100 100 100 96 98 100 100 100 100 100 99 100 100 100 98 100 72 93 97 55 54 5 38

GFSGBSN_prec_cloud_009.txt.gz
Cloud_Cover
88 18 56 5 1 24 5 5 100 95 100 100 100 100 100 100 100 100 100 100 53 15 5 5 5 5 0 6 37 17 0 0 0 0 0 0 4 3 0 0 0 0 0 0 0 0 0
100 96 98 24 5 30 8 1 74 100 100 100 100 100 100 100 100 99 100 100 86 56 6 5 5 5 5 45 0 0 0 0 0 0 0 0 3 1 18 0 23 28 1 0 0 0 0
100 100 100 99 16 5 78 30 96 100 100 100 100 100 100 100 100 100 100 100 100 95 87 21 51 32 60 3 0 0 14 0 0 0 0 14 6 26 6 5 2 28 13 0 0 0 0
100 100 100 100 66 15 5 23 95 100 100 100 100 100 100 100 100 100 100 100 81 8 5 1 5 81 100 14 0 0 24 0 0 0 5 6 92 16 87 45 1 4 16 5 3 1 0
100 100 100 100 98 100 27 17 18 86 97 100 99 100 100 100 100 100 100 100 100 100 49 14 5 6 70 72 2 0 0 0 0 0 5 2 8 55 5 96 27 32 58 51 6 1 5
100 100 100 100 97 84 95 62 98 100 98 88 100 100 99 100 100 100 100 100 100 100 100 100 83 84 12 75 5 4 1 3 3 0 10 4 1 1 5 40 94 100 28 36 49 5 8
100 100 100 100 100 100 100 21 100 87 72 72 100 100 97 5 99 100 100 100 100 100 100 100 78 96 9 73 5 5 5 14 15 10 5 4 17 99 5 5 14 10 5 51 5 2 3
100 100 100 100 100 100 100 98 32 41 96 95 98 100 100 48 19 100 63 87 100 100 100 100 88 100 51 100 97 5 76 34 64 100 7 37 67 25 5 5 3 5 30 14 32 15 68
70 99 90 69 100 100 88 100 100 57 100 100 100 100 100 100 74 79 100 100 100 77 97 100 100 53 98 93 100 100 98 97 37 62 15 6 6 86 26 5 12 13 20 10 5 34 56
88 59 100 96 71 100 82 100 100 58 41 97 100 100 100 42 100 100 100 100 100 100 100 92 100 100 96 100 100 100 100 100 100 48 98 23 38 29 50 10 5 20 68 100 62 94 50
30 98 68 100 100 64 98 100 100 100 17 62 100 100 100 9 84 100 90 55 100 100 49 99 87 42 100 100 100 98 87 100 100 83 100 20 17 99 33 8 85 6 77 5 95 29 99
100 93 34 77 100 100 94 100 100 100 91 84 100 100 100 100 37 97 52 88 90 64 99 66 49 100 100 99 100 100 100 100 100 100 100 24 70 73 99 100 100 6 98 68 100 100 100
100 100 100 100 90 95 86 75 100 100 100 93 100 100 100 100 98 75 87 50 91 91 95 65 75 100 89 100 100 96 100 100 100 100 100 100 100 100 100 100 32 35 99 99 100 93 99
100 91 100 84 94 94 100 81 100 100 100 100 98 100 100 100 100 100 73 57 70 100 82 65 100 100 100 84 97 96 100 100 100 100 100 100 100 94 100 95 54 98 99 84 74 5 100
100 100 100 100 100 100 100 100 100 100 100 100 100 100 100 100 100 100 88 88 100 48 88 100 100 100 100 97 99 100 100 100 94 98 72 70 72 50 100 100 92 34 58 9 100 100 100
100 100 100 100 100 100 100 100 100 100 100 100 100 100 100 100 100 100 100 100 83 64 100 100 100 98 100 62 100 100 30 15 29 85 100 100 100 100 100 100 97 88 38 100 100 100 100
100 100 100 100 100 100 100 100 100 100 100 100 100 100 100 100 100 100 100 89 59 100 100 100 100 100 72 8 22 21 5 56 100 89 100 100 100 100 100 100 100 100 100 100 100 100 100
100 100 100 100 100 100 100 100 100 100 100 100 100 100 100 100 100 100 100 98 100 100 100 100 100 97 11 72 7 9 47 48 100 100 100 100 100 100 100 100 100 100 100 100 100 100 100
40 100 100 100 100 100 100 100 100 100 100 100 100 100 100 100 100 100 100 100 100 100 100 100 100 52 39 44 100 100 100 100 100 100 100 100 100 100 100 100 100 100 100 100 100 100 100
92 97 91 99 100 100 100 100 100 100 100 100 100 100 100 100 100 100 100 100 100 100 100 100 100 85 100 100 100 100 100 100 100 100 100 100 100 100 100 100 100 100 100 100 100 100 100
67 95 16 100 100 100 100 100 100 100 100 100 100 100 100 100 100 100 100 100 100 100 100 100 100 100 100 100 99 100 100 100 100 100 100 100 100 100 100 100 100 100 100 100 100 100 100
8 5 58 100 100 100 100 100 100 100 100 100 99 100 100 100 100 100 100 100 100 100 100 100 99 100 100 90 97 100 100 100 100 100 100 100 100 100 100 100 100 100 100 100 100 100 97
61 59 57 99 100 100 100 100 100 98 100 100 100 100 100 100 100 100 100 100 100 100 100 100 100 100 100 100 100 100 100 100 100 100 100 100 100 100 100 100 100 100 100 100 100 100 93
6 32 92 100 100 100 100 100 100 100 100 100 100 100 100 100 100 100 100 100 100 100 100 100 100 100 100 100 100 97 100 99 100 100 100 100 100 94 100 100 100 100 100 79 80 35 10
45 27 86 80 100 100 100 100 100 100 100 100 100 100 100 100 100 100 100 100 100 100 100 100 100 100 100 100 100 100 99 63 88 100 100 100 100 58 92 49 16 11 8 97 7 5 1
5 57 60 76 100 100 100 100 100 100 100 100 100 100 100 100 100 100 100 100 100 100 100 100 100 100 100 100 86 100 100 100 81 28 69 95 76 72 18 10 5 5 9 6 5 5 0
5 8 72 90 100 100 100 100 100 100 100 100 100 100 100 100 100 100 100 100 100 100 100 100 100 100 100 100 98 100 90 49 85 100 100 100 97 35 15 33 70 5 5 4 2 0 0
5 51 98 81 100 100 100 100 100 100 100 100 100 100 100 100 100 100 100 100 100 100 100 100 100 100 100 100 100 97 83 58 100 72 84 100 100 100 83 100 57 58 5 23 16 5 4
30 5 25 69 100 100 100 100 100 100 100 100 100 100 100 100 100 100 100 100 100 100 100 100 100 100 100 100 95 100 92 74 93 77 34 80 34 88 82 36 13 99 79 76 58 5 5

GFSGBSN_prec_cloud_012.txt.gz
Cloud_Cover
100 100 100 100 100 100 60 18 92 45 98 100 100 100 100 100 100 100 100 100 100 100 100 100 100 100 27 67 14 5 0 0 0 4 16 24 0 1 0 0 0 0 0 0 0 0 0
100 100 100 100 100 100 100 92 36 5 95 100 100 92 100 100 100 100 100 100 100 100 100 100 100 100 54 34 5 5 5 1 0 0 0 5 1 0 3 0 0 0 0 0 0 0 0
57 100 100 100 100 100 100 92 59 5 100 100 100 100 100 100 100 100 100 100 100 100 100 100 100 100 97 32 15 99 85 5 7 0 0 0 0 2 23 4 1 0 0 1 0 0 0
100 100 100 100 100 100 100 100 64 35 69 99 100 100 92 100 100 100 100 100 100 100 100 100 100 100 100 100 5 5 30 5 1 18 7 22 83 100 100 88 11 10 3 6 0 0 0
99 100 100 100 100 100 100 100 97 88 5 93 100 100 100 97 100 100 100 100 100 100 100 100 100 100 100 100 22 5 9 5 5 5 3 100 100 73 40 71 44 36 48 9 6 0 0
14 99 100 100 100 92 100 100 100 99 98 34 95 100 100 100 100 100 100 100 100 100 100 100 100 100 100 100 99 52 5 32 5 3 5 18 100 85 86 99 69 66 14 2 1 4 2
74 100 100 100 100 85 100 100 100 100 60 43 30 100 100 100 93 17 100 100 100 100 100 100 100 100 100 100 100 100 100 68 5 5 5 3 16 62 5 3 5 5 9 31 5 39 5
100 100 100 100 100 99 21 74 100 100 99 74 6 69 100 100 100 35 22 43 53 100 100 100 100 100 100 100 100 100 82 94 78 14 6 57 88 8 5 0 2 5 8 11 5 28 59
5 8 100 100 100 100 98 25 100 100 100 100 76 22 100 100 100 59 34 29 38 18 24 53 66 100 100 100 100 100 100 69 56 82 100 97 19 5 5 5 24 6 6 5 25 5 4
78 38 99 100 100 100 100 100 100 100 100 100 92 12 99 100 92 17 90 33 39 74 76 100 95 72 96 100 100 100 100 91 97 84 97 100 60 18 44 23 10 44 5 5 5 56 64
100 100 100 100 92 80 83 98 99 100 100 100 100 84 92 100 11 64 6 5 5 33 36 100 100 94 100 96 87 100 100 100 100 71 95 48 14 70 49 31 81 15 5 5 5 33 11
100 100 100 80 89 100 100 35 85 100 100 100 100 100 88 100 97 94 85 12 41 26 6 69 71 62 82 100 100 100 100 98 100 100 94 64 87 63 22 82 11 54 35 41 51 26 78
16 100 100 100 100 100 83 58 95 82 100 100 100 100 66 100 99 62 83 76 49 23 63 72 78 27 12 100 100 100 68 100 100 100 100 100 95 65 99 100 100 100 100 97 90 88 37
90 100 100 100 100 92 100 100 38 79 100 100 100 100 100 41 95 100 100 79 62 62 100 27 59 54 99 100 98 99 97 100 100 100 100 89 100 74 89 100 100 100 100 100 96 68 3
79 98 100 90 100 100 100 100 100 100 100 100 100 100 100 100 100 66 100 96 32 90 6 56 100 100 100 100 87 97 97 95 100 100 100 100 91 100 83 100 100 100 100 100 100 100 100
41 6 100 100 100 100 100 100 100 97 100 100 100 100 100 100 99 94 100 78 93 12 31 44 56 100 100 99 96 98 87 8 90 41 84 7 49 6 7 19 57 100 100 96 74 93 5
31 36 17 100 100 100 100 100 100 100 100 100 100 100 100 100 100 100 100 98 5 19 71 41 100 100 100 100 21 100 6 1 2 4 19 79 90 83 100 100 100 94 100 63 3 8 86
42 26 6 73 100 100 100 100 100 100 100 100 100 100 100 100 100 100 100 42 79 98 31 100 100 100 100 100 76 48 64 6 10 12 77 100 100 100 100 100 100 100 7 11 97 100 100
5 84 60 5 48 19 100 100 100 100 100 100 100 100 100 100 100 100 83 64 100 100 100 100 100 100 100 26 82 36 83 100 100 100 100 100 100 100 100 100 95 100 100 100 100 100 100
5 26 51 5 61 100 100 100 100 100 100 100 100 100 100 100 100 98 100 100 100 100 100 100 100 100 91 77 11 97 100 100 100 100 100 100 100 100 100 100 100 100 100 100 100 100 100
5 10 23 5 86 100 97 100 100 100 100 100 100 100 100 100 100 100 100 100 100 100 100 100 100 100 100 65 57 100 100 100 100 100 100 100 100 100 100 100 100 100 100 100 100 100 100
5 5 22 58 38 94 100 100 100 100 100 100 100 100 100 59 99 100 100 100 100 100 100 100 100 100 100 97 51 100 100 100 100 100 100 100 100 100 100 100 100 100 100 100 100 100 100
5 26 71 5 28 100 100 100 100 100 100 100 100 100 98 100 100 100 100 100 100 100 100 100 100 100 100 100 100 98 100 100 100 100 100 100 100 100 100 100 100 100 100 100 100 100 100
5 92 76 23 77 96 100 100 100 100 100 100 100 100 100 100 100 100 100 100 100 100 100 100 100 100 100 100 100 100 100 100 100 100 100 100 100 100 100 100 100 100 100 100 100 100 100
78 33 14 30 45 96 99 100 100 100 100 100 100 100 97 100 100 100 100 100 100 100 100 100 100 100 100 100 100 100 100 100 100 100 100 100 100 100 100 100 100 100 100 100 100 100 100
79 92 5 5 5 100 100 100 100 100 100 100 100 100 100 100 100 100 100 100 100 100 100 100 100 100 100 100 100 100 100 100 74 100 98 100 100 100 100 100 100 100 100 100 100 100 5
93 5 40 5 5 16 100 100 100 100 100 100 100 100 100 100 100 100 100 100 100 100 100 100 100 100 100 100 100 100 100 100 80 54 96 82 100 100 100 88 92 97 7 12 5 4 0
44 83 5 5 66 61 100 100 100 100 100 100 100 100 100 100 100 100 100 100 100 100 100 100 100 100 100 100 100 100 100 100 6 6 9 28 67 82 96 18 9 7 5 5 5 1 1
6 5 5 5 5 68 96 100 100 100 100 100 100 100 100 100 100 100 100 100 100 100 100 100 100 100 100 100 100 100 100 34 6 62 5 39 93 75 5 10 5 5 5 5 5 5 5

GFSGBSN_prec_cloud_015.txt.gz
Cloud_Cover
73 100 100 100 100 100 100 100 100 100 100 100 100 100 100 8 5 39 100 100 100 100 100 100 100 100 100 99 100 100 100 0 9 62 70 83 8 1 0 0 0 0 0 0 0 0 0
100 100 98 100 100 100 100 100 100 100 100 100 100 100 100 62 74 100 100 100 100 100 100 100 100 100 100 100 100 100 100 47 4 42 24 33 38 0 4 2 2 1 0 0 0 0 0
70 86 100 100 100 100 100 100 100 100 100 100 100 100 100 100 100 100 100 100 100 100 100 100 100 100 100 100 100 100 100 100 18 5 5 5 0 0 54 5 3 2 0 0 1 0 0
6 100 100 100 97 100 80 100 100 100 100 100 100 100 99 100 54 100 100 100 100 100 100 100 100 100 100 100 100 100 100 100 99 10 7 4 14 3 94 84 81 100 45 17 0 0 0
4 2 35 100 100 100 100 87 100 100 100 100 100 100 99 100 100 76 100 100 100 100 100 100 100 100 100 99 100 100 100 100 100 91 83 6 95 100 100 100 96 100 46 21 16 1 0
5 5 1 76 100 100 100 72 100 96 100 100 100 100 100 16 100 62 55 100 100 100 100 100 100 100 100 100 100 100 100 100 100 100 100 41 78 100 100 100 82 70 95 20 5 2 1
0 5 3 0 97 100 100 100 100 100 95 100 100 100 100 100 100 100 26 100 100 100 100 100 100 100 100 100 100 100 100 100 100 87 100 81 46 93 22 100 70 51 5 56 40 45 4
6 7 6 97 100 100 100 100 100 100 98 96 100 100 100 100 100 100 79 15 75 100 100 100 98 100 100 100 100 100 99 88 97 100 100 88 32 100 33 32 18 5 17 49 10 5 5
39 96 82 66 100 100 91 100 100 100 52 90 70 100 100 100 100 100 83 50 23 7 51 100 99 100 100 100 100 100 43 7 75 86 83 62 88 94 63 18 9 24 47 22 17 5 1
12 84 51 52 100 88 28 98 78 89 4 99 100 100 100 100 100 100 100 5 14 44 6 67 30 38 18 61 32 83 100 80 73 66 88 96 89 54 5 5 10 100 15 5 5 14 42
74 55 16 94 100 100 100 100 100 100 60 98 100 100 100 100 99 100 100 91 70 18 4 5 46 39 100 69 60 13 34 99 100 100 97 62 7 86 6 15 17 62 9 7 21 5 22
52 62 23 88 100 100 100 76 88 99 82 22 100 100 100 100 91 100 99 100 100 24 39 68 99 99 100 100 97 81 70 96 100 100 100 100 70 97 87 42 80 48 92 92 100 92 100
32 6 55 50 100 100 89 100 100 96 15 40 100 100 100 96 100 97 80 91 98 70 100 100 100 100 100 72 100 97 57 96 100 100 100 100 100 65 23 30 99 100 100 100 100 100 95
86 18 48 21 56 84 100 100 100 100 88 90 100 100 100 100 100 97 53 62 73 100 100 100 88 77 100 28 88 97 99 98 100 100 100 100 94 100 62 5 99 100 100 100 100 46 11
77 13 72 42 48 81 100 100 100 100 85 100 100 100 100 100 100 100 100 100 81 100 100 76 100 99 100 100 92 81 100 100 28 91 100 100 70 5 10 99 100 100 100 96 100 100 100
98 63 20 36 96 77 100 100 100 100 100 100 80 100 100 100 100 99 100 100 100 100 100 69 100 96 100 100 93 68 28 10 80 5 52 42 44 5 5 5 33 97 100 100 100 100 99
27 67 6 5 86 96 95 100 100 100 100 100 100 100 100 100 100 100 95 100 100 100 28 99 88 90 98 29 61 100 100 35 0 4 12 97 96 28 28 65 75 83 100 96 93 75 5
49 40 5 4 19 7 6 92 100 100 100 100 100 100 100 100 100 100 100 100 100 98 91 100 98 97 100 96 76 100 50 2 96 100 100 100 100 100 100 100 100 100 100 91 99 8 6
95 63 34 5 5 5 24 79 100 100 100 100 100 100 100 100 100 100 88 91 100 96 99 100 100 76 100 79 100 86 81 100 99 100 100 100 100 100 100 100 100 100 100 100 10 29 8
98 40 98 10 5 5 84 100 100 100 100 100 100 100 100 100 100 78 79 75 97 63 100 100 84 100 100 98 100 100 97 99 100 100 100 100 100 100 100 100 100 100 100 77 74 53 94
90 22 89 55 5 34 100 42 100 100 100 100 100 100 100 100 100 90 98 60 99 87 100 100 100 100 100 100 100 88 100 100 100 100 100 100 100 100 100 100 100 100 100 100 100 100 100
98 8 63 91 5 5 98 100 100 100 100 98 100 100 84 100 100 97 83 100 100 100 99 100 100 100 100 100 96 58 100 100 100 100 100 100 100 100 100 100 100 100 100 100 100 100 100
100 84 30 90 78 100 18 80 99 100 100 100 100 100 100 100 100 100 100 100 100 100 100 100 100 100 100 100 100 100 100 100 100 100 100 100 100 100 100 100 100 100 100 100 100 100 100
100 73 100 94 5 7 94 100 100 100 100 100 100 100 100 100 100 100 100 100 100 100 100 100 100 100 99 100 100 100 100 100 100 100 100 100 100 100 100 100 100 100 100 100 100 100 100
74 96 74 84 5 5 69 100 100 100 100 100 100 100 100 100 100 100 100 100 100 100 100 100 100 97 99 100 100 100 100 100 100 100 100 100 100 100 100 100 100 100 100 100 100 100 100
89 96 61 52 5 13 99 100 100 100 100 100 100 100 100 100 88 100 100 100 100 100 100 100 100 100 100 100 100 100 100 100 100 100 100 100 100 100 100 100 100 100 100 100 100 100 100
29 84 14 2 5 25 84 92 100 100 100 100 100 100 100 78 100 100 100 100 100 100 100 100 99 100 100 100 100 100 100 100 100 97 100 100 100 100 100 99 100 100 100 100 100 100 100
46 5 6 13 5 98 59 75 100 100 100 100 100 100 100 100 100 100 100 100 100 100 100 100 100 100 100 100 100 100 100 100 100 100 47 92 97 100 40 21 95 100 100 100 68 99 79
33 5 5 5 5 5 100 69 100 100 100 100 100 100 100 100 100 100 100 100 100 100 100 100 100 100 100 100 100 100 100 100 100 99 100 93 69 46 97 27 58 17 27 73 44 5 6

GFSGBSN_prec_cloud_018.txt.gz
Cloud_Cover
6 5 5 2 10 27 89 76 100 100 100 98 98 95 64 100 100 100 98 100 94 91 95 100 98 69 76 100 100 100 90 5 78 36 100 98 2 3 0 0 0 0 0 0 0 0 0
0 5 11 11 33 38 17 99 94 100 100 100 100 100 99 100 100 100 95 94 100 100 100 94 87 99 93 100 100 100 100 66 24 95 100 100 84 34 38 3 2 0 0 0 0 0 0
0 0 5 19 71 100 100 100 100 100 100 100 100 100 100 100 100 100 100 100 100 88 94 96 33 99 100 100 100 100 100 100 21 84 99 100 97 6 0 0 0 0 5 0 0 0 0
0 0 0 0 3 33 100 100 100 85 100 100 100 100 100 100 100 100 99 77 69 26 33 63 100 100 100 100 100 100 100 100 95 6 19 100 100 68 7 7 58 43 74 42 1 0 0
3 2 0 1 0 82 100 100 100 100 100 100 100 100 100 100 100 100 100 100 98 100 99 100 100 100 100 100 100 100 100 100 100 49 23 45 100 100 98 88 6 5 28 45 81 5 4
0 0 0 5 55 100 100 100 94 100 100 24 100 100 100 100 100 100 100 100 100 100 100 100 100 100 100 100 100 100 100 100 100 100 30 82 95 99 98 87 47 13 8 36 92 58 4
12 8 99 7 5 7 100 41 51 14 89 92 100 76 93 100 100 100 100 100 100 100 100 100 100 100 100 100 100 100 100 100 100 100 100 82 84 100 100 100 100 97 48 25 53 33 8
92 100 100 91 91 77 66 84 98 46 84 100 60 85 100 100 100 100 100 100 92 100 100 100 100 100 100 100 100 100 100 100 100 100 100 100 100 100 96 100 82 98 100 100 27 4 1
61 19 21 89 58 100 92 91 100 81 98 100 98 39 100 100 100 100 100 100 30 23 88 100 100 100 98 100 100 100 100 100 100 100 100 60 48 60 39 49 79 44 47 65 14 4 0
5 5 4 6 3 82 100 89 100 100 97 100 100 6 100 100 100 100 100 100 99 20 5 35 94 99 37 76 81 81 91 73 98 44 100 50 70 5 5 5 5 40 81 85 80 63 68
5 7 4 18 5 50 96 61 99 100 56 99 100 0 100 100 100 100 100 100 100 98 38 5 58 92 49 11 66 100 34 99 98 89 39 32 5 5 60 6 59 61 9 8 5 51 94
5 5 5 40 20 12 13 39 100 100 100 99 45 17 100 100 100 100 100 100 100 100 38 77 94 99 100 96 100 35 100 100 100 100 100 67 65 92 75 5 70 76 86 100 93 88 93
5 5 5 5 94 5 23 59 100 100 100 98 24 100 100 100 100 100 100 100 100 94 100 100 100 100 100 100 100 94 86 100 100 100 95 100 100 100 100 95 100 99 100 99 100 100 54
72 5 5 5 61 46 33 100 100 100 100 96 73 47 100 100 100 100 100 100 88 89 100 100 100 100 100 100 100 100 100 100 100 100 100 87 26 100 98 51 12 71 100 100 100 30 13
5 11 26 5 82 14 15 100 100 100 100 99 81 100 100 100 100 100 100 96 33 100 100 100 100 100 100 100 100 100 100 100 100 100 100 68 60 5 7 12 59 99 99 42 100 100 100
100 63 40 5 100 10 82 52 100 100 100 100 100 100 100 100 100 100 89 81 100 100 100 100 100 100 100 100 100 100 100 99 41 83 33 25 96 14 18 62 40 50 64 100 100 100 91
98 42 59 32 100 9 94 87 85 99 100 100 100 100 100 100 100 100 98 100 100 100 100 100 100 100 100 100 100 100 100 12 5 29 46 97 96 70 100 98 95 96 100 94 63 90 78
44 94 80 31 100 5 5 100 99 100 100 100 100 100 100 100 100 100 84 6 100 100 100 100 100 100 100 100 100 100 14 13 5 91 100 100 100 100 100 100 100 100 100 100 100 100 100
10 83 91 47 100 18 30 100 30 100 100 100 100 100 100 100 100 100 94 48 5 96 100 100 100 100 100 100 98 10 8 83 100 100 100 100 100 100 100 100 100 100 100 100 100 100 51
24 83 96 84 100 23 5 94 100 93 100 100 100 100 100 100 100 100 98 58 16 23 93 100 100 100 100 100 96 24 86 100 100 100 100 100 100 100 100 100 100 100 100 100 100 100 83
95 88 85 97 100 91 16 12 100 100 100 100 100 100 100 100 100 100 99 92 63 50 89 88 100 100 100 100 87 89 100 100 100 100 100 100 100 100 100 100 100 100 100 100 100 38 69
37 46 56 100 100 5 8 6 100 100 100 100 100 100 100 100 100 100 94 67 79 74 93 96 100 100 100 100 100 100 100 95 96 93 100 100 100 100 100 100 100 100 100 100 100 100 83
94 22 5 25 86 15 40 100 100 100 100 100 100 100 100 100 100 100 81 100 97 34 100 100 100 99 100 100 100 99 78 100 100 100 100 100 100 100 100 100 100 100 100 100 100 100 95
71 43 95 20 28 84 5 59 100 100 100 100 100 100 100 100 100 100 94 100 88 100 100 100 99 100 100 100 100 99 100 100 100 100 100 100 100 100 100 100 100 100 100 100 100 100 100
63 8 72 16 5 6 5 60 92 100 100 100 100 100 100 100 100 94 100 100 100 100 100 100 100 100 100 100 100 100 100 100 100 100 100 100 100 100 100 100 100 100 100 100 100 83 100
100 9 34 18 5 5 5 57 98 100 100 100 100 100 100 100 98 100 100 100 100 100 100 100 100 100 100 100 100 100 100 99 100 100 100 100 100 100 100 100 100 100 100 100 100 100 100
85 29 5 18 5 5 12 100 100 100 100 100 100 100 100 100 99 100 80 100 100 100 100 100 100 100 100 100 100 100 100 98 96 100 99 100 100 100 100 100 100 100 100 100 100 100 96
4 5 5 5 5 5 58 64 100 100 100 100 100 100 100 100 96 100 100 100 100 100 100 100 100 100 100 100 100 100 98 100 100 99 56 84 100 100 99 100 100 100 100 99 100 100 99
5 5 5 5 5 5 60 99 100 100 100 100 100 100 100 100 100 100 100 100 100 100 100 100 100 100 100 100 100 100 100 95 50 100 100 96 100 53 98 100 100 100 100 100 100 100 100

GFSGBSN_prec_cloud_021.txt.gz
Cloud_Cover
0 48 38 8 9 81 40 100 100 100 100 100 100 100 100 100 100 100 100 100 87 2 6 16 68 77 88 97 65 19 19 88 100 100 82 93 52 19 5 4 0 0 0 0 0 0 0
0 0 0 0 8 0 10 83 100 100 100 100 100 99 78 98 97 100 100 89 91 11 3 4 40 100 100 87 55 94 67 46 8 56 84 85 100 74 21 4 1 3 0 0 0 0 0
12 0 0 0 18 3 73 100 100 100 100 100 100 100 100 100 100 100 100 31 64 56 67 26 72 100 100 97 58 100 20 5 94 38 87 100 100 22 86 29 5 5 5 1 1 0 0
3 0 0 0 5 1 6 85 100 97 98 100 100 100 100 100 100 100 100 100 100 100 100 91 62 100 100 100 100 100 87 40 94 97 98 100 100 100 19 22 38 35 78 35 0 0 0
0 15 26 14 5 7 5 17 81 30 82 35 58 91 100 100 100 100 100 100 100 100 100 100 99 100 100 100 100 100 100 100 99 100 100 100 100 95 42 40 50 100 100 46 5 4 2
95 100 100 97 5 14 5 5 5 16 65 6 36 3 78 100 100 100 100 100 100 100 100 100 100 99 100 100 100 100 100 100 100 100 100 100 100 95 59 83 6 41 100 99 85 84 5
100 90 90 53 23 10 41 25 79 94 6 91 16 6 5 36 100 100 100 100 100 100 100 100 100 100 99 94 100 100 100 100 100 100 100 100 100 100 100 27 6 7 100 100 100 100 90
95 99 100 5 94 43 26 86 100 28 45 100 100 7 18 18 100 100 100 100 100 100 100 32 75 78 100 99 100 100 100 100 100 100 100 100 100 100 100 100 100 100 100 91 100 100 14
65 100 77 71 14 10 10 5 40 21 87 100 97 61 100 66 100 100 100 100 100 100 100 28 68 100 100 100 100 100 100 100 100 100 100 100 100 100 49 17 67 100 100 97 62 29 5
97 6 72 35 5 3 5 18 15 32 56 83 71 40 71 1 97 100 100 100 100 100 100 43 48 73 99 100 100 100 100 100 100 100 100 100 100 36 82 93 98 96 99 14 5 68 99
100 76 94 10 5 5 4 42 98 73 94 75 100 100 96 13 45 97 100 100 100 100 88 73 78 90 100 100 100 100 100 100 100 100 100 100 100 100 100 99 78 47 53 46 86 28 100
100 100 97 5 5 5 5 13 7 51 99 100 100 94 12 30 93 100 100 100 100 100 66 100 84 87 100 100 100 100 100 100 72 100 91 72 78 80 34 5 5 47 22 56 50 80 95
100 100 41 5 5 15 58 60 5 90 100 100 100 98 23 74 100 100 100 100 100 71 93 100 100 98 100 100 100 100 100 99 72 99 96 99 77 84 30 95 37 98 100 99 98 100 41
100 100 98 19 63 86 87 5 18 99 83 100 79 93 72 7 100 100 100 100 99 96 100 100 100 100 100 100 100 100 100 100 100 100 97 96 99 92 98 85 10 68 17 17 29 24 5
100 100 48 45 95 46 17 69 89 7 98 100 100 99 86 91 100 100 100 100 99 100 100 100 100 100 100 100 93 100 100 100 100 100 100 94 98 18 55 10 60 100 100 14 93 10 100
98 92 31 95 100 84 8 5 49 100 100 100 100 100 70 100 100 100 100 100 100 100 100 100 100 100 100 100 100 100 100 100 100 100 100 89 100 68 5 89 59 100 100 94 100 95 100
85 80 67 89 35 84 5 5 83 100 100 100 100 100 100 100 100 100 100 100 99 100 100 100 100 100 100 100 100 100 100 100 100 100 100 80 86 26 35 67 94 100 100 100 100 100 96
80 62 77 84 47 16 36 5 53 100 100 100 100 100 100 100 100 100 100 100 94 100 100 100 100 100 100 100 100 100 100 100 100 84 22 76 100 89 44 85 100 100 100 100 100 100 100
11 93 78 19 20 5 5 5 10 98 100 100 100 100 100 100 100 100 100 100 16 93 100 100 100 100 100 100 100 100 100 100 79 58 98 98 92 100 100 100 100 100 100 100 100 100 100
6 18 86 66 5 5 7 5 14 100 100 100 100 100 100 100 100 97 99 30 58 48 100 100 100 100 100 100 100 100 100 70 27 100 98 94 100 51 81 100 100 100 100 100 100 100 90
38 5 61 36 5 20 10 74 9 78 100 100 100 100 100 100 100 100 99 92 93 5 95 100 100 100 100 100 100 100 26 98 100 100 100 89 100 87 100 100 100 100 100 100 100 84 99
5 5 38 92 5 5 5 100 100 100 100 100 100 100 100 100 100 100 93 50 5 34 88 100 100 100 100 100 100 100 26 100 100 97 44 97 98 100 100 100 100 100 100 100 100 100 100
12 6 5 87 4 5 5 72 95 100 100 100 100 100 100 100 100 96 96 95 98 50 94 100 100 100 100 100 100 100 97 97 57 100 98 100 100 100 100 100 100 100 100 100 100 100 100
100 100 6 55 4 5 34 84 98 100 100 100 100 100 100 100 100 100 80 90 100 71 73 100 100 100 100 92 100 90 96 100 89 95 84 99 100 100 100 100 100 100 100 100 100 100 100
6 32 5 11 5 5 6 100 9 99 100 100 100 100 100 100 100 100 97 96 99 100 100 100 100 100 100 100 96 100 97 99 99 100 84 100 100 100 100 100 100 100 100 100 100 100 100
5 5 5 5 5 5 5 5 5 95 97 100 100 100 100 100 100 100 82 100 100 100 100 100 100 100 100 100 100 100 100 58 90 57 54 94 100 100 100 100 100 100 100 100 100 100 100
5 8 5 5 4 5 5 5 5 5 88 100 100 100 100 100 100 99 100 99 100 96 100 100 100 100 100 100 100 100 98 96 87 92 70 100 100 100 100 100 100 100 100 100 100 100 100
5 5 5 5 5 5 5 5 5 22 51 100 100 100 100 100 87 100 100 100 100 100 100 100 100 99 100 100 100 99 100 84 100 100 82 43 98 99 100 100 100 100 95 100 100 100 100
5 5 5 4 5 1 5 5 5 17 100 100 100 100 100 100 100 77 60 100 100 100 100 100 100 100 100 100 100 100 100 100 100 100 92 89 97 99 22 67 78 89 100 100 100 100 100

GFSGBSN_prec_cloud_024.txt.gz
Cloud_Cover
0 0 0 0 1 17 0 2 99 77 100 100 100 51 100 100 100 100 100 100 100 100 93 100 84 100 92 56 64 51 16 12 36 89 97 100 82 51 25 57 100 20 5 5 5 0 0
0 0 0 0 0 40 20 21 6 58 99 100 100 99 97 100 100 100 100 100 86 100 100 100 100 68 77 97 62 67 91 96 67 99 100 100 100 100 100 42 94 21 51 58 6 1 0
0 0 0 4 4 27 6 2 5 5 5 24 7 100 99 100 100 96 100 100 100 64 89 100 96 84 90 52 100 100 80 100 92 65 83 67 100 100 100 100 69 90 36 5 5 5 10
72 99 100 100 100 5 4 4 0 5 3 6 18 5 5 78 100 100 100 100 100 100 100 100 100 100 15 47 26 100 100 100 100 97 78 91 91 98 100 89 47 10 52 50 5 5 17
100 100 69 41 5 31 12 13 5 3 10 6 5 5 2 5 100 100 100 100 100 100 100 100 100 100 10 5 3 17 100 100 100 100 100 96 100 100 100 83 39 6 58 27 5 5 5
100 100 100 100 52 50 30 97 99 100 88 72 87 100 58 5 2 99 100 100 100 88 74 100 100 100 19 36 99 62 96 100 100 100 100 98 63 54 79 34 7 6 15 55 21 5 5
100 100 90 74 75 55 8 90 23 30 78 35 61 83 20 10 98 85 100 100 100 100 100 100 100 100 100 100 100 100 100 100 100 100 100 100 90 100 97 32 6 33 6 51 100 57 5
100 100 100 73 100 88 35 44 5 6 5 8 98 100 97 97 100 89 100 100 100 100 100 100 100 100 100 100 100 100 100 100 100 100 100 100 100 100 100 100 100 82 92 83 100 88 5
100 100 100 100 29 21 16 68 10 84 87 99 93 100 100 15 100 92 100 100 100 100 100 100 100 100 100 100 100 100 100 100 100 100 100 100 100 100 100 100 100 100 91 100 91 27 45
88 100 100 51 28 37 93 68 41 41 19 72 98 100 100 74 100 83 100 100 100 100 100 100 100 100 100 100 100 97 100 100 100 100 100 100 100 100 100 100 100 72 71 62 70 99 74
73 54 95 5 89 96 98 18 99 8 76 87 100 100 100 5 78 66 100 100 100 100 100 100 100 99 100 99 97 93 98 100 100 100 100 100 100 100 100 100 49 29 26 18 71 98 99
99 100 72 71 89 100 99 24 67 8 27 17 100 97 100 59 57 38 100 100 100 100 72 100 100 93 100 100 50 91 99 100 100 100 100 99 100 100 98 48 68 63 80 92 94 99 89
100 58 30 86 100 70 48 100 6 4 66 54 56 87 100 90 5 53 100 100 100 100 71 100 100 100 100 100 94 60 100 100 100 100 100 88 95 92 69 88 85 100 100 97 100 100 22
45 82 88 83 100 40 85 58 3 53 75 32 100 62 91 77 75 99 100 100 100 93 100 100 100 100 100 99 100 99 100 100 100 100 100 88 100 62 92 100 98 100 100 72 5 9 11
88 74 95 98 21 70 100 12 5 100 70 100 92 72 100 30 55 100 100 100 100 100 100 100 100 100 100 100 85 100 100 100 95 100 95 100 100 18 12 28 90 75 94 14 99 71 94
50 91 97 100 67 88 74 10 39 77 100 100 100 95 86 84 100 100 100 100 63 100 100 100 100 100 100 100 99 100 100 20 65 89 92 91 80 62 20 58 56 75 51 90 98 100 100
5 97 96 99 90 90 77 18 5 93 100 100 100 100 98 100 100 100 100 100 100 100 100 100 100 100 100 95 99 100 88 37 78 55 68 98 93 100 100 65 10 100 100 96 100 100 100
84 89 94 28 71 99 54 9 5 86 100 100 100 100 100 100 100 100 100 100 100 100 100 100 100 100 100 97 99 100 100 100 96 73 100 100 100 100 39 5 5 7 69 100 100 100 100
90 98 12 27 97 54 5 5 5 68 100 100 100 100 100 100 100 100 100 100 100 100 99 100 100 100 100 100 100 99 100 100 100 100 100 93 88 54 5 20 34 81 100 100 100 100 100
80 99 5 5 87 12 5 5 46 100 100 100 100 100 100 100 100 100 98 100 100 98 61 100 100 100 100 100 100 100 100 100 100 100 77 58 48 27 5 42 100 100 99 100 100 100 100
98 66 5 8 50 5 5 5 100 100 100 100 100 100 100 100 100 100 100 100 75 77 12 100 100 100 100 100 100 100 100 100 100 100 80 70 100 44 76 99 100 97 76 100 100 72 100
100 100 72 6 6 5 5 5 36 73 86 100 100 100 100 100 100 100 100 84 59 6 55 100 100 100 100 100 100 100 100 97 90 100 100 100 79 79 100 74 100 100 100 100 100 100 100
5 79 5 5 4 5 5 5 42 5 93 100 100 100 100 93 100 91 100 37 5 5 50 100 100 100 100 100 100 100 100 100 100 100 100 100 100 100 99 100 100 100 100 100 100 100 100
5 5 5 5 3 5 16 11 27 5 43 96 100 100 100 93 100 87 61 70 5 22 55 100 100 100 100 100 100 100 97 100 100 100 91 94 100 100 100 99 100 100 100 100 100 100 100
18 5 5 5 30 5 5 5 5 5 69 70 100 100 100 93 67 61 80 16 25 44 86 100 100 100 100 100 100 88 58 100 100 100 79 98 100 100 100 100 100 100 100 100 100 100 100
5 5 5 8 5 5 5 5 5 8 11 86 100 100 100 100 88 98 36 84 39 18 86 100 100 100 100 100 94 100 90 100 94 74 100 100 100 100 100 100 100 100 100 100 100 100 100
5 5 5 5 5 5 5 5 4 5 59 100 100 100 100 100 49 88 60 66 100 100 100 100 100 100 100 100 100 97 100 100 100 69 99 100 100 100 100 100 100 100 100 100 100 100 100
5 5 5 5 5 5 5 5 5 5 5 74 100 100 100 100 96 100 52 72 86 95 100 100 100 100 100 93 100 99 100 100 100 100 100 80 84 97 100 100 100 100 100 100 100 100 100
5 5 5 5 5 5 5 5 5 5 7 90 100 100 100 100 99 86 75 100 100 99 100 93 100 100 97 100 97 100 100 69 59 100 100 100 44 20 55 59 100 100 100 100 100 100 100

GFSGBSN_prec_cloud_027.txt.gz
Cloud_Cover
0 0 0 0 1 1 3 2 1 5 5 5 22 94 100 90 86 100 100 100 100 100 100 100 100 100 82 49 37 29 5 9 98 100 100 100 100 100 100 100 95 64 10 56 100 11 5
0 5 52 28 10 74 5 5 5 2 2 5 5 17 50 87 80 99 100 100 100 100 100 100 100 100 100 100 78 16 21 21 14 65 100 100 100 100 100 100 100 25 5 47 89 89 5
98 91 14 100 11 7 2 12 1 0 3 5 5 5 5 50 97 100 100 100 100 100 100 100 100 100 100 100 100 100 65 31 84 46 100 100 100 100 100 100 82 94 35 19 11 18 93
100 58 98 13 23 37 50 20 5 5 5 5 5 5 5 5 14 80 100 100 100 100 100 100 100 100 100 100 100 100 100 100 94 100 100 100 96 100 100 100 85 20 45 82 9 9 100
68 100 87 100 97 15 29 83 52 98 96 70 4 5 12 18 82 5 98 100 99 100 100 100 100 100 100 100 100 100 100 100 100 85 100 98 81 100 100 100 58 60 100 100 100 91 56
100 100 100 100 100 96 60 85 99 29 26 65 21 8 85 92 58 30 49 100 100 100 100 100 100 100 100 100 100 100 98 100 88 100 100 100 100 99 100 100 96 46 77 100 100 100 79
100 98 78 100 89 51 80 100 40 88 22 39 41 10 100 38 57 49 25 100 100 100 100 99 100 100 100 100 100 100 92 100 100 100 100 100 100 100 96 60 78 82 45 24 81 22 5
75 3 49 100 68 79 88 100 39 72 72 33 97 99 100 48 6 51 28 100 100 100 100 100 100 100 100 100 100 59 15 82 100 100 100 100 100 100 100 100 98 73 29 10 7 5 5
3 100 100 100 74 76 97 11 55 99 82 100 100 100 100 100 86 52 82 100 100 100 100 100 80 88 96 90 100 100 100 100 100 100 100 94 100 100 100 100 100 100 39 28 8 5 5
100 100 67 39 96 98 50 86 50 99 75 58 91 100 100 100 99 36 58 100 100 100 100 100 100 97 100 94 100 100 72 74 99 100 100 100 100 100 100 100 100 100 82 52 55 52 38
78 82 96 63 100 89 98 100 52 100 99 42 100 95 96 100 98 89 26 100 100 100 100 72 100 72 99 95 97 100 100 100 100 100 100 100 100 100 100 100 100 100 100 100 99 100 83
49 89 68 78 98 77 100 100 99 49 36 78 97 53 90 33 80 20 69 100 100 100 100 100 100 100 100 100 100 100 100 100 100 100 100 100 100 100 100 100 100 100 100 100 100 100 66
100 97 30 62 95 87 95 98 30 83 100 46 57 5 60 97 48 19 97 100 100 100 86 100 100 100 100 100 100 100 100 100 100 100 100 100 100 100 100 100 100 100 100 100 100 100 34
100 98 5 90 75 100 100 57 5 47 97 25 10 98 34 72 21 76 100 100 100 100 86 88 100 100 100 100 100 100 100 100 98 82 100 99 100 100 100 100 100 100 100 99 23 7 4
100 53 94 96 88 38 5 5 5 6 26 100 92 100 100 69 96 100 100 100 100 66 100 100 100 100 100 100 100 100 100 96 90 98 68 100 80 87 90 95 88 76 97 16 94 28 48
100 85 92 77 83 16 5 5 5 43 100 100 100 100 96 77 100 100 100 100 99 86 100 100 97 100 100 100 100 100 94 58 100 72 54 100 62 20 50 90 90 76 41 83 99 81 82
100 99 97 20 12 5 5 5 5 100 99 95 100 100 100 71 97 100 100 100 100 100 100 100 100 100 100 100 100 100 100 30 57 57 100 98 43 86 41 38 6 96 99 68 70 90 97
100 68 99 80 5 5 6 5 26 100 100 93 100 100 97 100 100 100 100 100 100 100 77 100 100 100 100 100 100 100 90 71 49 43 99 90 98 53 8 5 76 67 38 60 100 84 98
94 16 14 5 5 5 5 59 66 100 100 96 100 100 100 100 100 100 100 100 100 100 84 100 100 100 100 100 99 95 100 100 93 24 62 100 100 56 70 34 61 60 48 100 100 100 100
8 5 73 40 26 5 5 5 35 8 80 86 100 100 99 72 100 100 100 100 100 100 90 100 100 100 100 100 96 91 67 80 99 100 100 98 89 56 97 60 70 86 64 100 100 100 99
67 5 9 5 5 5 5 5 6 6 5 71 100 100 100 91 58 82 71 83 100 75 69 100 100 100 99 99 60 65 98 100 100 100 48 100 95 88 25 24 97 94 99 100 100 100 100
44 5 5 7 5 5 5 5 5 19 5 97 100 100 100 100 100 100 100 84 92 46 71 100 100 100 97 100 100 100 100 97 100 50 100 71 100 100 100 98 100 78 97 100 100 100 100
46 7 8 5 5 5 5 5 5 6 5 87 100 100 100 100 100 100 100 68 76 5 84 100 100 89 100 100 100 100 99 99 78 100 85 92 100 100 96 93 100 99 100 100 100 100 100
5 5 5 5 5 5 5 5 5 18 58 93 100 100 100 99 100 97 74 17 6 5 69 98 100 100 100 100 100 100 100 61 100 100 100 100 100 99 100 98 95 100 98 100 100 100 100
5 5 5 5 5 5 5 5 5 5 36 100 100 100 100 100 100 100 12 5 5 5 61 87 100 100 100 100 100 100 89 100 92 100 100 100 100 100 99 98 99 100 100 100 100 100 100
5 5 20 8 5 5 5 5 5 2 5 96 100 100 100 100 59 47 21 19 100 94 89 91 100 100 100 100 100 98 99 83 100 100 100 100 100 100 99 100 87 100 100 100 100 100 100
37 5 5 5 6 5 5 6 5 5 7 42 100 100 100 100 87 85 61 48 74 75 85 41 100 100 100 100 100 69 98 96 100 100 99 91 100 100 100 100 99 94 87 100 95 100 100
100 12 5 8 10 5 5 5 5 5 5 12 98 100 100 100 98 46 100 68 54 84 100 99 100 100 100 100 100 98 91 100 100 100 58 92 100 100 100 100 100 82 89 100 100 100 100
96 66 5 5 8 5 5 5 6 38 5 5 97 100 100 100 100 54 84 91 100 100 100 100 100 100 100 100 69 69 96 100 100 100 36 34 46 87 38 98 27 100 100 100 100 100 100

GFSGBSN_prec_cloud_030.txt.gz
Cloud_Cover
5 31 6 93 100 3 5 14 1 4 19 24 9 11 5 24 80 18 34 100 100 100 100 100 100 100 100 88 67 90 90 100 100 100 100 100 100 100 100 99 100 100 100 100 100 10 80
41 100 100 100 100 50 21 13 5 4 1 4 5 81 7 6 70 41 27 100 100 99 100 100 100 100 99 84 95 100 93 51 100 100 100 100 100 100 100 100 100 100 100 100 100 100 11
100 12 76 100 100 100 87 5 46 10 80 42 5 3 62 5 5 5 8 40 100 100 100 100 100 100 100 100 100 100 17 11 34 100 100 100 100 100 100 100 100 100 100 100 100 100 93
100 100 100 100 100 94 100 59 88 37 54 91 76 57 38 5 5 67 56 21 100 100 97 100 100 100 100 100 100 100 100 95 39 16 46 91 100 100 100 100 100 100 100 100 100 100 95
77 100 100 3 100 100 61 93 62 100 100 98 98 47 26 31 38 68 93 5 100 100 99 100 100 100 100 98 100 100 100 100 100 98 26 92 100 92 100 100 100 100 100 100 100 100 93
100 78 65 97 100 80 73 59 98 73 100 87 100 29 67 59 100 94 30 5 9 100 100 100 100 100 100 100 100 100 100 100 100 100 100 85 100 92 47 82 96 95 100 100 89 32 10
10 66 100 99 5 75 5 83 100 100 100 72 81 39 74 72 22 60 41 11 13 100 100 100 100 100 100 100 100 100 100 100 100 100 100 100 100 100 48 5 5 91 76 5 41 29 37
100 100 100 94 71 28 92 100 100 94 100 87 52 100 96 100 95 84 7 100 79 98 100 100 100 97 100 100 100 100 100 100 100 100 100 100 100 100 100 100 89 71 36 5 5 5 3
98 24 70 82 50 71 97 52 79 100 98 18 93 100 100 100 100 73 42 35 37 100 100 100 100 100 100 100 100 100 94 100 100 100 100 97 100 100 100 100 100 82 34 25 5 5 5
100 100 70 83 5 89 28 55 92 100 100 55 84 100 100 91 91 100 92 33 100 100 100 100 100 100 76 48 100 100 98 100 100 100 100 100 100 99 99 100 100 100 100 100 84 15 5
100 100 66 41 9 62 61 40 98 83 17 5 96 100 88 97 98 100 81 75 100 100 100 100 100 100 100 23 99 98 87 99 100 100 100 99 60 67 89 50 89 98 100 100 100 90 55
100 96 39 53 58 15 5 5 5 5 5 5 79 46 79 100 46 88 98 100 100 100 100 100 100 100 100 95 100 99 100 100 100 100 100 100 62 8 18 5 7 9 5 80 100 82 87
100 64 53 32 5 34 5 5 10 8 69 14 30 5 33 100 97 39 100 100 100 100 100 100 100 100 92 99 100 100 100 100 100 97 95 92 99 92 87 44 5 96 99 100 100 100 89
54 95 94 39 5 10 5 56 5 7 9 81 98 42 22 73 100 77 100 100 100 100 100 100 99 100 100 100 98 100 100 100 100 98 95 96 100 78 73 96 100 100 100 100 36 60 86
100 95 24 35 5 38 5 5 5 5 93 100 72 100 100 77 100 100 100 100 100 100 100 100 100 100 100 100 98 100 100 100 100 100 100 99 100 100 100 100 100 100 100 85 83 92 12
100 100 11 50 4 4 8 7 6 100 100 100 99 90 100 29 89 100 100 100 100 100 97 100 100 95 100 100 98 100 100 100 100 100 100 100 97 97 100 98 89 98 100 96 100 79 100
100 100 5 19 5 3 24 7 74 100 100 73 86 100 99 22 94 98 100 100 100 100 98 100 50 99 100 100 100 100 100 100 100 93 70 100 63 86 45 42 30 44 81 93 75 81 5
88 100 20 5 5 5 22 25 48 100 60 99 84 100 73 100 100 100 100 100 98 96 90 85 94 12 94 100 100 98 46 90 29 83 100 100 99 35 7 1 9 96 97 98 70 5 59
100 91 70 5 5 5 51 11 6 97 100 82 100 100 100 100 100 100 100 100 96 100 100 90 87 97 20 78 100 99 94 36 73 54 63 78 74 57 75 97 96 79 10 84 86 75 100
100 83 56 5 19 3 5 3 28 22 89 90 100 100 69 100 100 100 98 100 100 99 100 95 72 100 65 98 100 90 71 72 64 84 93 6 98 42 82 42 27 75 10 91 100 100 100
100 100 18 8 5 5 5 5 0 5 92 61 66 100 95 100 90 93 100 100 100 99 54 100 94 97 95 100 100 100 100 92 100 100 59 98 97 40 7 5 27 100 100 100 100 73 100
100 18 5 5 5 5 5 5 0 3 17 97 100 100 97 100 100 90 100 100 96 45 100 100 98 81 92 100 97 100 100 75 100 90 100 86 78 48 5 5 100 98 100 100 100 100 100
100 55 5 5 6 7 5 5 0 3 66 100 100 100 100 36 9 40 84 100 93 99 100 100 84 88 100 100 82 99 99 100 100 100 92 98 86 47 70 43 100 100 76 97 100 97 100
100 97 5 6 5 5 6 5 5 3 94 100 100 100 100 100 34 95 27 12 41 79 100 100 100 100 100 100 92 100 100 100 98 99 86 98 100 100 96 99 100 92 100 100 100 100 100
100 53 10 5 5 24 100 5 5 4 15 100 100 100 100 100 100 100 100 100 29 16 100 100 100 100 100 100 100 100 100 91 60 56 100 100 100 100 93 97 97 99 99 100 100 100 100
100 90 75 5 5 5 76 5 5 5 4 100 100 100 100 100 48 66 47 5 90 96 70 100 100 100 100 100 100 100 100 73 80 88 98 100 100 100 100 98 92 86 100 100 100 100 100
100 92 100 12 7 5 5 74 5 5 5 38 100 100 100 100 98 27 67 100 100 100 100 84 93 100 100 100 100 100 100 62 87 100 100 100 100 100 100 100 98 97 86 100 100 100 100
100 94 100 66 99 8 6 75 39 5 5 4 73 100 100 100 100 87 99 98 78 66 89 66 82 100 100 100 99 100 100 93 99 100 100 100 72 100 100 100 100 100 100 100 100 97 94
100 99 100 100 100 91 90 8 13 36 30 5 17 88 100 100 100 100 78 7 47 36 82 99 56 100 100 100 100 100 100 100 93 100 98 97 95 84 100 100 100 100 100 100 10 47 72

GFSGBSN_prec_cloud_033.txt.gz
Cloud_Cover
100 100 75 18 100 100 79 37 80 29 98 87 26 31 42 92 96 29 62 47 74 100 99 100 100 100 100 100 100 78 100 100 100 100 100 100 100 100 100 100 100 100 99 87 99 41 22
100 100 100 100 100 100 62 34 4 51 100 96 98 72 5 5 5 3 5 5 19 100 100 100 100 100 100 100 100 100 98 79 100 100 100 100 100 100 100 100 100 100 100 100 100 100 100
100 100 100 100 100 100 93 23 75 70 98 100 100 100 99 5 4 4 5 33 5 59 100 78 100 100 100 100 100 100 100 100 97 100 100 100 100 100 100 100 100 100 100 100 100 100 100
100 100 51 95 49 13 84 73 13 83 100 100 100 100 100 100 13 5 4 90 5 51 95 60 100 100 100 100 100 100 100 100 100 93 94 100 100 100 100 100 100 100 100 100 100 99 100
100 100 100 100 72 73 57 59 96 82 81 100 100 100 100 99 100 78 95 14 13 4 99 94 100 100 100 100 100 100 100 100 100 100 98 100 100 100 100 100 100 100 100 100 100 100 100
100 100 100 100 60 64 79 84 54 37 88 100 96 100 86 5 93 15 6 100 2 2 100 100 100 100 99 100 100 100 100 100 100 100 98 90 100 100 100 100 100 100 100 100 100 100 100
100 100 100 41 50 80 21 15 11 5 49 98 100 100 13 66 70 90 36 23 3 89 99 100 100 98 100 100 100 100 100 100 100 100 100 92 100 100 100 100 100 100 100 100 100 100 100
100 100 100 100 88 22 6 5 8 5 5 9 6 76 92 94 97 100 100 100 4 93 100 100 100 98 100 100 100 100 100 100 100 100 100 93 99 100 89 97 100 100 100 100 100 100 100
100 99 98 63 67 5 14 6 6 30 5 5 5 99 100 81 100 100 100 100 51 94 100 100 96 100 100 100 100 100 100 100 100 100 100 100 100 100 100 100 100 99 25 54 97 76 56
100 100 88 48 100 5 47 9 47 35 5 34 5 100 98 96 39 100 86 64 98 100 100 100 99 100 21 100 100 86 100 100 100 100 100 100 88 98 100 95 64 42 26 17 5 3 1
100 100 68 35 68 36 28 5 84 11 16 93 33 5 5 16 94 97 72 22 98 100 100 100 100 99 85 98 100 100 100 100 100 100 100 100 100 100 100 100 100 100 67 58 58 5 5
100 100 84 44 100 17 5 5 96 21 25 20 18 18 40 100 100 100 100 50 100 100 98 100 100 94 81 81 89 100 100 100 100 100 100 100 100 100 100 100 100 100 99 9 5 27 49
95 91 71 47 80 5 23 14 14 59 97 54 90 100 64 97 69 57 100 98 95 95 100 100 100 89 98 100 100 100 100 100 100 100 100 100 100 100 100 100 100 90 25 33 6 94 22
12 9 100 41 100 5 5 5 20 100 100 100 55 89 60 100 90 98 98 100 100 100 100 100 100 97 100 95 96 100 100 98 96 100 100 100 100 100 100 100 100 100 72 13 15 54 5
61 13 90 95 97 5 5 58 76 100 100 15 10 98 88 97 96 100 100 100 100 100 100 100 100 68 100 99 71 100 100 100 100 100 100 100 100 98 100 94 59 51 83 23 32 5 25
98 50 97 100 56 5 5 12 29 99 92 5 31 81 98 90 72 100 100 100 100 100 100 99 99 95 85 97 76 100 92 99 100 97 100 100 100 100 94 92 90 37 5 73 64 48 30
51 39 80 100 5 5 5 8 11 100 14 5 5 83 96 96 100 100 100 100 100 100 100 100 71 90 79 98 67 94 97 100 98 94 100 100 100 100 88 21 15 81 99 72 86 98 91
98 36 72 100 5 5 5 5 6 100 43 16 20 99 100 100 100 100 100 100 100 100 100 50 25 7 24 90 79 100 83 93 99 100 100 100 100 79 56 99 100 100 74 78 62 85 99
94 27 90 98 5 5 4 8 5 84 62 46 99 96 98 70 100 100 100 79 100 99 100 100 52 5 48 82 100 100 88 100 100 100 93 69 65 73 100 99 59 21 29 98 87 46 67
100 82 100 78 88 5 4 2 2 5 5 16 100 58 67 97 30 96 100 97 61 33 48 8 12 22 94 95 97 100 99 69 100 100 95 29 56 7 25 50 97 51 6 43 73 96 80
100 85 100 100 64 21 4 3 0 2 0 1 30 66 93 90 29 97 100 100 79 49 12 6 71 95 100 100 100 100 99 90 100 86 100 70 50 71 100 45 15 71 44 56 89 55 100
100 100 100 100 52 27 5 2 0 2 2 23 100 100 100 95 100 78 12 10 5 5 5 33 95 100 100 100 100 100 97 100 100 82 78 58 75 86 64 5 27 97 90 100 83 66 79
100 100 74 99 100 79 32 5 2 4 85 100 100 100 100 5 73 71 30 11 36 8 83 100 100 100 100 100 100 100 100 100 99 100 87 79 100 82 70 45 100 100 100 97 59 74 92
100 100 100 100 100 100 100 5 5 1 35 100 100 100 100 26 7 9 7 11 5 72 100 100 100 100 100 100 100 100 100 100 100 100 87 80 100 74 81 95 100 100 100 100 90 100 100
100 100 100 100 100 98 100 20 5 5 5 98 100 95 100 60 86 91 10 5 5 52 100 100 100 100 100 100 100 100 85 100 100 100 100 99 86 91 100 100 100 100 100 99 100 96 100
100 100 100 100 100 100 100 52 11 3 4 49 100 100 100 100 89 30 85 10 78 68 96 100 100 100 100 100 100 100 92 100 100 100 100 99 100 97 100 100 100 100 100 99 100 100 99
100 100 100 100 100 100 100 53 100 19 5 0 100 100 100 100 99 86 91 41 89 96 78 100 100 100 100 100 100 100 100 87 100 100 100 100 100 100 100 100 98 74 49 56 99 100 100
100 100 100 100 100 100 100 100 97 95 20 7 5 100 100 100 93 97 51 7 25 99 100 72 56 82 96 100 100 100 100 100 99 84 88 78 100 100 100 100 90 100 100 100 100 100 26
100 100 100 100 100 100 100 7 77 100 5 46 5 50 100 100 90 83 100 100 66 49 19 100 67 40 90 100 100 100 100 100 100 98 58 100 100 98 100 100 92 100 100 100 81 18 5

GFSGBSN_prec_cloud_036.txt.gz
Cloud_Cover
40 98 100 100 100 100 100 100 58 62 97 98 100 100 100 95 54 99 50 7 5 5 59 98 100 100 100 100 100 100 100 100 100 100 100 100 100 100 100 100 100 100 100 100 100 79 8
100 99 100 89 100 93 15 5 78 27 35 6 45 100 100 100 98 48 82 10 44 7 12 69 100 100 100 95 100 100 100 100 100 100 100 100 100 100 100 100 88 100 96 61 93 100 100
100 99 96 100 100 62 90 54 86 33 12 12 6 77 100 100 100 93 100 2 1 71 3 92 99 100 100 100 100 100 100 100 100 100 100 100 100 100 100 100 100 100 100 100 100 100 100
92 84 98 98 58 70 46 38 8 7 24 5 5 26 88 100 100 100 96 97 5 44 5 12 100 100 100 100 100 100 100 100 100 100 100 100 100 100 100 100 100 100 100 99 100 98 100
97 100 97 100 46 5 42 22 22 48 5 5 5 16 20 43 88 98 58 100 94 100 6 35 66 100 100 100 100 100 96 100 100 100 100 100 100 100 100 100 100 100 100 100 100 100 100
100 100 100 75 5 30 31 44 27 29 9 34 5 30 18 26 96 88 94 99 50 12 1 28 54 100 100 100 100 100 100 100 100 100 100 100 100 100 100 100 100 100 100 100 100 100 100
91 60 89 23 5 98 5 100 48 5 34 11 5 5 5 100 100 100 100 93 24 32 1 3 100 100 97 100 100 100 100 100 100 100 100 100 100 100 100 100 100 100 100 100 100 100 100
91 98 100 34 5 97 100 30 55 30 92 37 5 5 5 58 74 100 100 100 100 32 50 100 100 100 100 100 100 100 100 100 100 100 100 100 100 100 100 100 100 100 100 100 100 100 100
93 93 100 75 6 10 95 50 52 100 87 97 86 5 58 77 45 97 67 83 99 36 93 98 100 100 98 97 100 100 100 100 100 100 100 100 100 100 100 100 100 100 100 100 100 100 100
100 84 100 67 17 85 13 11 26 80 16 100 100 94 52 16 45 70 10 99 24 22 96 100 100 100 100 71 100 100 100 100 100 100 100 100 100 100 100 100 51 27 84 100 100 100 100
61 69 76 38 5 6 14 5 13 50 82 100 6 42 95 71 100 75 73 100 80 77 100 100 100 100 98 60 74 100 100 100 100 100 100 100 99 86 100 100 94 75 5 10 74 100 100
76 97 96 80 5 40 11 9 100 100 98 99 100 100 90 49 49 98 74 58 84 100 100 100 98 100 80 63 26 100 100 100 100 100 100 100 100 100 100 100 24 68 57 46 22 6 58
100 89 88 100 7 43 5 100 98 89 97 22 6 43 60 98 100 97 97 100 100 100 100 100 100 69 74 100 100 100 100 95 100 100 100 100 100 100 100 100 89 100 81 41 75 98 97
100 100 100 100 100 44 5 100 100 91 18 33 12 10 98 52 94 99 56 100 100 100 100 100 85 89 99 100 100 100 100 100 100 100 100 100 100 100 100 98 100 100 96 100 100 100 61
100 46 100 100 32 40 5 51 100 96 5 5 5 14 100 100 100 100 100 100 100 100 100 100 99 100 100 96 100 100 100 100 100 100 100 100 100 100 100 100 100 100 100 100 100 31 34
98 98 100 95 92 5 5 40 44 100 4 5 2 100 97 100 100 100 100 99 100 100 100 93 98 96 100 100 100 100 100 100 100 100 100 100 100 100 100 100 100 100 100 100 100 57 53
100 99 100 100 100 6 5 44 7 70 19 5 66 56 96 100 98 95 100 100 100 100 85 100 93 100 100 88 100 100 100 91 97 97 91 94 95 100 100 100 100 100 98 100 100 16 32
100 99 100 100 100 6 29 62 0 86 24 8 5 6 100 100 100 100 100 100 100 84 29 72 5 5 7 100 100 94 100 98 77 100 100 100 100 80 82 100 76 48 44 40 5 66 12
100 100 100 100 100 61 72 15 5 36 68 36 1 15 20 20 100 100 100 99 90 18 30 78 88 100 98 86 92 45 75 84 100 100 100 76 58 100 100 100 100 100 100 98 100 87 59
100 100 100 100 100 100 100 17 5 0 0 0 1 6 1 54 10 70 97 100 91 54 76 97 39 6 99 100 100 100 100 100 100 100 100 100 100 100 100 100 100 100 100 90 40 97 38
100 100 100 100 100 100 100 100 36 5 0 0 50 96 100 30 5 30 5 5 46 45 11 5 58 60 100 100 100 100 100 100 100 100 100 100 100 100 98 65 14 5 12 24 21 6 52
100 100 100 100 100 100 100 100 70 5 1 23 89 85 100 59 7 5 3 5 5 5 56 21 43 100 100 100 100 100 100 100 100 100 100 95 71 18 6 5 11 5 12 99 100 67 100
100 83 100 100 100 100 100 100 96 5 75 86 100 90 98 6 4 5 5 5 5 5 24 95 99 100 100 100 100 100 100 100 100 100 94 34 27 82 87 10 7 57 86 96 83 80 91
100 100 100 100 100 100 100 100 100 5 36 99 100 100 95 19 11 5 5 5 2 4 4 6 100 100 100 100 100 100 100 100 100 100 92 90 93 100 86 35 76 100 87 100 100 83 79
100 100 100 100 100 100 100 100 100 5 4 92 100 100 100 100 13 15 5 5 5 4 5 100 100 87 100 100 100 100 100 100 100 100 100 100 100 93 95 99 100 100 91 84 100 75 99
100 100 100 100 100 100 100 100 100 80 4 4 100 100 100 100 6 8 8 5 16 5 6 53 62 87 100 100 100 100 100 100 98 100 100 100 100 99 99 100 100 99 98 74 67 34 100
100 100 100 100 100 100 100 100 100 100 85 21 39 91 100 100 64 12 84 64 11 5 6 19 100 69 54 99 100 100 100 100 100 100 94 100 100 100 100 100 93 63 40 64 96 44 100
100 100 100 100 100 100 100 100 100 100 100 100 3 92 94 100 80 31 99 100 41 5 5 24 16 57 17 55 64 97 99 100 98 94 94 98 100 100 100 100 100 51 15 52 79 100 100
100 100 100 100 100 100 100 100 100 90 100 100 5 5 56 100 97 95 100 100 92 7 36 99 39 58 94 50 68 90 95 100 85 100 100 92 42 86 55 99 100 97 68 58 100 100 21

GFSGBSN_prec_cloud_039.txt.gz
Cloud_Cover
93 100 100 55 100 100 60 95 96 99 5 5 10 57 15 5 10 100 100 98 92 4 4 3 91 100 100 100 100 100 100 100 100 100 100 100 100 100 100 100 100 100 100 100 100 100 96
100 92 83 100 100 59 23 83 7 5 9 7 12 22 87 5 5 95 100 100 96 17 4 2 100 100 100 100 100 100 100 100 100 100 100 100 100 100 100 100 100 100 100 100 100 100 98
95 100 100 100 100 40 28 78 13 96 9 9 10 62 6 2 5 80 88 100 94 9 2 22 100 100 100 100 100 100 100 100 100 100 100 100 100 100 100 100 100 100 100 100 100 100 100
100 100 100 74 100 23 99 100 72 76 5 13 93 64 5 2 21 56 100 100 100 96 24 5 100 100 100 100 100 100 100 100 100 100 100 100 100 100 100 100 100 100 100 100 100 100 100
95 100 100 100 77 98 97 100 92 11 6 19 40 39 5 5 58 100 100 95 100 70 50 5 96 100 100 100 100 100 100 100 100 100 100 100 100 100 100 100 100 100 100 100 100 100 93
100 100 100 100 51 100 97 100 38 25 86 89 91 54 5 63 98 100 100 93 37 58 54 21 24 100 91 98 100 100 100 100 100 100 100 100 100 100 100 100 100 100 100 100 100 100 100
93 100 100 100 67 100 100 68 66 5 76 100 25 24 5 5 87 100 100 100 79 74 8 0 14 100 100 100 100 100 100 100 100 100 100 100 100 100 100 100 100 100 100 100 100 100 100
100 100 100 100 100 83 69 18 7 11 70 98 100 14 5 5 94 100 100 100 100 93 43 0 100 100 100 100 100 100 100 100 100 100 100 100 100 100 100 100 100 100 100 100 100 100 100
99 77 97 100 91 86 19 76 13 63 100 100 100 97 98 6 7 19 74 26 94 96 83 29 100 89 100 100 100 100 100 100 100 100 100 100 100 100 100 100 100 100 100 100 100 100 100
100 100 82 100 100 83 65 5 92 100 100 100 100 90 100 72 33 100 65 99 80 48 64 100 100 100 100 100 97 100 100 100 100 100 100 100 100 100 100 100 100 100 100 100 100 92 98
100 100 95 100 100 100 18 85 86 93 78 18 14 91 68 45 55 58 77 99 6 95 10 88 100 100 100 83 81 100 100 100 100 100 100 100 96 100 100 100 100 100 100 100 100 100 97
100 100 100 100 90 80 15 28 100 98 33 11 5 5 5 16 58 41 52 69 92 68 100 100 100 100 82 83 72 100 100 100 100 100 100 100 100 98 100 100 100 80 100 100 89 92 100
100 100 100 100 5 98 32 37 100 100 50 5 5 8 5 5 9 23 65 59 100 100 100 100 100 87 98 100 97 100 100 100 100 100 100 100 100 99 94 91 89 100 100 80 5 64 93
100 100 100 90 42 100 9 57 100 100 31 7 5 26 95 100 10 77 100 100 100 100 100 100 99 100 100 100 100 100 100 100 100 100 100 100 100 100 100 100 97 100 90 100 100 72 5
95 100 100 35 97 5 5 87 92 100 9 5 5 24 100 74 100 100 100 100 100 100 100 100 100 100 100 100 100 100 100 100 100 100 100 100 100 100 100 100 72 78 64 85 15 7 39
100 100 100 100 100 65 25 68 95 100 25 1 79 16 58 29 72 85 100 100 100 100 95 96 90 85 99 100 100 100 100 100 100 100 17 72 100 100 100 100 100 100 100 100 100 100 41
100 100 100 100 100 100 75 99 57 100 75 0 8 95 99 100 10 61 100 100 89 9 58 98 97 100 100 100 100 100 100 100 100 100 100 100 100 100 100 100 100 100 100 100 75 35 87
100 89 100 100 100 100 100 100 27 94 76 8 0 6 100 77 99 100 100 100 80 29 5 37 100 72 94 100 100 100 100 100 100 100 100 100 100 100 100 100 100 100 100 100 99 100 100
89 100 100 100 100 100 100 100 90 7 88 3 2 4 8 5 100 83 46 5 5 14 34 83 90 91 98 100 100 100 100 100 100 100 100 100 100 100 100 100 100 100 100 100 100 91 66
12 100 100 100 100 94 100 100 100 39 0 0 0 14 0 4 35 66 5 9 45 50 99 97 93 100 100 100 100 100 100 100 100 100 100 100 100 100 100 100 100 100 100 100 100 94 16
5 100 100 100 100 100 100 100 100 61 5 0 50 95 100 59 3 5 13 29 6 43 39 16 74 93 100 100 100 100 100 100 100 100 100 100 100 100 100 100 100 100 100 100 72 65 64
5 92 100 100 100 100 100 100 100 85 5 7 93 91 100 98 0 4 5 5 5 5 5 8 23 95 100 100 100 63 100 100 100 98 100 100 100 100 100 100 100 100 100 100 100 100 59
5 49 100 100 100 100 100 91 100 54 11 97 100 98 74 10 5 1 2 4 5 5 30 100 100 100 100 97 100 100 100 100 100 100 100 100 100 100 100 70 97 84 80 84 100 100 93
5 100 100 100 100 100 100 100 99 96 61 94 100 100 74 7 5 5 5 4 1 0 4 28 88 99 71 60 96 100 100 100 100 100 96 87 77 89 68 21 62 46 62 100 100 87 100
9 91 99 100 100 100 100 100 100 100 100 34 100 100 100 100 37 5 5 5 5 0 4 5 5 64 54 73 92 100 100 100 100 100 100 95 100 60 100 75 29 83 96 100 100 100 99
14 5 66 92 100 100 100 100 100 100 100 100 100 100 100 100 12 38 47 5 5 5 5 5 5 67 57 85 100 85 97 100 92 100 99 100 100 92 99 94 62 99 81 97 88 81 81
5 6 11 98 100 100 100 100 100 100 100 100 63 48 94 100 70 88 48 5 5 32 5 5 5 12 38 81 100 100 86 100 100 100 100 100 100 100 100 98 98 100 100 99 89 83 100
50 97 34 87 100 100 100 100 100 100 100 100 70 90 100 100 96 11 60 98 48 57 53 28 15 53 5 26 74 100 86 93 100 100 100 100 94 100 99 100 90 100 100 98 93 99 72
100 100 81 100 100 100 100 100 100 100 100 100 54 28 100 100 59 38 35 24 73 75 69 94 72 38 44 5 38 100 96 98 73 96 95 99 25 82 70 100 95 100 97 71 94 91 100

GFSGBSN_prec_cloud_042.txt.gz
Cloud_Cover
100 98 100 30 100 93 48 68 100 100 98 93 13 71 13 23 5 69 26 5 38 100 100 5 5 80 96 100 100 100 100 100 100 100 100 100 100 100 100 100 100 100 100 100 100 100 100
100 100 37 84 100 80 37 90 28 100 100 100 7 82 26 5 5 26 5 43 100 100 100 6 1 65 100 100 100 99 100 100 100 100 100 100 100 100 100 100 100 100 100 100 100 100 100
100 63 15 89 100 49 52 100 22 100 86 52 95 100 96 5 5 19 5 37 100 100 100 5 4 70 100 100 72 100 100 100 100 100 100 100 100 100 100 100 100 100 100 100 100 100 100
15 63 42 97 100 97 99 8 100 93 26 78 54 100 6 5 8 40 5 100 100 100 100 12 37 83 100 80 83 100 100 100 100 100 100 100 100 100 100 100 100 100 98 100 100 100 100
100 95 93 100 100 78 72 33 54 5 5 30 22 100 34 5 25 94 100 100 10 95 100 98 71 100 100 34 87 100 100 100 100 100 100 100 100 100 100 100 100 100 100 100 100 100 100
95 49 100 100 100 100 60 9 95 5 5 10 76 92 32 5 22 100 100 100 97 94 88 32 79 88 76 14 100 100 100 100 100 100 100 100 100 100 100 100 100 100 100 100 100 100 100
88 63 100 21 97 100 100 100 58 62 100 38 36 10 69 100 15 18 100 100 54 92 78 5 2 43 14 17 100 100 100 100 100 100 100 100 100 100 100 100 100 100 100 100 100 100 100
85 24 100 92 100 100 90 100 15 100 100 75 68 100 100 100 9 38 85 99 56 82 48 5 18 100 100 100 100 100 100 100 100 100 100 100 100 100 100 100 100 100 100 100 100 100 98
5 9 100 90 91 100 100 99 100 96 100 100 100 100 100 100 18 4 84 47 71 82 61 9 38 100 100 100 100 100 100 100 100 100 100 100 100 100 100 100 100 100 100 100 100 100 100
31 10 68 98 100 69 100 100 100 86 82 32 72 5 86 71 30 5 32 91 83 22 56 54 100 100 100 100 100 100 100 100 100 100 100 100 99 100 100 100 100 100 100 100 100 100 100
5 39 12 73 66 99 100 100 100 76 9 27 65 11 5 9 18 9 44 5 6 38 4 25 100 100 100 100 100 99 100 100 100 100 100 100 100 100 100 100 100 100 100 100 100 100 100
5 52 99 28 84 5 5 100 100 96 37 8 65 75 5 5 8 27 86 87 98 65 83 100 100 100 100 99 88 83 100 100 100 100 100 93 100 100 100 100 100 100 100 100 100 100 100
30 4 52 29 50 18 36 100 100 96 4 24 5 50 60 100 100 54 94 100 30 50 63 100 100 100 100 89 53 97 100 100 100 100 100 100 100 98 100 100 100 100 100 100 100 100 100
4 72 46 5 100 96 80 44 100 100 5 3 5 2 12 99 100 58 98 64 43 94 96 100 100 100 100 88 85 100 100 100 100 100 100 100 100 100 100 100 100 100 100 97 100 100 100
88 11 93 6 45 100 100 19 100 100 77 5 5 58 21 30 83 84 97 50 93 86 100 100 89 100 100 99 100 100 100 98 100 100 100 100 100 100 100 100 100 99 77 96 100 100 100
5 18 30 95 29 100 100 74 100 100 83 6 5 56 25 56 100 75 99 100 100 100 69 39 91 60 100 100 100 100 100 100 98 100 100 100 100 100 90 98 100 100 100 100 100 75 51
5 7 6 100 74 100 100 100 100 100 4 0 1 5 13 5 71 65 100 100 21 100 71 87 95 100 100 100 100 100 100 100 100 100 100 100 100 100 100 94 91 49 32 8 5 35 86
5 74 5 100 100 100 100 100 100 96 40 5 0 5 4 2 75 98 100 67 55 5 5 31 47 19 8 24 30 73 100 95 100 100 100 100 100 100 100 100 100 100 100 100 74 32 100
5 31 41 59 100 100 100 100 100 76 90 5 3 1 5 0 12 31 5 5 5 14 14 17 70 64 98 84 65 100 96 100 100 100 97 82 88 100 100 100 100 100 100 100 100 100 100
5 9 90 18 93 100 100 100 100 22 26 3 0 13 0 4 24 5 5 5 5 12 40 62 76 100 100 100 100 100 99 92 100 87 86 100 100 100 100 100 100 100 100 93 100 100 100
5 5 99 6 50 100 100 100 100 28 41 5 27 92 98 78 6 7 5 5 5 5 15 74 100 100 99 91 93 100 100 100 100 100 100 100 100 100 100 100 100 100 100 100 100 100 100
9 5 12 100 90 95 100 100 100 90 100 51 47 89 100 99 3 5 5 5 5 2 5 5 5 11 100 100 100 65 65 17 5 28 93 100 100 100 100 100 100 100 100 100 58 49 6
6 5 20 100 100 100 100 100 100 100 100 100 100 100 100 4 3 0 4 5 4 5 5 5 6 19 99 97 39 88 95 100 100 100 100 100 100 100 100 100 100 100 100 100 100 43 100
5 28 6 100 53 71 98 100 100 100 100 100 100 100 95 41 2 2 4 5 5 5 5 37 88 42 41 55 59 75 99 81 86 22 75 97 100 100 100 98 100 100 100 100 100 100 100
15 5 10 45 49 81 85 100 100 100 100 100 100 100 99 96 95 5 5 5 5 2 5 43 12 47 52 89 80 49 80 87 97 100 100 100 100 94 96 100 83 98 99 93 100 100 100
38 61 9 5 97 47 84 100 100 100 100 100 100 91 100 100 15 92 100 14 5 4 5 5 5 5 22 94 90 36 59 55 96 100 100 95 80 58 96 94 54 97 80 81 100 100 100
8 6 84 20 100 100 92 100 100 100 100 100 100 100 82 100 69 94 100 57 5 5 5 5 5 5 6 38 89 66 9 6 88 96 100 100 98 70 99 72 5 81 97 97 100 100 100
98 99 99 93 50 78 77 100 100 100 100 100 100 100 100 100 97 100 100 100 100 13 31 5 9 5 5 37 52 74 9 10 64 55 94 64 88 100 100 90 68 99 100 99 100 100 100
100 100 87 100 99 80 91 100 100 100 100 100 100 100 100 100 100 100 100 100 97 94 100 89 43 5 5 44 5 66 95 12 22 98 34 59 24 78 16 65 100 100 100 100 100 91 100

GFSGBSN_prec_cloud_045.txt.gz
Cloud_Cover
8 77 100 74 83 5 70 22 35 86 5 5 10 51 37 5 60 76 74 46 49 42 5 79 20 10 58 80 46 62 100 100 100 100 100 100 100 100 100 100 100 100 100 100 100 100 100
100 15 100 98 85 67 79 37 42 5 29 67 31 33 26 12 16 4 2 4 11 5 7 5 5 15 26 100 74 100 100 100 100 100 100 100 100 100 100 100 100 100 100 100 100 100 100
94 100 100 100 93 100 93 20 6 57 98 15 7 22 100 5 5 5 1 5 69 84 100 100 98 17 34 93 62 100 100 100 100 100 100 100 100 100 100 100 100 100 100 100 100 100 100
66 97 71 99 84 100 100 100 100 86 5 36 32 22 24 5 5 81 100 23 9 93 100 100 100 98 88 19 94 100 97 100 100 100 100 100 100 100 100 100 100 100 100 100 100 100 100
35 100 86 93 97 100 100 100 5 6 98 51 80 100 100 100 22 25 95 93 94 100 100 100 88 92 13 24 99 99 100 100 100 100 100 100 100 100 100 100 100 99 100 100 100 100 100
89 100 100 40 87 98 100 100 100 14 93 100 78 97 100 100 97 2 46 49 39 24 65 100 100 94 5 100 98 100 100 100 100 100 100 100 100 100 100 100 100 100 100 100 100 100 100
100 2 100 26 97 100 100 100 85 61 99 100 100 99 44 100 100 6 37 57 8 100 6 29 51 74 37 64 96 100 99 95 100 100 100 100 100 100 100 100 100 100 100 100 100 100 100
50 30 100 59 91 89 100 64 94 100 100 100 87 68 16 69 94 5 5 5 35 83 20 5 55 100 87 100 100 100 100 100 100 100 100 100 100 100 100 100 100 100 100 100 100 100 100
0 2 70 6 4 51 100 100 99 94 96 97 35 95 6 5 98 11 5 23 82 80 35 23 26 100 100 100 92 82 100 100 100 100 100 100 100 100 100 100 100 100 100 100 100 100 100
26 49 29 0 30 24 100 100 100 100 91 32 24 54 5 5 10 6 5 77 68 5 5 89 100 99 100 100 100 100 100 100 100 100 100 100 100 100 100 100 100 100 100 100 100 100 100
56 12 4 1 5 53 100 100 100 100 78 2 17 92 4 86 30 60 55 12 10 6 100 98 100 100 100 94 64 96 100 100 100 100 100 100 100 100 100 100 100 100 100 100 100 100 100
7 51 18 16 5 41 65 100 100 100 100 6 2 21 5 59 53 98 81 100 100 100 100 99 100 100 90 98 93 47 100 100 100 100 100 100 100 99 100 100 100 100 100 100 100 100 100
10 85 5 5 4 68 75 100 100 100 100 82 3 3 2 13 49 73 22 33 5 73 100 100 100 100 100 100 100 100 100 100 100 100 100 100 100 100 100 100 100 100 100 100 100 100 100
5 100 46 5 5 50 32 96 93 100 100 56 5 5 44 60 90 100 100 60 17 100 100 100 100 100 100 99 94 100 100 100 100 100 100 100 100 100 97 93 88 100 100 100 100 100 100
5 61 100 8 5 9 45 100 20 100 100 57 5 5 15 6 85 99 92 42 33 52 100 100 93 49 74 99 57 100 100 100 100 100 100 100 100 100 100 100 80 88 100 100 100 100 100
8 5 99 12 5 5 26 100 83 89 100 29 0 2 5 10 5 45 95 100 98 100 42 16 76 90 81 100 100 100 100 100 98 76 86 100 100 100 100 100 100 100 97 100 100 100 100
34 9 54 1 4 10 18 96 100 82 38 0 0 0 4 5 2 5 97 100 98 14 5 21 5 61 99 87 100 99 100 100 100 100 100 100 100 100 100 100 100 100 100 100 100 100 100
59 5 97 36 5 5 40 5 100 97 91 3 0 0 0 0 4 64 100 97 100 82 5 5 12 74 74 100 96 36 65 99 45 100 100 100 100 100 100 100 100 100 100 100 100 100 100
5 6 94 14 4 62 32 13 43 99 100 24 0 0 0 0 5 41 5 5 13 6 23 61 61 95 100 100 100 100 74 48 66 77 100 100 100 100 100 100 100 100 100 100 100 100 99
5 6 51 79 0 12 66 96 79 94 89 91 1 4 0 0 6 0 1 4 4 1 5 5 24 92 92 33 45 47 17 30 39 62 100 100 100 100 100 100 100 53 76 88 100 100 81
5 5 5 99 88 67 81 10 95 88 100 51 90 93 95 66 5 8 1 1 0 3 0 0 5 16 41 41 74 93 60 100 88 100 100 100 100 100 100 100 100 100 100 100 100 100 88
6 27 5 91 100 9 5 5 42 63 86 100 100 92 100 98 5 5 5 5 0 0 5 5 5 5 5 50 20 66 34 56 64 100 100 68 100 99 100 100 100 100 100 100 100 100 90
14 20 5 5 100 3 5 5 5 71 80 100 100 100 96 14 4 3 5 5 5 5 5 5 5 5 5 5 5 5 5 93 98 98 100 100 100 100 100 100 100 100 100 100 100 100 100
5 11 5 5 58 9 5 5 5 77 76 98 100 100 100 54 5 2 4 5 5 5 5 5 48 33 34 30 17 8 38 25 5 6 35 82 100 94 96 44 58 80 100 74 73 61 84
12 93 97 6 10 72 6 5 30 72 98 98 100 100 100 100 91 5 83 34 5 5 5 5 6 34 5 83 93 85 86 83 100 100 99 100 100 82 100 90 56 14 56 99 100 98 100
94 26 5 26 5 99 100 57 6 72 99 100 100 100 100 100 99 68 100 82 7 20 3 5 7 57 75 51 100 95 90 48 100 100 100 100 98 92 80 93 80 44 58 100 100 100 100
83 66 25 8 39 55 99 30 90 77 93 89 100 100 100 100 100 100 100 99 31 26 38 5 7 8 47 52 100 97 61 63 83 100 97 92 98 86 72 100 70 80 95 90 100 100 100
100 92 99 45 42 100 100 92 100 91 55 100 99 100 100 100 80 100 100 100 100 100 31 45 24 20 36 74 80 95 25 69 91 41 100 90 90 100 100 100 65 12 84 87 100 100 100
100 100 100 100 18 90 82 100 100 84 81 100 100 100 100 100 99 100 100 100 70 99 100 100 62 6 5 7 7 9 6 46 44 100 56 48 63 36 13 34 5 5 56 100 100 100 100

GFSGBSN_prec_cloud_048.txt.gz
Cloud_Cover
100 100 86 55 100 61 99 100 5 5 10 18 28 94 5 5 5 5 2 1 5 5 45 100 100 100 99 47 44 34 22 70 100 93 100 100 100 100 100 100 100 64 100 100 100 100 100
37 100 48 100 68 73 100 99 42 64 20 15 98 36 11 75 35 5 4 1 5 21 90 100 100 100 94 80 4 98 100 100 43 100 92 100 100 100 100 100 100 100 100 100 100 100 100
0 100 28 100 100 89 100 15 88 28 3 97 100 37 100 100 100 6 26 5 6 86 96 100 100 100 27 5 12 10 54 24 73 99 100 100 100 100 100 100 100 100 100 100 100 100 100
100 36 52 100 94 100 74 24 97 38 40 50 99 100 100 100 100 46 1 28 100 100 66 100 100 100 73 2 90 75 80 98 69 100 100 100 100 100 100 100 100 100 100 100 100 100 100
100 69 32 94 97 100 100 98 90 100 77 20 55 94 73 74 100 100 79 18 29 100 100 100 100 100 16 5 9 100 100 100 64 100 100 100 100 98 100 100 100 100 100 100 100 100 100
100 96 2 42 3 92 100 100 100 100 43 35 44 14 5 5 100 100 100 4 6 7 82 100 98 77 42 4 94 100 79 97 56 100 100 100 100 98 100 100 100 100 100 100 100 100 100
56 0 89 62 44 99 99 100 100 100 70 49 100 98 3 5 100 100 100 4 19 28 30 91 82 100 36 80 90 100 100 93 100 100 100 100 100 88 100 100 100 100 100 100 100 100 100
94 3 64 27 39 20 98 100 100 100 79 35 99 62 4 5 44 100 4 5 5 18 20 100 99 100 100 100 100 100 99 100 84 100 100 100 100 68 100 100 100 100 100 100 100 100 100
44 0 11 13 12 88 29 90 66 100 48 53 81 27 96 5 16 27 6 25 5 5 50 33 10 80 100 100 92 100 100 100 99 100 100 100 100 98 95 98 100 100 100 100 100 100 100
58 11 28 78 5 29 5 90 53 50 88 80 0 19 5 5 34 5 43 51 5 30 47 98 99 100 100 100 100 100 100 100 100 100 100 100 100 100 100 87 100 100 100 100 100 100 100
5 5 5 4 5 8 5 7 100 91 100 100 3 3 1 4 5 38 51 22 64 100 100 89 100 81 72 100 100 100 100 100 100 100 100 100 100 100 99 100 100 100 100 100 100 100 100
5 5 19 5 5 5 5 6 6 77 100 100 83 5 3 4 6 10 37 5 7 50 96 100 100 100 100 100 100 100 100 100 100 100 100 100 100 100 100 67 100 100 100 100 100 100 100
5 8 5 5 28 21 5 94 1 10 98 100 97 5 24 5 17 43 57 63 33 82 86 100 100 98 100 100 100 99 100 100 100 100 100 100 100 100 100 100 100 100 100 100 100 100 100
6 39 7 5 5 5 12 87 5 2 64 100 37 5 5 6 94 40 48 24 43 100 100 100 100 99 100 100 90 100 97 100 100 100 100 100 100 100 100 100 95 100 100 100 100 100 100
5 8 68 2 5 5 5 96 28 2 21 100 0 2 5 5 5 75 87 87 86 100 100 100 76 99 92 68 73 100 100 91 98 100 100 100 99 100 100 100 84 91 100 100 100 100 100
5 11 100 3 0 5 8 40 57 2 10 48 0 0 0 0 1 32 29 93 99 86 83 43 6 45 64 62 50 100 99 81 100 99 100 100 100 100 99 97 75 100 97 96 100 100 100
5 5 100 13 54 0 22 5 82 5 2 0 0 0 0 0 3 3 98 100 100 7 5 5 5 5 35 100 100 100 100 77 67 93 100 100 100 90 83 41 43 53 5 8 50 100 100
5 5 29 100 5 13 3 5 38 23 14 4 5 29 0 2 13 27 34 100 36 6 5 3 5 5 40 20 14 5 100 100 100 60 84 72 100 100 100 23 5 5 70 100 98 100 100
7 5 5 76 64 0 5 3 7 48 79 32 6 3 0 0 10 0 5 5 5 5 5 6 6 6 5 18 48 34 95 97 100 85 78 74 92 95 98 100 100 100 100 100 100 100 100
6 7 0 5 100 26 0 2 5 78 5 1 62 56 2 0 0 0 0 0 4 3 0 5 5 5 5 55 5 5 5 81 100 100 100 100 100 100 100 100 100 100 100 100 100 100 100
5 8 5 5 99 39 0 0 3 5 88 5 7 90 96 7 3 0 0 1 0 0 0 3 5 5 5 5 5 5 5 5 5 49 100 100 100 100 100 66 100 100 100 100 100 100 100
5 5 5 5 5 30 0 0 1 5 60 60 92 98 100 96 5 1 0 3 0 0 0 2 5 5 5 5 7 5 14 5 8 26 99 100 100 100 100 79 86 100 99 100 100 100 100
11 14 48 6 20 5 5 3 4 5 6 100 67 98 96 35 18 4 2 3 4 2 0 5 5 5 5 5 7 5 5 5 41 98 100 100 100 100 100 100 100 100 100 99 100 100 100
32 11 100 89 6 68 6 5 5 5 6 85 100 100 100 96 70 8 5 2 5 5 5 5 5 6 5 5 5 7 5 5 5 12 25 98 100 68 57 34 67 100 100 100 100 100 94
15 71 59 6 5 5 79 22 5 5 5 88 98 100 100 93 98 100 88 90 5 5 5 5 9 55 16 64 90 76 88 74 64 93 45 98 100 93 53 57 75 82 100 100 100 100 100
83 100 100 22 5 37 46 69 6 18 5 34 100 100 100 100 27 96 100 100 90 5 5 5 5 41 99 98 100 80 84 76 64 99 94 88 92 84 100 95 84 95 97 100 100 91 76
100 99 89 13 6 7 80 98 92 94 5 54 90 98 100 100 93 91 100 100 100 84 5 5 5 8 93 94 100 96 70 76 80 99 98 100 100 91 100 98 88 82 82 100 100 100 100
83 62 20 100 100 22 98 82 98 100 87 89 92 96 100 100 96 100 100 100 100 100 59 98 85 94 77 50 100 100 49 27 45 95 64 80 98 100 100 100 88 100 58 83 100 100 100
11 16 96 100 99 74 93 96 100 100 100 95 75 58 80 100 100 100 100 100 100 100 100 100 84 5 8 13 9 8 8 7 63 77 90 72 99 100 100 100 87 84 95 85 89 100 100

GFSGBSN_prec_cloud_051.txt.gz
Cloud_Cover
0 46 79 88 85 100 61 28 7 100 32 2 29 26 64 98 100 100 43 0 0 31 5 5 83 65 73 74 7 23 16 20 23 43 34 100 100 100 100 100 100 100 100 100 51 100 100
1 17 64 82 100 92 100 88 67 94 9 76 73 5 74 100 100 100 98 6 2 21 100 8 88 100 100 90 26 96 85 61 23 58 6 40 100 100 100 100 100 100 100 100 100 100 100
5 65 0 100 3 97 100 34 94 34 5 47 100 83 17 7 94 100 100 2 30 22 76 100 99 100 100 99 48 100 100 100 80 56 42 4 100 100 100 100 100 100 99 100 100 100 100
15 15 5 98 100 86 91 48 64 16 47 71 92 41 1 5 80 100 88 16 16 100 61 28 100 100 100 57 7 100 83 69 100 63 72 15 100 100 100 100 100 100 100 100 100 100 100
2 1 16 4 2 67 69 100 7 100 21 75 36 2 5 5 11 88 100 100 44 0 100 19 92 100 100 80 0 99 100 100 86 95 100 36 100 100 100 100 100 100 99 100 100 100 100
5 4 27 22 36 2 99 78 79 93 57 67 64 8 13 5 6 98 100 80 0 20 41 45 100 80 100 97 10 55 49 100 100 100 68 94 100 100 100 100 100 100 100 100 100 100 100
5 5 14 8 5 3 4 100 99 100 49 100 71 5 5 1 81 100 94 4 48 83 100 88 94 100 100 70 88 30 13 100 100 90 32 100 100 100 60 89 100 100 100 100 100 100 100
5 5 22 79 5 4 4 96 100 99 47 39 97 4 5 5 5 43 66 24 55 57 68 16 63 100 100 100 100 100 100 100 100 20 50 100 100 100 100 100 100 100 100 100 100 100 100
5 5 8 42 58 2 5 63 100 100 10 49 99 89 1 1 5 18 10 16 0 0 85 89 60 100 100 100 96 100 100 100 75 77 100 100 100 100 100 100 96 100 100 100 100 100 100
5 5 25 13 38 1 5 6 100 100 28 54 97 26 0 0 53 93 94 71 11 20 99 100 100 100 100 100 100 100 100 100 90 98 100 100 100 100 100 100 89 100 100 100 100 100 100
5 5 5 6 81 0 5 31 5 100 96 97 40 93 5 0 4 3 56 9 78 100 100 100 100 100 100 100 100 100 100 95 100 100 100 100 100 100 100 100 89 97 100 100 100 100 100
5 5 5 5 0 0 4 17 18 19 95 97 100 37 5 70 18 0 1 3 19 91 99 100 100 100 100 100 100 100 100 100 100 100 100 100 100 100 100 98 100 96 100 100 100 100 100
5 5 5 5 80 44 2 5 5 0 12 100 100 10 5 5 67 8 41 94 93 68 81 100 100 100 100 100 100 100 100 100 100 100 100 100 100 100 100 99 94 89 100 100 100 100 100
5 5 5 5 7 32 74 6 82 0 24 84 12 1 5 10 5 56 100 90 34 100 100 100 100 100 100 100 100 100 100 100 100 100 100 100 100 100 100 58 93 100 98 96 100 100 100
5 5 11 5 5 8 46 0 8 2 0 77 0 0 26 44 43 91 94 81 48 79 67 36 87 36 100 99 100 100 100 100 100 100 100 100 100 100 100 100 100 99 92 95 100 100 100
5 5 5 7 0 20 2 0 3 4 0 55 0 5 0 0 52 100 30 79 70 59 42 69 87 97 100 93 100 100 100 76 99 100 100 100 100 100 100 100 100 100 94 88 51 98 100
7 5 5 26 40 1 0 0 0 5 0 2 0 6 0 0 41 43 96 66 99 21 6 42 52 75 100 81 97 63 90 68 80 100 100 100 100 100 100 100 100 91 70 80 98 51 100
5 7 1 19 14 0 0 0 0 28 4 1 1 41 3 0 63 18 7 44 7 5 5 3 9 45 100 84 69 79 63 59 72 96 100 100 100 100 100 70 100 100 81 73 66 100 100
5 5 0 2 0 0 0 0 0 0 86 77 0 2 51 0 41 20 2 0 0 2 0 3 4 5 95 100 68 22 10 5 5 80 47 44 100 100 77 91 100 99 100 100 97 100 100
5 48 57 5 0 0 0 0 0 0 3 77 3 22 33 5 0 12 5 5 4 0 0 0 1 2 5 19 82 100 100 94 94 100 53 21 90 100 100 100 100 99 7 12 28 58 92
29 5 5 5 5 0 0 0 0 0 0 25 32 78 99 90 14 5 0 3 5 5 3 3 5 5 5 6 14 8 8 82 100 100 99 79 87 69 54 70 57 74 81 38 95 65 5
5 14 25 14 5 5 0 0 0 0 0 2 100 94 100 69 5 15 3 5 5 3 2 5 5 5 5 5 57 88 79 9 13 23 66 93 100 100 6 38 64 96 100 100 100 100 100
5 5 66 5 5 5 5 5 0 0 0 5 24 100 99 46 94 89 58 45 3 0 1 4 5 6 6 12 5 5 5 13 50 5 5 14 100 94 93 78 45 68 81 100 100 100 100
5 8 57 7 4 3 5 5 5 2 1 6 36 100 100 84 68 96 95 14 41 15 14 0 2 24 14 12 5 5 5 5 6 6 5 90 68 100 100 65 88 100 98 100 100 79 100
90 99 75 7 5 5 5 5 5 5 2 5 5 30 100 100 100 56 97 99 7 5 4 3 3 4 5 5 80 94 86 75 69 6 14 87 87 97 76 100 100 100 100 100 100 100 99
100 100 34 5 17 5 6 5 6 40 5 5 6 7 66 100 100 100 94 100 83 100 38 5 5 5 6 21 97 100 100 92 100 67 6 46 80 87 95 82 50 100 92 100 100 100 100
24 62 5 5 6 15 90 5 6 42 17 18 35 8 77 84 100 100 100 95 100 97 100 88 49 13 92 79 98 90 100 76 94 100 93 84 100 99 100 100 100 65 64 67 78 100 96
5 5 5 7 68 100 84 5 5 58 97 40 82 9 18 60 100 100 100 100 100 100 100 100 64 98 71 59 84 71 47 81 85 92 99 94 100 100 100 100 100 100 88 82 100 100 97
12 5 11 100 80 81 5 5 16 77 98 72 85 61 33 91 73 99 100 100 100 100 100 100 100 100 90 88 96 96 91 76 78 100 64 99 100 100 100 100 100 100 93 100 84 97 100

GFSGBSN_prec_cloud_054.txt.gz
Cloud_Cover
23 38 84 11 87 4 98 77 100 97 1 25 80 96 27 11 12 75 100 100 100 96 0 4 20 18 19 99 88 46 77 100 100 65 11 7 100 100 100 100 100 100 100 100 100 48 100
83 21 42 4 10 34 30 100 98 16 2 58 100 100 20 11 6 76 100 100 100 2 3 74 100 100 86 78 100 71 100 98 100 79 99 3 88 100 100 100 100 100 100 100 98 100 100
73 4 30 100 5 33 93 100 100 2 52 97 100 20 0 25 4 99 100 100 21 56 2 2 14 96 96 100 100 5 100 99 100 100 100 4 7 100 100 100 100 100 100 100 100 100 100
64 5 10 11 5 5 99 100 99 12 2 78 95 19 4 40 5 51 100 100 100 76 60 93 10 91 100 100 100 77 83 100 100 100 100 5 6 100 100 100 100 100 100 100 77 100 100
7 12 6 99 5 5 66 100 35 25 51 100 38 5 2 10 5 48 100 97 26 0 10 44 27 100 99 100 44 5 100 98 100 100 100 96 32 62 100 100 100 100 100 93 100 100 100
5 12 16 18 27 5 8 100 76 100 100 100 5 5 0 5 78 70 4 0 3 12 4 40 92 95 94 83 15 7 100 91 94 100 100 98 16 22 56 100 96 100 98 100 100 100 100
5 5 45 78 50 4 63 59 62 100 95 97 1 9 3 0 66 4 4 6 67 82 96 100 95 100 34 50 42 37 100 100 60 100 100 78 52 40 4 10 100 100 100 100 100 100 100
5 5 21 6 7 3 0 60 77 93 100 89 59 45 4 4 86 10 3 6 4 34 59 5 90 12 6 100 100 100 100 100 100 100 85 82 72 86 71 94 100 100 100 100 99 100 100
5 5 5 7 5 2 0 11 23 29 100 70 98 100 0 0 5 8 5 31 37 19 27 17 70 72 44 11 100 92 100 100 100 87 60 99 99 77 66 79 84 97 100 100 51 100 100
5 5 5 5 18 2 0 9 5 2 7 100 95 100 4 0 24 3 15 8 94 77 91 95 100 100 100 100 100 70 100 100 100 100 95 83 100 64 100 63 99 30 100 100 68 100 100
5 5 5 17 5 10 73 89 4 3 0 62 100 100 5 5 28 3 3 18 91 33 100 100 100 100 100 100 100 100 100 100 100 90 92 96 27 95 100 100 92 100 16 100 100 100 100
5 5 6 6 4 96 5 3 37 4 0 8 100 93 6 94 100 9 0 6 16 92 100 100 100 100 100 100 100 100 67 32 66 97 55 100 100 98 100 100 100 40 91 99 100 100 100
10 5 8 5 4 100 37 2 3 5 0 0 100 21 19 5 100 15 46 91 96 66 99 100 100 100 100 100 100 100 100 87 59 100 94 100 100 100 100 92 80 76 73 39 97 100 100
9 5 5 5 8 28 0 2 0 3 1 0 1 0 0 1 84 64 100 98 13 100 100 99 100 100 100 100 100 100 100 98 100 100 100 100 100 100 100 92 95 96 100 97 71 99 100
5 8 4 1 0 1 4 4 0 0 0 0 0 0 0 5 16 100 100 55 57 84 67 83 100 100 100 100 100 100 100 100 100 100 100 100 100 100 100 98 100 69 64 97 99 97 100
5 3 3 0 0 1 0 0 0 0 3 1 0 0 0 0 8 90 73 10 58 5 83 100 99 100 73 100 100 100 100 95 97 99 100 100 100 100 100 100 99 100 100 100 99 99 100
5 1 2 0 0 0 0 0 0 0 2 4 0 5 0 5 45 92 95 64 5 5 3 60 13 95 89 98 97 85 87 100 99 100 93 100 100 100 100 100 98 99 100 100 100 60 36
4 5 0 0 11 0 0 0 0 0 0 6 5 39 0 5 33 12 30 4 2 2 0 5 5 70 67 79 100 100 97 100 100 100 100 100 100 100 100 100 100 100 100 100 100 100 100
5 3 11 0 37 0 0 0 0 0 5 51 42 5 0 10 52 23 6 5 4 4 0 4 4 3 5 45 24 13 96 7 100 100 98 100 100 100 100 100 100 100 100 100 100 100 100
0 1 5 0 2 6 0 1 1 0 0 15 1 85 1 6 8 8 28 33 19 0 0 0 1 5 5 3 5 5 2 3 9 79 76 94 100 100 100 100 100 100 100 100 100 54 100
5 5 6 5 3 0 1 0 3 0 0 0 2 94 94 32 78 13 5 31 16 7 1 0 0 4 11 33 5 62 8 5 5 5 6 18 56 25 100 100 74 99 86 100 100 100 100
5 5 5 5 0 0 0 3 2 0 0 0 23 80 91 84 10 100 67 75 10 47 3 5 5 5 5 28 61 66 95 100 100 96 100 100 94 16 5 72 100 36 100 100 69 99 100
5 5 80 6 4 2 0 1 0 0 1 3 4 61 96 100 97 91 100 100 97 5 26 2 4 5 5 15 5 16 50 97 96 86 46 86 97 100 82 12 12 74 56 20 17 99 100
5 14 100 16 0 0 0 0 5 3 0 4 6 100 96 18 100 93 100 100 82 97 47 18 3 10 49 6 5 19 31 40 17 15 37 12 21 50 100 98 60 100 24 97 100 52 100
5 19 100 11 0 3 5 5 4 5 5 5 4 6 77 7 89 100 100 100 100 97 5 19 3 4 5 5 44 78 54 36 50 5 5 55 33 5 70 96 97 48 10 70 97 72 98
66 5 40 5 5 5 5 5 4 5 5 5 37 5 5 12 55 98 100 100 100 100 96 10 5 5 5 11 30 36 22 86 72 84 22 6 78 65 98 100 96 100 76 100 83 48 59
5 5 5 5 5 5 5 4 5 5 5 6 85 19 5 5 5 54 89 100 100 100 100 100 100 56 15 5 70 40 44 34 53 86 100 62 92 80 100 100 82 100 98 100 100 100 100
5 5 5 5 98 26 5 0 5 37 5 7 68 12 5 5 5 7 54 100 100 100 100 100 100 100 33 46 52 90 10 10 10 56 81 99 100 100 100 100 82 99 8 24 91 100 98
5 8 5 5 81 14 5 1 26 6 32 90 80 99 100 66 57 5 5 100 100 100 100 100 100 100 89 78 100 87 90 18 5 99 8 8 56 98 100 100 100 95 99 82 98 97 97

GFSGBSN_prec_cloud_057.txt.gz
Cloud_Cover
0 6 58 18 100 78 16 100 100 100 95 98 97 32 10 1 4 5 60 100 100 100 100 89 2 3 12 4 38 96 89 100 100 90 89 14 3 100 100 100 100 100 100 100 100 100 100
0 30 58 73 9 37 31 0 4 94 100 100 34 94 19 0 1 6 54 75 74 100 65 2 5 15 69 34 100 100 29 100 100 100 100 34 0 92 100 100 100 100 100 100 100 100 100
0 5 6 100 40 42 40 80 81 95 78 100 100 88 0 14 0 0 5 72 100 100 98 35 1 7 100 100 100 92 84 100 100 100 100 99 5 0 100 100 100 100 100 100 100 100 100
0 5 6 100 100 57 0 2 100 100 100 100 97 81 0 2 0 3 10 82 66 1 0 95 2 41 100 95 100 100 98 100 100 100 100 100 76 2 86 100 100 100 100 100 100 100 100
0 5 17 100 18 2 0 0 93 99 100 100 80 5 0 5 0 4 0 0 12 1 7 17 29 99 90 85 100 100 100 100 100 100 100 100 83 66 4 100 100 100 100 100 100 62 100
1 5 6 12 4 30 2 0 1 100 100 100 97 53 6 0 0 0 0 1 5 4 3 72 99 96 99 100 43 100 92 100 100 100 100 100 100 93 10 99 100 100 100 100 100 44 100
0 5 5 5 5 2 0 0 0 25 100 100 100 100 60 0 4 0 0 0 2 4 9 36 26 89 94 96 88 10 100 100 100 100 100 100 98 99 5 28 100 100 100 100 100 100 100
2 5 10 5 5 2 29 73 9 2 0 97 100 100 77 0 0 0 4 13 88 64 33 41 11 50 30 100 100 99 100 99 100 100 100 100 74 38 89 4 86 100 100 100 100 99 50
5 3 2 14 29 4 78 86 100 20 0 3 100 100 93 0 0 0 2 13 88 53 78 36 98 40 10 79 100 100 94 100 100 100 100 100 98 28 94 14 6 100 100 100 100 88 27
12 5 0 3 37 2 16 3 100 17 0 0 100 100 44 0 4 2 18 0 20 99 71 62 100 100 90 100 100 100 100 100 100 100 100 83 62 6 7 14 4 24 100 100 100 100 78
0 5 0 4 55 89 0 0 6 10 0 0 90 100 13 5 0 4 99 12 28 100 100 100 100 95 92 91 89 90 100 100 100 100 100 100 97 96 39 15 90 45 69 100 100 100 100
5 5 4 9 81 0 0 0 3 8 5 0 27 100 2 0 32 67 30 91 50 44 100 100 100 100 100 100 100 100 100 100 100 100 100 100 97 64 57 95 60 70 31 54 100 100 100
5 0 0 6 11 6 0 0 0 0 0 0 32 69 22 0 0 11 81 5 15 60 80 100 100 100 98 100 100 100 100 100 100 100 100 100 100 97 100 100 99 99 94 74 100 98 100
1 0 0 0 4 0 0 0 0 0 0 0 0 0 16 0 0 0 41 52 28 54 91 100 100 100 100 100 100 98 100 92 99 87 77 82 100 100 99 100 91 25 61 30 8 46 79
4 2 1 0 0 2 0 0 0 0 0 0 38 2 0 0 0 8 83 18 7 74 70 96 96 100 100 100 100 100 100 82 68 6 51 99 100 100 100 100 100 94 91 85 82 25 23
5 5 5 4 0 0 0 0 0 2 0 0 2 9 0 0 0 7 12 30 16 4 33 86 100 92 99 100 100 97 94 94 25 5 5 98 99 100 100 99 98 100 97 94 92 82 58
5 5 5 1 0 0 0 0 0 0 0 0 0 5 0 0 11 15 73 47 0 7 19 79 83 100 98 100 100 98 94 90 97 100 70 99 85 100 100 100 100 98 94 29 71 90 72
5 5 5 4 0 0 0 0 0 0 0 4 1 30 0 0 93 59 22 5 5 5 0 5 5 78 86 83 68 100 100 81 40 100 100 94 67 98 100 90 100 100 100 100 100 100 92
5 5 5 0 8 0 0 0 0 5 11 54 25 0 3 1 47 81 5 1 3 5 0 3 3 5 5 92 37 10 9 22 56 35 98 95 100 100 100 100 100 100 100 100 100 100 100
5 5 2 0 8 2 0 0 0 1 1 1 4 18 1 25 4 31 34 65 4 5 0 0 0 0 5 5 5 12 79 99 83 100 96 99 80 90 100 99 100 97 96 100 100 100 100
5 5 4 0 0 0 0 0 0 2 0 0 0 45 83 45 8 2 5 83 90 48 5 1 0 0 5 5 3 4 3 8 9 51 100 100 100 100 100 100 100 100 100 100 100 100 100
5 5 5 0 3 0 0 0 0 64 0 0 7 14 11 5 43 60 6 100 60 67 41 5 2 2 43 92 5 5 5 9 68 6 5 50 100 90 100 94 85 98 100 100 100 100 100
5 5 2 2 1 0 0 0 0 100 1 0 1 3 50 6 59 84 100 77 99 6 92 3 5 5 5 7 70 51 22 71 6 40 76 57 24 6 5 5 5 11 5 37 72 97 100
5 5 5 5 0 0 0 0 0 2 0 2 2 5 5 5 6 100 97 100 100 70 72 5 3 28 62 10 5 5 6 67 34 47 94 6 5 6 74 5 18 6 37 5 21 5 82
5 5 5 3 5 0 0 0 0 69 5 5 3 2 19 41 3 5 52 98 74 79 100 15 4 5 9 8 12 5 5 12 8 6 87 91 15 5 6 31 55 100 74 5 34 33 45
5 5 5 5 0 5 4 0 0 5 5 5 5 3 5 12 5 5 5 45 100 90 99 10 8 5 5 5 72 40 6 5 5 83 6 68 100 58 100 83 42 100 14 8 5 75 100
5 5 5 2 5 10 5 0 8 55 5 5 8 13 5 5 5 5 5 5 92 100 96 100 99 49 20 10 20 5 5 27 7 14 20 89 96 89 100 100 100 100 37 89 100 100 100
6 5 5 5 5 5 5 0 43 7 5 5 16 92 10 77 33 4 5 5 10 100 100 100 100 100 100 100 41 5 5 12 45 20 35 27 51 48 95 97 92 100 31 100 100 100 97
7 13 5 13 5 5 5 5 15 17 5 6 24 70 98 99 5 5 5 5 47 81 100 100 100 100 100 100 100 99 85 5 5 12 63 61 43 9 60 100 96 78 98 25 97 100 100

GFSGBSN_prec_cloud_060.txt.gz
Cloud_Cover
1 28 26 100 91 83 87 4 100 25 35 82 89 77 50 5 9 0 2 10 51 95 100 100 99 39 2 1 14 23 67 80 100 100 100 92 0 7 12 100 100 100 100 100 100 100 100
0 3 24 94 97 63 75 15 100 63 63 90 98 93 5 4 5 0 5 21 59 30 100 100 98 13 2 73 4 86 29 64 100 100 100 98 9 0 0 92 100 100 100 100 100 100 100
0 0 4 69 7 39 11 40 98 3 87 64 100 41 0 3 0 0 2 1 3 7 48 5 5 4 2 10 3 100 98 100 100 100 100 100 90 0 0 29 100 100 100 100 100 100 100
0 0 1 0 0 0 26 4 1 99 96 5 100 59 0 0 0 6 0 0 2 5 11 21 32 1 27 14 54 100 100 100 100 100 100 100 100 2 0 2 100 100 100 100 100 100 100
0 0 1 75 7 1 50 20 0 28 98 91 63 100 92 0 0 78 51 0 0 4 5 77 63 80 41 88 100 86 100 100 100 100 100 100 100 49 1 6 100 100 100 100 100 100 100
3 0 0 1 0 48 99 100 99 4 0 99 100 100 100 1 0 7 21 41 0 2 5 97 70 57 76 100 100 100 100 91 100 100 100 100 100 83 19 13 87 100 100 100 100 100 100
5 6 0 2 30 69 2 100 100 100 4 39 100 94 100 25 0 4 5 32 0 2 5 5 85 94 100 100 92 100 81 100 100 100 100 100 96 100 5 24 38 100 100 100 100 100 100
11 0 0 0 0 13 44 100 85 80 27 1 75 100 63 18 9 9 57 100 97 2 11 70 82 100 100 100 99 61 99 100 100 100 100 100 88 100 96 26 9 100 100 100 100 100 100
5 10 0 0 1 1 0 58 76 100 31 2 0 100 98 21 1 5 5 96 100 73 46 79 73 50 98 100 88 40 4 100 100 100 100 100 100 32 33 69 4 91 100 100 100 100 100
5 1 4 0 14 3 0 0 14 79 17 0 0 53 100 35 0 0 7 100 93 100 9 94 100 98 100 100 100 100 100 100 100 100 100 100 100 100 50 100 32 56 100 100 100 100 100
5 0 1 0 49 0 0 0 0 32 27 0 36 64 93 48 0 0 0 3 6 83 56 100 99 82 100 100 100 100 100 100 100 100 100 100 100 96 19 100 96 63 100 100 100 100 100
5 0 11 8 32 1 2 0 1 1 3 1 33 88 3 0 0 0 0 0 5 10 100 100 100 100 93 100 100 100 100 100 100 100 100 100 100 100 60 100 84 41 8 100 100 100 99
9 0 0 5 5 4 0 0 0 0 1 4 4 9 37 0 0 0 1 3 6 45 93 100 100 99 92 85 100 100 100 100 100 100 100 100 100 100 67 12 79 50 16 92 100 100 98
5 0 0 9 2 5 0 0 0 0 26 2 3 0 0 0 0 0 6 7 43 73 69 100 100 100 100 100 100 100 100 100 99 100 100 92 100 88 15 8 15 62 86 31 63 56 100
5 0 0 15 3 5 5 3 0 0 0 1 0 0 0 0 0 0 10 10 5 5 5 10 100 93 100 100 100 100 100 100 100 100 100 100 100 98 100 94 30 28 91 22 8 5 50
5 0 3 5 5 5 5 2 0 0 0 97 2 2 0 0 12 25 1 24 6 1 5 3 69 100 80 89 95 47 86 99 37 98 100 100 100 100 100 100 99 80 69 86 69 70 5
4 0 5 5 51 5 5 0 0 0 0 83 4 4 3 0 40 19 9 44 1 0 1 5 76 98 97 89 82 95 77 98 5 6 11 30 50 100 100 100 100 98 56 23 41 8 5
0 0 1 5 66 5 5 0 0 0 0 7 3 30 0 3 76 62 12 5 2 1 4 5 56 69 97 10 99 44 58 12 87 85 28 5 37 100 100 100 81 100 91 99 100 14 5
5 0 6 5 51 4 1 0 0 0 2 2 98 5 3 46 36 6 1 0 0 0 2 3 5 63 98 62 64 25 5 9 84 96 95 66 69 68 100 96 99 100 100 100 89 26 8
5 5 3 5 28 5 0 0 0 0 0 2 100 12 4 28 10 52 5 5 4 2 0 0 0 5 5 9 84 89 74 16 42 100 100 100 100 89 61 99 100 100 100 100 100 70 100
5 5 3 5 6 5 0 0 0 0 0 0 69 12 38 41 16 90 6 62 24 5 4 0 0 3 5 5 5 22 8 5 8 6 12 43 86 100 100 100 100 100 100 100 100 100 100
5 5 16 6 5 0 0 0 0 0 0 0 4 30 4 5 4 5 5 78 66 23 19 5 0 5 5 5 4 0 0 1 5 13 5 6 6 11 5 13 38 28 96 100 100 100 100
5 19 5 5 5 0 0 0 0 0 0 0 96 4 8 5 34 67 17 98 100 97 61 5 5 5 17 15 5 5 5 5 24 34 18 5 5 5 44 100 40 5 5 65 100 100 100
12 5 5 4 0 1 0 5 0 0 0 0 98 2 5 5 6 82 76 90 100 99 73 40 4 14 22 80 12 5 5 5 5 5 5 6 5 8 22 42 20 5 5 5 54 100 100
5 5 5 0 5 5 5 5 5 1 0 0 0 0 5 5 4 3 3 13 96 100 100 7 5 11 56 87 91 47 5 7 5 5 24 5 5 24 5 34 5 5 5 4 5 8 73
100 48 5 5 5 5 5 5 6 1 5 1 29 0 4 5 5 1 5 5 79 91 100 60 8 10 92 51 88 34 100 92 80 31 44 100 100 56 97 57 25 91 5 5 5 63 83
100 100 22 5 7 5 3 2 5 5 5 5 5 5 5 5 2 1 3 5 60 75 100 100 89 17 7 89 100 83 5 41 71 62 65 88 100 86 87 100 30 14 5 43 97 100 34
100 100 99 40 47 20 5 3 6 14 5 5 5 20 46 78 45 2 5 5 5 44 82 100 100 90 89 50 87 86 6 8 21 5 5 69 95 82 95 100 71 11 5 35 50 74 98
100 100 89 6 5 38 5 4 5 14 5 5 57 100 100 95 32 5 4 2 9 26 21 66 100 100 100 96 72 61 10 5 5 8 5 44 55 67 79 59 80 36 78 23 100 100 100

GFSGBSN_prec_cloud_063.txt.gz
Cloud_Cover
6 5 6 18 15 10 10 1 2 71 100 99 86 42 4 98 0 0 0 0 5 4 52 100 100 100 100 91 21 45 100 52 93 100 100 100 100 52 0 0 72 84 100 100 100 100 100
5 8 5 5 0 59 80 1 2 100 100 99 38 51 0 100 11 0 0 0 0 0 25 43 95 88 98 97 50 67 80 94 96 100 100 100 100 100 8 1 5 91 100 100 100 100 100
81 5 6 5 0 30 100 100 63 11 100 100 31 83 0 28 1 4 5 0 0 0 0 0 7 74 42 0 4 0 100 54 100 100 100 100 100 100 82 33 7 10 100 100 100 100 100
91 20 27 5 5 66 86 100 100 99 32 100 63 100 88 0 0 4 25 0 0 11 1 99 3 1 3 5 2 21 100 55 5 100 100 100 100 100 100 10 4 30 86 100 100 100 100
58 7 31 5 5 19 21 100 100 100 100 31 100 100 100 29 0 4 34 0 0 0 5 38 5 5 4 33 5 100 100 99 56 100 100 100 100 100 100 73 3 98 14 100 100 100 100
100 9 9 8 5 17 8 100 100 100 100 57 99 100 100 100 0 5 7 3 0 4 20 28 79 12 49 78 95 100 100 100 100 100 100 100 100 32 100 57 26 1 0 100 100 100 100
89 5 8 76 5 0 0 75 81 100 100 100 83 100 100 100 3 5 29 87 3 76 86 94 37 30 73 100 100 100 37 100 100 100 100 100 34 67 40 99 1 0 0 100 100 100 100
84 5 27 23 5 3 0 0 8 100 100 63 0 100 100 100 5 3 5 82 77 91 100 66 78 20 13 92 83 89 5 45 92 100 100 100 38 18 48 100 5 0 0 100 100 100 100
100 15 91 60 6 0 0 2 28 100 100 8 3 100 100 100 3 0 2 60 100 71 100 85 67 54 65 100 100 70 68 100 100 100 100 100 100 72 55 100 15 4 0 100 100 100 100
97 6 97 90 33 2 0 4 3 100 100 48 32 100 100 93 0 0 0 5 6 5 22 98 58 50 100 65 98 73 100 100 100 100 100 100 100 100 70 100 77 6 3 100 100 100 100
76 5 40 98 15 0 0 4 2 11 64 0 2 100 100 79 1 0 2 2 5 31 62 100 100 100 100 78 64 100 100 100 100 100 100 100 92 57 6 100 100 8 5 58 100 100 100
25 5 20 95 8 2 1 5 2 0 9 1 18 54 20 15 21 0 1 2 5 14 72 96 100 100 100 99 100 100 100 100 100 100 100 100 95 36 58 98 79 100 93 7 100 100 100
16 6 37 92 27 2 0 13 2 0 0 0 4 3 0 0 0 0 27 1 5 31 74 90 87 91 96 100 100 100 100 100 100 100 100 100 100 100 100 86 58 96 100 80 86 100 100
77 8 47 84 84 5 0 4 3 4 0 0 1 0 0 0 0 0 69 4 7 10 96 78 100 97 100 100 100 100 100 100 99 100 100 100 100 40 24 22 63 100 85 32 22 100 100
5 7 39 74 100 5 4 3 5 0 0 0 0 3 0 0 30 94 65 10 3 5 5 27 71 73 100 87 100 99 100 100 100 100 100 98 100 98 18 5 10 30 95 45 5 5 100
5 9 27 77 100 5 1 4 5 0 0 0 0 2 0 0 23 90 21 20 7 3 5 4 56 5 70 100 80 100 100 100 100 100 100 100 95 100 100 23 27 25 74 62 6 5 5
5 27 36 90 100 5 4 2 5 2 0 0 0 4 0 0 80 29 5 21 1 1 4 5 5 44 40 23 93 97 100 100 100 100 100 100 96 100 100 100 85 89 76 81 84 6 5
45 48 23 94 100 33 5 0 5 0 0 1 0 36 2 1 61 78 11 5 2 2 0 5 44 70 65 68 5 78 100 100 98 62 63 56 22 100 100 100 99 97 89 82 86 27 5
5 92 15 100 62 100 25 0 5 1 0 1 0 0 0 50 8 11 2 0 0 0 0 5 5 78 75 34 99 24 24 64 99 89 41 44 51 87 95 96 99 100 100 95 62 32 5
91 37 25 97 83 88 98 1 5 3 0 0 0 1 1 2 5 5 5 5 4 2 0 0 5 5 83 38 9 5 39 21 80 100 100 69 89 81 100 78 12 82 99 99 53 91 99
100 5 12 100 65 12 28 5 5 4 0 0 2 15 6 16 12 5 5 5 5 5 5 1 4 5 11 47 5 5 5 5 26 93 96 98 51 55 100 38 19 71 56 57 75 100 24
77 80 6 100 8 64 59 2 2 2 1 4 2 2 4 5 5 5 5 5 7 50 6 5 0 5 5 5 5 5 5 5 5 56 34 86 100 98 100 100 91 100 100 24 100 100 100
95 93 6 88 92 94 40 5 1 0 4 0 0 0 5 5 5 5 7 6 20 5 61 5 5 5 5 8 5 5 5 5 5 5 5 5 5 5 57 89 100 96 100 95 100 99 100
100 84 28 94 94 100 8 5 5 0 0 0 0 0 3 0 5 5 5 5 7 60 46 43 5 5 5 8 66 5 5 5 5 5 9 6 7 8 5 5 5 5 16 38 100 71 100
59 74 38 66 25 5 5 5 5 0 3 0 0 0 5 3 5 1 5 5 21 100 98 98 92 5 69 81 84 92 5 5 5 5 10 19 28 46 49 35 5 5 4 5 21 61 15
99 68 27 6 5 5 5 5 5 0 1 5 0 0 1 5 5 0 3 5 5 40 93 36 99 99 93 100 100 76 43 43 5 5 40 100 100 82 86 100 67 15 5 5 5 3 4
100 81 58 34 6 5 12 5 4 0 0 1 4 5 5 5 4 2 0 0 4 36 45 94 92 100 84 100 100 99 44 5 17 57 64 96 100 80 100 97 70 5 6 5 5 5 5
100 86 100 80 81 93 32 99 50 5 0 5 5 10 5 12 5 5 5 5 6 5 89 76 100 97 100 90 99 100 7 10 25 11 11 7 57 99 97 100 44 28 7 5 5 24 5
99 99 100 96 100 79 34 20 83 4 1 5 5 5 52 71 20 6 2 0 2 5 6 81 88 100 100 100 50 76 8 5 5 8 5 42 4 35 20 54 37 30 5 55 26 24 44

GFSGBSN_prec_cloud_066.txt.gz
Cloud_Cover
8 7 22 40 100 100 100 100 100 1 50 13 9 100 0 94 39 0 5 0 0 0 2 2 97 100 100 57 96 17 1 10 67 96 100 100 100 100 100 67 3 14 38 76 100 100 100
5 5 5 13 100 100 100 100 100 100 12 25 85 94 9 43 77 2 5 8 2 30 2 0 2 74 42 53 4 1 71 97 44 100 87 100 100 100 95 100 26 4 48 98 100 100 100
24 5 10 96 100 100 100 100 98 99 100 8 99 62 98 0 0 0 5 91 7 99 74 0 9 0 46 96 15 5 68 100 91 100 62 100 100 100 62 100 100 66 6 100 100 100 100
100 97 5 100 61 100 100 100 100 81 35 98 9 100 100 100 0 0 5 90 8 54 77 14 7 0 3 24 19 5 100 100 96 70 100 100 100 100 100 99 98 21 64 67 91 100 100
100 100 100 100 64 100 100 44 68 100 95 100 73 100 93 100 18 0 6 74 68 23 14 5 48 5 5 9 1 4 69 100 52 27 100 100 100 100 100 100 99 21 5 10 70 100 100
97 100 96 100 58 100 86 47 15 100 92 72 99 61 100 100 86 4 5 44 76 5 5 67 84 32 53 50 38 34 71 57 100 61 96 100 100 100 100 67 40 6 6 5 100 96 100
100 99 97 87 30 98 39 83 6 56 100 67 100 33 100 100 100 8 5 63 70 21 34 65 93 78 79 69 76 99 100 100 100 100 100 100 100 50 98 83 99 93 5 4 65 100 100
100 100 100 51 68 57 24 65 2 12 100 100 100 75 100 100 96 19 5 5 71 68 89 19 97 50 100 100 100 100 100 67 100 100 100 100 100 85 100 100 71 100 32 2 0 5 100
100 100 100 7 32 100 29 81 5 3 70 100 39 100 100 100 11 1 4 5 9 25 93 96 94 66 99 100 95 86 6 100 100 100 100 100 100 73 72 100 49 100 100 4 1 4 52
100 100 100 57 33 100 22 100 5 6 70 55 28 100 100 100 12 4 5 5 5 5 61 100 97 100 100 96 95 92 64 30 100 100 100 100 100 100 45 13 38 100 100 59 2 3 30
96 100 100 66 8 77 57 100 5 21 5 14 10 100 100 55 4 3 4 5 5 32 59 93 95 100 95 42 94 99 22 39 100 100 100 100 100 76 60 66 94 87 100 18 5 17 5
100 100 100 51 84 100 92 100 5 15 5 0 26 75 84 35 19 3 24 5 6 24 5 96 88 88 100 100 100 100 95 100 100 100 100 100 100 98 99 80 99 89 100 47 5 89 82
34 100 100 14 100 98 80 100 5 17 5 4 10 1 0 0 3 2 49 4 8 32 43 39 45 70 100 100 100 100 100 100 100 100 100 100 100 40 96 42 86 89 98 76 87 75 71
65 100 100 59 100 83 90 100 22 5 7 5 0 0 0 0 16 73 100 50 29 23 95 79 100 100 99 100 100 100 100 100 100 100 100 100 100 99 42 59 17 100 33 77 16 46 5
100 100 100 100 100 77 81 100 100 36 6 5 0 0 0 0 86 100 61 5 4 5 5 24 80 54 100 72 99 100 100 100 100 100 100 100 100 100 92 18 18 94 89 93 84 6 5
100 100 100 100 100 100 27 100 100 92 5 5 0 2 0 0 89 97 5 6 3 5 5 5 5 31 34 87 100 100 100 77 100 100 100 100 93 100 100 100 77 83 33 31 27 33 5
100 100 100 100 100 100 27 96 100 97 16 5 5 2 0 0 98 65 4 5 5 5 4 5 5 69 19 18 24 100 98 55 79 100 87 70 82 92 93 100 92 82 87 6 26 5 35
100 100 100 100 100 99 60 84 100 82 5 5 5 32 0 40 70 90 14 0 0 1 1 5 36 92 95 5 83 16 100 100 99 94 58 36 8 100 96 90 15 5 34 15 95 45 21
100 100 100 100 100 68 100 80 100 47 6 7 0 0 0 83 4 13 1 1 0 0 4 5 29 83 100 81 34 5 100 77 100 100 100 100 93 94 100 83 98 100 98 87 81 53 34
100 100 100 100 100 94 99 83 79 71 22 13 3 1 1 0 5 1 2 2 1 2 0 2 4 50 90 100 96 22 6 99 100 100 100 100 100 100 100 100 100 100 100 100 100 98 100
100 100 100 100 70 98 25 72 46 100 55 27 9 5 39 4 4 5 5 5 4 5 4 1 3 5 38 76 43 99 73 69 96 57 46 23 36 75 62 46 58 23 22 92 100 92 81
100 100 100 100 97 100 52 32 100 100 37 15 5 3 4 5 5 5 5 5 16 5 5 5 2 5 5 60 48 5 99 14 84 95 100 100 97 99 54 82 90 82 31 59 6 99 62
100 100 100 100 100 100 100 18 91 19 5 5 3 0 4 5 5 5 6 14 59 5 58 20 5 5 5 16 5 5 5 26 100 100 74 82 75 23 50 59 91 100 96 73 99 100 94
100 100 100 100 100 94 74 99 49 17 10 10 0 1 0 0 1 5 5 5 11 79 6 72 66 5 60 12 68 40 5 34 5 5 22 8 6 58 78 5 24 100 97 58 39 99 35
100 100 100 100 100 26 30 10 20 60 32 5 4 0 4 4 5 0 3 5 13 9 69 100 92 93 95 94 86 92 24 47 41 6 5 5 5 5 6 45 5 6 5 5 8 58 54
100 100 100 100 100 39 80 39 13 5 5 0 1 3 3 3 4 0 0 0 4 4 36 100 94 96 98 100 100 63 31 22 5 5 5 11 9 92 94 84 77 100 5 5 5 7 14
100 100 100 100 100 88 87 71 10 5 2 31 5 5 1 5 4 5 4 4 1 5 5 15 96 100 94 100 99 92 86 55 20 75 7 99 100 86 100 100 100 27 16 53 26 50 11
100 100 100 100 100 85 100 77 73 6 5 2 11 5 5 5 5 5 5 5 5 5 5 5 89 100 100 95 92 98 94 35 8 5 9 85 100 96 98 100 100 6 5 5 5 19 5
100 100 100 100 100 81 9 96 10 5 5 4 5 40 96 5 5 5 2 0 0 5 5 5 58 100 100 100 72 100 100 45 5 5 5 10 100 100 100 100 90 5 36 16 32 5 24

GFSGBSN_prec_cloud_069.txt.gz
Cloud_Cover
13 67 18 5 100 100 92 100 100 100 100 26 42 52 68 0 96 5 2 0 12 7 0 0 5 94 97 100 93 18 18 0 0 40 100 100 100 100 84 17 75 21 95 27 100 100 100
51 68 5 10 100 100 100 100 100 100 39 100 4 14 3 9 0 0 4 4 3 1 0 0 0 14 97 96 100 100 6 11 0 15 92 100 100 100 100 90 100 6 19 27 99 100 100
90 100 21 95 98 100 100 72 100 100 100 96 100 0 71 100 1 0 4 5 2 0 1 5 5 1 2 88 99 66 5 5 4 94 100 100 100 100 100 100 100 96 1 14 97 100 100
58 51 44 48 100 100 99 69 7 100 100 100 100 93 100 100 100 2 4 5 3 0 0 45 5 0 0 22 96 69 2 14 11 96 70 100 100 100 95 100 72 100 14 99 100 100 87
100 15 44 5 100 100 100 8 85 86 100 100 100 100 65 100 100 17 3 5 4 1 0 5 5 3 6 4 95 92 1 5 96 100 93 48 100 100 100 100 92 86 46 37 100 98 88
100 80 68 20 100 100 100 37 6 45 100 100 100 100 31 100 100 18 1 5 5 5 5 2 5 5 5 21 5 7 4 97 95 100 82 100 100 100 100 89 42 30 80 43 65 100 100
100 99 100 14 100 100 100 30 86 33 100 100 100 100 100 100 100 22 2 5 5 4 25 32 37 83 100 92 5 55 48 88 100 100 100 100 100 100 100 98 68 100 100 100 42 22 100
100 100 100 16 100 100 100 61 68 24 100 100 100 100 100 100 98 19 0 4 5 5 30 22 96 83 100 100 100 85 70 100 100 100 99 100 100 51 23 100 51 90 94 99 99 5 100
100 100 100 88 100 100 100 77 64 5 100 100 100 100 100 100 7 0 0 5 5 5 75 100 100 90 81 100 87 100 100 100 96 100 54 99 100 97 100 93 30 100 100 100 89 4 94
100 100 100 100 100 100 100 97 6 11 100 100 100 100 95 66 21 1 2 3 5 5 52 100 100 97 83 98 80 94 100 100 100 100 100 100 96 87 88 25 90 100 100 100 100 5 20
100 100 100 100 100 100 100 100 5 8 87 95 100 100 100 4 0 3 3 5 5 5 48 72 73 64 91 84 84 100 83 100 100 100 100 100 100 48 100 61 100 100 100 100 100 7 4
100 100 100 92 100 100 100 100 15 20 100 8 100 100 98 33 4 1 5 5 5 5 56 72 98 100 100 100 100 100 28 67 100 100 100 100 100 96 98 57 100 100 92 14 36 52 67
100 100 99 100 100 100 100 100 38 100 100 37 83 5 5 0 3 5 61 5 5 7 36 70 100 100 100 100 100 100 92 100 100 100 100 100 100 85 98 86 100 88 51 95 100 99 36
100 100 100 100 100 100 100 100 56 100 100 38 5 13 2 0 86 100 100 56 28 33 92 80 98 100 100 100 100 100 100 100 100 100 100 100 100 96 95 79 89 100 46 5 25 56 5
100 100 100 100 100 100 100 100 83 100 17 100 5 5 4 0 91 100 71 5 5 5 5 78 90 81 85 97 100 97 100 100 100 100 100 99 100 98 93 99 16 7 59 88 66 92 41
100 100 100 100 100 100 100 100 100 100 99 88 5 4 8 4 100 99 40 4 4 5 5 5 14 38 85 94 74 77 100 90 98 97 98 86 95 86 100 23 13 26 5 31 5 51 5
100 100 100 100 100 100 100 100 100 100 96 100 21 5 43 88 100 76 4 15 5 5 5 5 6 76 41 38 16 7 100 100 100 100 66 76 77 100 80 100 88 43 49 41 80 20 5
100 100 100 100 100 100 100 100 100 100 100 100 5 50 16 100 80 99 26 5 5 5 5 5 23 96 86 5 51 80 7 100 100 100 100 100 100 100 100 100 60 100 94 94 97 60 41
100 100 100 100 100 100 100 100 100 100 100 35 34 5 42 100 3 11 5 5 5 5 5 5 51 97 98 94 10 93 76 72 100 100 100 100 100 100 100 96 96 99 89 58 26 21 53
100 100 100 100 100 100 100 100 100 100 98 59 40 5 5 4 4 5 5 5 5 5 0 5 17 70 99 100 80 5 8 100 100 100 94 100 100 100 100 68 27 98 100 53 79 99 96
100 100 100 100 100 100 100 100 100 100 93 100 66 5 22 4 4 5 5 5 5 5 5 1 0 5 77 67 16 86 5 5 67 100 100 100 100 99 98 100 100 100 100 91 100 99 77
100 100 100 100 100 100 100 100 100 100 100 100 5 5 5 5 4 5 5 12 5 5 5 5 4 5 5 29 8 42 100 71 58 49 98 100 100 98 100 100 100 100 85 96 10 82 100
100 100 100 100 100 100 100 100 100 100 100 99 5 11 6 5 5 4 5 5 65 5 18 8 5 5 5 37 31 5 22 84 99 38 77 95 99 65 12 73 92 99 100 91 58 100 5
100 100 100 100 100 100 100 100 96 100 100 100 28 5 5 0 0 5 5 5 6 92 73 94 83 71 43 12 69 27 5 8 33 76 61 94 45 91 82 53 74 100 99 35 92 100 76
100 100 100 100 100 100 100 100 100 100 100 100 46 24 6 4 4 0 3 5 5 9 92 88 100 86 67 81 100 100 90 57 5 7 86 41 51 8 5 6 9 26 6 5 11 8 5
100 100 100 100 100 100 100 100 100 100 100 81 77 5 4 4 5 0 0 0 4 5 5 74 95 100 96 99 95 97 38 7 5 6 5 5 5 57 18 68 34 37 5 5 5 5 5
100 100 100 100 100 100 100 100 100 100 100 100 11 5 4 5 5 5 5 4 1 2 4 14 41 88 100 100 100 96 99 27 5 20 7 64 100 99 98 100 100 96 24 47 35 56 24
100 100 100 100 100 100 100 100 100 100 100 100 10 5 5 5 7 5 3 5 5 5 5 3 58 90 100 99 98 65 52 5 7 5 7 18 56 63 83 96 100 100 20 25 56 87 87
100 100 100 100 100 100 100 100 100 100 100 37 12 23 5 5 85 4 5 4 0 5 5 5 48 99 100 100 99 44 91 5 14 93 22 5 8 85 100 100 100 100 39 28 25 48 58

GFSGBSN_prec_cloud_072.txt.gz
Cloud_Cover
39 38 49 6 11 42 100 100 96 45 95 100 100 39 1 60 31 2 0 0 0 0 0 0 0 2 100 100 100 100 97 94 2 5 86 100 100 97 100 99 82 100 96 100 100 24 100
99 86 57 99 38 100 100 100 100 100 37 100 100 100 0 22 84 0 7 0 15 5 0 0 0 0 83 93 100 100 33 66 5 6 84 100 100 84 100 100 100 81 100 100 98 74 100
100 95 88 80 100 95 100 100 100 94 99 98 100 100 74 0 86 61 0 0 3 0 0 0 0 0 0 100 74 88 5 50 5 14 91 88 100 100 100 100 100 100 100 100 100 98 100
100 100 100 100 100 100 100 100 100 92 99 100 100 100 100 90 64 18 0 0 0 0 0 0 1 0 0 14 100 100 60 32 5 3 35 100 100 100 100 98 100 100 100 100 100 16 91
100 100 82 100 98 100 100 100 100 10 88 100 100 100 100 84 83 71 1 0 0 0 1 2 4 6 5 0 9 98 88 9 16 25 76 100 100 100 100 100 100 100 97 58 95 36 54
100 82 99 91 100 100 100 100 100 5 53 100 100 100 100 100 100 95 9 0 0 0 3 2 1 39 39 88 12 5 13 3 6 77 96 92 100 100 100 94 31 45 63 19 95 40 93
100 100 80 100 100 100 100 100 100 5 5 100 100 100 100 100 100 96 1 0 2 4 5 55 98 55 100 88 12 33 6 0 88 100 100 100 100 100 100 100 99 100 99 100 100 92 60
100 100 100 100 100 100 100 100 100 6 25 100 100 99 100 100 100 76 0 0 4 5 10 98 99 79 91 96 74 70 4 45 100 100 100 100 100 100 100 100 100 98 100 100 100 59 74
100 100 100 100 97 75 100 100 100 16 52 93 100 100 100 100 78 11 0 0 5 5 9 76 82 92 100 100 84 100 93 100 100 100 88 96 100 100 99 100 100 100 100 100 100 100 86
100 100 100 51 100 44 100 100 100 61 82 100 100 100 100 100 35 4 5 0 5 5 27 75 100 86 79 100 100 100 100 97 53 100 100 87 100 100 100 100 100 92 100 100 100 100 11
100 100 100 100 100 64 100 100 100 98 100 100 98 100 100 16 0 4 3 5 5 5 78 50 60 19 72 83 100 100 100 91 100 100 21 98 100 100 89 100 100 74 100 100 100 100 65
100 100 100 100 100 100 99 100 100 100 100 15 75 100 100 20 0 5 5 5 5 23 67 83 90 100 100 72 81 81 100 83 75 84 100 100 96 96 99 97 94 100 100 100 100 79 96
100 100 100 100 100 100 100 100 100 100 100 21 87 12 21 5 4 6 68 5 56 40 38 57 80 100 92 100 100 84 99 99 100 100 100 100 98 44 56 88 100 100 100 94 98 83 91
100 100 100 100 100 100 100 100 100 100 100 52 95 27 5 5 84 100 95 25 36 26 73 95 100 95 96 98 100 100 100 100 100 99 100 82 100 88 65 70 89 55 100 89 88 100 97
100 100 100 100 100 100 100 100 69 100 100 74 97 5 5 2 91 100 61 5 6 29 44 72 97 98 100 96 90 100 100 100 98 81 84 100 99 97 100 94 82 100 100 100 100 100 100
100 100 100 100 100 100 100 100 100 100 100 100 99 56 56 8 100 100 55 7 5 5 5 5 10 50 100 100 95 97 100 100 100 75 76 89 96 100 36 94 68 98 90 75 98 100 99
100 100 100 100 100 100 100 100 100 100 100 92 74 99 61 99 95 81 56 45 5 5 5 5 7 19 82 53 27 90 100 100 94 96 100 99 100 100 90 44 98 96 68 65 88 57 88
100 100 100 100 100 100 100 99 100 100 100 35 100 80 72 100 83 100 36 5 5 5 5 5 73 64 38 58 5 100 100 84 100 99 97 25 92 87 68 73 73 84 68 33 85 15 5
100 100 100 100 100 100 100 100 100 100 96 57 100 48 95 100 78 8 5 5 4 4 5 5 57 68 26 33 76 5 98 100 100 100 95 53 25 91 100 60 96 98 46 6 7 9 24
100 100 100 100 100 100 100 100 100 100 100 96 100 9 15 71 5 5 5 5 5 3 1 5 23 48 34 31 5 5 5 52 100 100 100 100 100 100 100 100 100 100 85 73 83 87 97
100 100 100 100 100 100 100 100 100 100 100 100 100 30 45 39 5 5 5 5 5 5 3 0 5 5 5 76 40 30 5 10 50 98 100 100 100 100 100 100 100 90 73 96 100 100 73
100 100 100 100 100 100 100 100 100 100 100 100 100 45 100 5 5 5 5 5 5 5 5 5 3 5 47 44 66 5 5 5 5 96 100 100 100 100 100 100 100 100 100 100 100 80 100
100 100 100 100 100 100 100 100 100 100 100 100 100 100 100 14 5 5 5 5 37 5 6 5 5 5 5 5 7 50 7 5 5 32 78 100 99 100 100 99 99 99 100 100 100 64 5
100 100 100 100 100 100 100 100 100 100 100 100 100 100 100 34 4 5 5 5 5 73 55 38 36 5 10 5 68 60 6 5 52 59 86 71 100 99 90 89 54 94 77 5 5 5 6
100 100 100 100 100 100 100 100 100 100 100 100 100 100 64 32 4 5 5 5 5 5 42 100 81 63 5 94 100 99 83 76 16 12 32 14 51 32 65 84 73 100 62 5 9 20 51
100 100 100 100 100 100 100 100 100 100 100 100 100 100 93 6 5 5 0 0 4 5 5 30 86 100 61 94 100 88 99 45 5 5 5 7 16 59 20 49 32 100 20 5 5 5 42
100 100 100 100 100 100 100 100 100 100 100 100 100 100 54 14 13 5 0 3 5 1 0 3 29 81 97 100 100 50 66 5 5 5 24 63 96 96 100 98 100 14 8 11 5 27 98
100 100 100 100 100 100 100 100 100 100 100 100 96 15 6 56 29 5 5 5 6 5 1 1 17 57 100 98 99 89 33 5 5 5 5 26 68 67 87 100 67 23 27 14 18 77 80
100 100 100 100 100 100 100 100 100 100 100 100 84 26 44 49 25 5 1 5 32 4 4 5 43 100 100 99 100 40 7 5 5 85 5 17 20 11 51 6 26 69 79 56 70 48 98

GFSGBSN_prec_cloud_075.txt.gz
Cloud_Cover
88 100 91 90 70 100 100 100 100 100 100 5 13 100 99 3 87 98 48 4 0 15 3 0 0 0 9 65 71 100 100 100 97 26 97 100 100 39 100 100 100 100 100 100 100 100 18
100 100 100 100 58 48 65 100 100 100 83 44 34 88 98 70 9 100 42 18 0 1 0 0 0 0 3 53 46 100 100 95 100 3 88 99 100 90 16 100 100 53 100 100 100 96 100
100 100 91 100 80 9 37 100 100 96 79 61 31 95 70 100 1 100 87 13 0 0 0 3 4 0 19 38 81 97 100 98 70 66 100 92 100 100 99 100 94 100 100 95 100 99 100
100 100 100 100 59 97 88 90 100 100 59 82 98 6 93 100 100 86 94 1 0 0 1 5 5 26 79 0 56 100 95 95 15 28 99 100 100 100 100 100 100 100 100 100 100 100 100
70 100 100 100 79 100 100 90 100 100 99 100 15 5 84 100 100 100 68 8 0 0 3 5 48 32 87 4 86 87 94 38 90 41 8 100 100 100 95 100 100 100 100 100 100 100 88
100 100 100 100 84 100 100 98 100 100 100 100 30 5 25 100 97 100 19 1 0 2 7 27 18 77 69 74 69 100 100 39 74 83 47 97 100 100 100 100 100 100 35 100 100 94 94
100 100 100 100 100 100 100 100 100 100 100 100 93 71 64 100 100 100 19 0 4 43 5 55 62 59 46 20 10 97 100 55 97 81 59 100 100 100 93 96 100 100 100 100 100 100 100
100 100 100 100 100 100 88 100 100 100 100 100 95 5 44 100 100 93 12 2 5 2 52 50 92 66 67 69 74 94 72 52 60 100 44 100 100 100 100 100 100 99 100 100 100 100 100
100 100 100 100 100 100 94 100 100 100 100 100 97 100 72 100 96 35 0 1 5 5 46 92 57 100 31 100 99 44 18 47 8 95 84 100 98 100 100 100 100 98 100 100 100 100 100
100 100 100 100 100 99 100 100 100 100 100 100 85 44 96 99 46 15 4 0 5 5 73 69 55 39 85 100 90 42 65 61 93 71 90 100 100 100 100 100 100 98 100 100 100 100 100
100 100 100 100 100 100 100 100 100 100 100 100 99 62 90 12 44 34 11 5 5 8 93 53 70 7 59 99 96 100 98 100 100 100 93 47 97 100 100 100 100 100 94 100 100 100 98
100 100 100 100 100 100 100 100 100 100 100 100 100 92 73 22 21 4 5 5 6 80 59 72 83 97 56 78 85 100 100 100 100 92 93 99 88 100 100 98 91 100 100 100 100 100 70
100 100 100 100 100 100 100 100 100 100 100 100 100 95 96 13 98 10 20 47 94 100 18 62 80 97 25 34 11 98 100 100 35 98 78 90 94 100 100 89 100 100 100 100 100 91 66
100 100 100 100 100 100 100 100 100 100 100 100 100 68 20 58 8 99 22 75 98 35 32 8 89 53 52 96 18 92 55 98 78 60 84 60 100 99 100 76 100 100 100 100 100 100 86
100 100 100 100 100 100 100 100 100 100 100 100 100 96 99 38 43 100 78 100 67 53 58 31 87 100 94 49 75 90 92 100 100 100 99 94 98 95 85 100 99 99 75 49 38 76 100
100 100 100 100 100 100 100 100 100 100 100 100 100 100 100 59 99 84 86 40 16 5 5 25 100 90 100 95 63 98 77 100 96 100 100 91 95 99 79 92 98 77 71 100 100 91 100
100 100 100 100 100 100 100 100 100 100 100 100 100 100 98 100 93 92 99 74 13 5 5 58 91 100 100 100 96 99 100 83 100 98 100 90 74 94 99 56 98 18 93 82 100 78 100
100 100 100 100 100 100 100 100 100 100 100 100 100 100 99 100 90 100 79 5 6 5 5 5 26 75 100 85 100 96 99 95 44 76 95 68 95 90 83 53 25 92 100 100 100 100 100
100 100 100 100 100 100 100 100 100 100 100 100 100 100 100 100 98 56 5 5 5 5 5 5 5 12 72 80 73 83 61 91 100 100 99 100 100 100 100 70 27 50 57 93 100 90 98
100 100 100 100 100 100 100 100 100 100 100 100 100 100 98 100 46 7 6 5 5 1 5 5 11 5 18 17 23 21 20 100 100 100 100 81 56 94 100 98 63 28 54 88 92 68 96
100 100 100 100 100 100 100 100 100 100 100 100 100 100 89 92 6 5 5 15 50 5 2 5 9 15 54 79 59 72 12 5 66 100 100 100 88 98 59 30 26 51 39 59 100 100 88
100 100 100 100 100 100 100 100 100 100 100 100 100 100 100 67 5 24 5 5 80 7 5 5 13 5 5 97 75 95 15 52 41 53 100 100 100 100 100 100 100 100 100 100 100 100 100
100 100 100 100 100 100 100 100 100 100 100 100 100 100 100 93 42 14 5 48 58 5 6 5 5 5 42 7 5 5 5 5 36 86 50 73 99 100 100 100 100 100 96 79 65 73 32
100 100 100 100 100 100 100 100 100 100 100 100 100 100 100 100 80 10 5 5 5 5 77 5 10 34 22 5 6 22 6 5 5 5 75 100 100 99 89 98 82 97 100 100 100 100 100
100 100 100 100 100 100 100 100 100 100 100 100 100 100 100 100 59 27 5 5 5 5 47 78 48 6 5 5 72 97 80 40 8 5 34 33 100 100 100 91 34 34 96 62 27 12 99
100 100 100 100 100 100 100 100 100 100 100 100 100 100 100 100 34 5 4 3 5 6 6 13 19 63 5 89 59 93 94 94 76 13 5 29 82 81 95 98 26 32 99 18 5 2 14
100 100 100 100 100 100 100 100 100 100 100 100 100 100 100 100 100 10 5 5 0 2 5 5 6 40 56 68 68 77 100 48 71 82 65 82 81 69 86 100 72 33 29 51 32 37 85
100 100 100 100 100 100 100 100 100 100 100 100 100 100 100 100 99 8 5 5 0 0 4 5 5 36 92 100 100 77 87 58 20 69 88 87 97 100 99 98 78 5 4 19 65 8 43
100 100 100 100 100 100 100 100 100 100 100 100 100 100 100 100 93 13 5 5 5 5 3 100 44 98 100 100 81 20 90 96 42 100 4 17 92 95 92 94 58 10 6 7 6 5 15

GFSGBSN_prec_cloud_078.txt.gz
Cloud_Cover
100 100 100 100 100 89 82 7 100 100 57 50 39 5 87 98 89 17 84 42 0 0 10 0 0 0 0 53 69 52 100 100 100 100 100 61 61 100 100 100 100 100 100 100 100 100 95
100 100 100 100 100 100 100 100 74 100 41 100 26 6 53 53 100 9 36 65 5 0 0 0 0 0 0 72 0 100 100 100 100 98 97 61 99 100 100 100 100 100 100 100 100 100 100
100 100 100 100 100 100 100 100 98 100 100 100 7 14 15 100 100 100 25 70 0 0 0 0 5 0 59 10 0 100 100 100 100 100 100 99 100 100 100 100 100 100 100 100 100 100 99
97 100 100 100 100 100 100 100 100 100 100 100 96 56 13 59 100 50 94 13 1 1 0 0 2 2 98 1 0 98 100 100 89 100 84 100 100 100 45 100 100 100 100 100 100 100 94
100 100 100 100 100 100 100 100 100 100 100 100 100 64 97 34 100 28 94 2 5 0 0 3 2 77 92 3 10 93 100 100 100 66 84 100 100 100 100 84 100 100 100 100 100 100 70
100 100 100 100 100 100 100 100 100 100 100 100 100 100 98 32 82 39 17 0 0 2 1 36 36 58 85 43 2 100 100 100 100 100 77 100 100 100 100 92 94 81 72 100 100 93 100
100 100 100 100 100 100 100 100 100 100 100 100 100 98 77 43 57 100 5 0 3 6 5 14 93 91 100 16 0 100 95 89 99 100 100 93 100 100 100 99 97 100 100 100 100 99 100
100 100 100 100 100 100 100 100 100 100 100 100 100 82 100 100 73 44 5 2 3 4 77 12 14 91 20 44 77 100 100 59 24 86 64 100 100 100 100 99 100 100 100 100 100 100 100
100 100 100 100 100 100 100 100 100 100 100 100 100 100 100 100 74 5 5 2 2 5 34 70 5 34 15 7 57 76 61 57 100 88 74 100 100 100 100 100 97 99 100 100 100 100 100
100 100 100 100 100 100 100 100 100 100 100 100 100 100 100 100 37 7 5 0 2 5 53 49 86 38 25 52 66 15 5 52 43 100 100 100 100 100 100 98 100 100 76 100 100 100 100
100 100 100 100 100 100 100 100 100 100 100 100 100 100 100 35 72 87 11 0 3 7 95 90 85 5 9 81 57 98 100 7 53 98 74 100 100 100 100 100 100 100 91 100 100 100 100
100 100 100 100 100 100 100 100 100 100 100 100 100 100 100 100 25 47 5 1 7 98 19 76 58 70 64 96 100 88 100 100 61 50 68 100 100 100 100 100 91 100 100 100 100 100 99
100 100 100 100 100 100 100 100 100 100 100 100 100 100 100 100 66 7 5 16 91 100 28 52 92 72 20 10 100 100 100 98 99 100 100 100 100 100 100 96 74 40 100 100 100 100 51
100 100 100 100 100 100 100 100 100 100 100 100 100 100 100 100 7 7 5 93 97 75 50 40 15 15 66 9 88 100 100 100 14 46 8 100 100 100 77 99 77 100 100 98 48 99 5
100 100 100 100 100 100 100 100 100 100 100 100 100 100 99 54 58 75 93 92 95 4 38 62 18 67 20 39 66 100 78 98 5 6 47 26 83 95 66 84 86 97 56 10 17 8 3
100 100 100 100 100 100 100 100 100 100 100 100 100 100 100 95 100 89 99 52 50 5 5 57 100 98 96 26 49 100 77 100 100 75 5 5 93 83 80 88 68 98 100 100 100 100 100
100 100 100 100 100 100 100 100 100 100 100 100 100 100 100 98 100 100 91 52 45 4 5 91 100 100 100 87 27 89 75 84 43 42 91 53 5 83 84 68 88 100 100 100 83 26 100
100 100 100 100 100 100 100 100 100 100 100 100 100 100 100 100 98 100 72 71 20 5 5 5 42 97 96 97 91 95 67 100 100 100 46 77 97 10 72 53 97 100 100 100 98 94 100
100 100 100 100 100 100 100 100 100 100 100 100 100 100 100 100 78 68 6 100 6 5 5 11 8 41 16 91 96 91 100 31 5 38 91 89 68 85 85 98 97 100 99 97 91 99 98
100 100 100 100 100 100 100 100 100 100 100 100 100 100 100 100 84 29 58 88 5 3 5 5 32 5 76 76 64 83 100 100 99 67 100 78 83 99 87 88 70 58 62 70 57 77 100
100 100 100 100 100 100 100 100 100 100 100 100 100 100 100 95 88 50 99 81 17 4 3 5 5 7 97 98 69 82 26 43 92 93 83 68 94 58 96 100 100 99 62 100 100 100 100
100 100 100 100 100 100 100 100 100 100 100 100 100 100 100 66 75 100 100 24 14 5 4 3 8 5 5 86 40 90 9 70 20 5 83 89 93 91 98 94 87 98 8 89 69 100 100
100 100 100 100 100 100 100 100 100 100 100 100 100 100 100 94 99 100 100 47 12 21 5 13 5 5 5 5 5 92 94 82 78 67 20 24 97 93 93 59 8 6 13 85 52 58 35
100 100 100 100 100 100 100 100 100 100 100 100 100 100 100 100 100 100 100 79 13 5 13 5 5 5 6 5 5 5 5 21 44 5 41 88 59 92 100 100 80 99 99 66 96 65 98
100 100 100 100 100 100 100 100 100 100 100 100 100 100 100 100 100 100 100 88 23 5 5 96 5 2 5 5 8 11 5 5 5 5 33 100 99 60 62 100 100 100 100 100 100 88 54
100 100 100 100 100 100 100 100 100 100 100 100 100 100 100 100 100 100 100 100 26 5 6 5 5 5 5 5 22 24 5 24 37 5 5 5 79 92 96 97 99 75 100 97 56 90 100
100 100 100 100 100 100 100 100 100 100 100 100 100 100 100 100 100 100 100 97 12 5 7 5 5 20 5 56 43 7 65 77 40 5 5 8 67 9 5 96 5 7 91 5 5 39 76
100 100 100 100 100 100 100 100 100 100 100 100 100 100 100 100 100 100 100 88 5 5 4 3 12 31 48 5 31 5 32 59 26 24 18 5 28 13 5 23 53 16 31 26 35 41 100
100 100 100 100 100 100 100 100 100 100 100 100 100 100 100 100 100 74 86 36 60 5 5 5 20 40 25 23 32 61 5 5 5 84 5 5 74 72 61 12 5 5 79 96 14 5 7

GFSGBSN_prec_cloud_081.txt.gz
Cloud_Cover
100 100 100 100 100 100 100 100 100 100 94 100 100 53 98 15 14 100 71 35 6 4 0 0 0 0 0 4 5 0 15 97 5 97 14 99 39 73 100 24 100 100 100 100 100 100 99
100 100 100 100 100 100 100 100 100 98 100 100 100 50 87 40 91 100 100 20 51 8 0 0 0 0 0 12 0 3 98 100 97 83 69 99 98 73 100 100 96 100 100 100 100 100 85
100 100 100 100 100 100 100 100 100 100 100 100 100 58 99 57 99 100 79 32 41 0 0 0 0 0 13 3 0 80 99 100 100 78 90 89 98 99 97 17 95 100 100 100 100 74 100
100 100 100 100 100 99 100 100 100 100 100 100 100 59 95 95 100 100 31 100 5 2 1 0 2 5 49 5 2 88 100 100 100 100 97 96 43 94 100 84 100 100 100 100 100 100 100
100 98 100 100 100 100 100 100 100 100 100 100 100 100 100 87 100 72 97 11 5 5 0 4 4 13 45 22 4 46 100 56 100 100 100 94 99 100 100 100 100 100 100 100 100 100 100
100 100 100 100 93 100 100 100 100 100 100 100 97 100 100 60 100 100 100 12 5 0 0 5 19 75 8 26 2 5 89 100 100 100 100 100 98 100 100 90 100 100 100 100 100 100 100
100 100 100 100 100 100 100 100 100 100 100 100 100 100 100 91 100 100 100 46 4 4 5 6 28 98 11 5 2 46 97 93 97 33 100 100 100 100 100 96 100 100 100 100 100 100 100
13 100 100 100 100 100 100 100 100 100 100 100 100 100 100 96 100 100 100 59 4 0 9 7 33 5 5 0 5 5 61 100 99 98 100 100 100 97 100 100 100 100 100 100 100 100 100
0 0 95 100 100 100 100 100 100 100 100 100 100 100 100 100 100 100 100 30 3 1 4 44 5 5 5 5 5 1 5 30 15 97 100 100 100 100 96 84 100 100 100 100 100 100 100
4 0 0 88 100 100 100 100 100 100 100 100 100 100 100 100 100 98 96 5 0 5 31 42 6 37 6 5 26 4 5 30 5 47 100 100 100 100 100 100 77 100 100 100 100 100 100
5 0 0 0 100 100 100 100 100 100 100 100 100 100 100 100 100 100 88 5 5 7 76 40 4 4 6 5 49 92 17 5 37 5 100 100 100 100 100 100 92 100 100 100 100 100 100
1 5 0 0 74 100 100 100 100 100 100 100 100 100 100 100 100 100 100 5 5 62 27 78 48 24 96 90 90 98 99 46 34 40 100 100 100 100 100 77 72 75 81 100 100 100 100
3 0 0 0 11 100 100 100 100 100 100 100 100 100 100 100 100 100 100 5 76 82 37 58 16 60 34 44 100 42 81 54 73 99 100 100 100 100 100 100 100 99 66 100 100 100 100
1 30 6 0 5 100 100 100 100 100 100 100 100 100 100 100 100 100 99 78 58 58 12 99 5 6 74 92 75 41 100 93 93 99 100 100 100 100 86 86 71 73 99 99 100 96 97
76 100 4 5 85 100 100 100 100 100 100 100 100 100 100 100 100 100 92 70 46 5 5 5 8 56 90 59 38 100 95 56 86 100 100 100 100 90 100 100 81 100 90 13 100 100 100
100 100 81 92 100 100 100 100 100 100 100 100 100 100 100 100 100 100 100 35 15 5 5 18 88 69 100 9 42 82 100 5 12 99 81 100 100 100 60 31 34 50 32 86 79 100 100
100 90 100 100 100 100 100 100 100 100 100 100 100 100 100 100 100 100 100 71 10 5 5 80 55 75 100 66 67 42 52 14 5 11 29 11 77 100 42 16 7 56 86 74 90 93 100
100 100 100 100 100 100 100 100 100 100 100 100 100 100 100 100 100 100 100 86 79 5 5 5 83 90 99 92 74 88 71 88 99 7 14 5 31 98 52 10 17 13 71 64 98 83 24
100 100 100 100 100 100 100 100 100 100 100 100 100 100 100 100 100 100 100 44 18 5 5 5 5 36 84 76 76 16 5 47 94 100 99 83 5 87 96 25 64 98 93 100 98 91 65
100 100 100 100 100 100 100 100 100 100 100 100 100 100 100 100 100 100 100 41 36 5 5 5 5 18 79 83 56 18 13 5 5 5 34 95 98 98 77 38 16 5 65 85 92 100 99
100 100 100 100 100 100 100 100 100 100 100 100 100 100 100 100 100 100 100 24 46 5 5 4 5 37 84 90 92 17 5 97 17 82 20 24 57 12 100 100 100 92 51 18 30 97 22
100 100 100 100 100 100 100 100 100 100 100 100 100 100 100 100 100 100 100 36 32 5 5 4 3 5 5 5 66 78 5 5 74 92 95 93 90 100 100 100 98 100 100 100 100 100 100
100 100 100 100 100 100 100 100 100 100 100 100 100 100 100 100 100 100 100 69 30 5 5 5 5 5 29 10 53 91 20 44 15 10 6 65 84 88 100 82 98 100 77 69 96 100 100
100 100 100 100 100 100 100 100 100 100 100 100 100 100 100 100 100 100 100 90 5 5 5 5 2 3 5 5 20 40 84 19 5 50 44 92 85 47 65 29 62 91 100 100 31 6 31
100 100 100 100 100 100 100 100 100 100 100 100 100 100 100 100 100 100 100 100 5 26 5 5 0 3 5 5 29 5 56 47 35 34 20 96 82 99 90 42 17 5 5 5 15 16 39
100 100 100 100 100 100 100 100 100 100 100 100 100 100 100 100 100 100 100 100 7 63 5 5 4 5 5 5 14 5 5 5 6 5 5 5 61 52 94 55 14 61 100 100 10 6 85
100 100 100 100 100 100 100 100 100 100 100 100 100 100 100 100 100 100 100 100 31 43 5 6 5 5 5 5 5 5 50 38 17 5 5 16 54 29 31 100 6 3 5 9 90 97 98
100 100 100 100 100 100 100 100 100 100 100 100 100 100 100 100 100 100 100 100 49 47 7 5 7 5 5 5 85 21 5 57 26 5 5 4 5 5 37 98 56 68 53 52 37 5 8
100 100 100 100 100 100 100 100 100 100 100 100 100 100 100 100 100 100 100 100 99 17 6 5 5 5 6 13 7 5 5 6 6 5 5 5 4 4 5 57 86 12 7 54 76 69 87

GFSGBSN_prec_cloud_084.txt.gz
Cloud_Cover
100 100 100 100 100 100 100 100 100 100 100 100 100 100 100 100 100 100 100 100 82 61 22 0 0 0 0 1 0 0 2 20 57 56 100 58 100 29 7 91 6 91 100 100 100 100 100
100 100 100 100 100 100 100 100 100 100 100 100 100 100 90 100 61 92 100 100 70 21 5 0 2 0 2 28 0 0 79 100 100 58 100 99 100 92 5 76 12 90 100 100 100 100 100
100 100 100 100 100 100 100 100 100 100 100 100 100 100 100 92 19 100 100 99 90 6 5 0 0 9 46 28 0 0 93 100 99 11 100 100 100 87 5 48 25 100 100 100 100 100 100
100 97 95 100 100 100 100 100 100 100 100 100 100 100 100 18 34 100 100 100 85 5 5 5 2 5 14 0 5 1 100 100 85 54 96 100 97 80 84 32 40 100 100 100 100 100 100
8 96 100 100 100 100 100 100 100 100 100 100 100 100 100 48 45 100 100 100 48 5 11 4 11 94 5 5 5 4 73 100 99 79 100 100 100 96 100 92 89 100 100 100 100 100 100
2 1 13 55 84 86 100 100 100 100 100 100 100 100 100 100 90 100 100 100 10 5 9 5 9 11 4 5 2 5 16 41 76 100 100 100 100 100 100 100 67 100 100 100 100 100 100
14 0 3 0 65 4 100 100 100 100 100 100 100 100 100 100 100 100 100 100 8 85 6 5 5 5 5 0 0 0 26 40 79 100 96 100 100 100 100 99 76 100 100 100 100 100 100
5 15 8 5 0 0 6 100 100 100 100 100 100 100 100 100 100 100 100 100 52 91 26 5 5 5 3 3 2 3 64 90 94 100 100 100 100 100 100 100 100 94 98 100 100 100 100
0 6 66 83 6 1 28 47 100 100 100 100 100 100 100 100 100 100 100 100 97 73 5 18 3 4 1 4 5 3 5 99 5 49 100 100 98 100 97 98 91 88 100 100 100 100 100
0 0 14 100 100 5 4 0 100 100 100 100 100 100 100 100 100 100 100 100 100 89 25 5 5 39 19 5 48 27 5 24 42 100 100 100 100 75 90 100 100 100 100 100 100 100 100
0 0 0 3 100 96 4 0 54 100 100 100 100 100 100 100 100 100 100 100 99 68 10 6 4 4 34 56 65 97 10 5 5 54 100 100 100 100 76 100 100 100 100 100 100 100 100
0 0 0 0 1 100 88 20 40 100 100 100 100 100 100 100 100 100 100 100 95 68 29 59 36 8 67 89 100 80 25 12 19 87 100 100 100 100 96 100 100 100 100 100 100 100 100
90 5 4 0 0 6 100 0 54 100 100 100 100 100 100 100 100 100 100 100 99 97 25 18 22 5 74 100 98 46 93 5 54 100 100 100 100 100 69 34 100 100 100 100 100 100 100
79 5 5 70 76 34 66 0 54 100 100 100 100 100 100 100 100 100 100 100 92 5 26 52 4 6 71 72 100 99 99 100 100 100 100 100 100 81 100 98 100 100 100 100 100 100 100
100 99 100 59 51 93 99 100 76 100 100 100 100 100 100 100 100 100 100 100 52 5 5 68 5 7 79 20 94 55 76 52 100 100 100 100 99 100 98 98 68 100 100 100 100 100 100
100 75 41 99 93 100 41 24 100 100 100 100 100 100 100 100 100 100 100 100 64 5 5 5 5 5 61 9 13 93 40 54 100 93 100 100 98 100 99 88 44 42 93 99 100 100 100
90 76 100 100 100 100 100 93 100 100 100 100 100 100 100 100 100 100 100 100 45 5 5 28 67 23 62 74 73 33 73 5 65 99 100 100 60 42 12 38 5 41 15 18 65 100 100
10 100 100 100 100 100 100 100 100 100 100 100 100 100 100 100 100 100 100 100 52 5 5 5 10 88 22 98 88 99 6 30 65 97 62 93 39 96 75 76 29 6 5 5 41 27 9
19 100 100 100 100 100 100 100 100 100 100 100 100 100 100 100 100 100 100 100 60 5 5 5 5 20 6 13 68 99 27 13 51 66 46 74 97 58 78 100 72 100 100 35 42 38 10
6 100 100 100 100 100 100 100 100 100 100 100 100 100 100 100 100 100 100 100 78 5 5 4 4 5 5 7 5 5 5 6 6 88 74 50 7 6 53 75 66 88 72 91 19 17 46
24 100 100 98 100 100 100 100 100 100 100 100 100 100 100 100 100 100 100 100 51 13 5 5 5 5 5 62 6 5 5 5 5 97 100 91 79 33 5 23 7 20 84 76 67 77 33
100 86 100 100 100 100 100 100 100 100 100 100 100 100 100 100 100 100 100 100 95 5 4 5 5 5 48 90 12 5 5 5 5 5 5 28 51 100 13 89 100 100 95 40 82 100 100
54 100 100 100 100 100 100 100 100 100 100 100 100 100 100 100 100 100 100 100 100 10 5 2 5 5 7 16 5 5 5 5 5 5 55 28 21 6 40 9 21 80 99 100 96 100 100
60 75 100 100 100 100 100 100 100 100 100 100 100 100 100 100 100 100 100 100 100 8 5 4 5 5 5 27 7 52 52 54 60 5 5 5 15 10 41 5 44 36 5 19 80 85 94
97 100 100 100 100 100 100 100 100 100 100 100 100 100 100 100 100 100 100 100 100 46 5 5 4 5 5 5 77 87 42 27 21 5 5 6 66 76 65 38 3 4 5 5 5 9 64
56 59 100 100 100 100 100 100 100 100 100 100 100 100 100 100 100 100 100 100 100 93 5 5 5 5 5 5 16 26 19 5 5 5 5 57 11 78 100 49 14 4 1 0 1 2 1
50 100 100 100 100 100 100 100 100 100 100 100 100 100 100 100 100 100 97 98 100 98 5 5 5 5 5 4 5 5 5 4 7 5 59 100 99 81 92 100 10 4 1 0 1 0 0
100 100 100 100 100 100 100 100 100 100 100 100 100 100 100 100 100 94 100 100 100 100 6 19 5 5 5 5 5 5 5 5 5 5 5 8 14 26 91 100 54 0 2 4 3 0 3
100 100 100 100 100 100 100 100 100 100 100 100 100 100 100 100 98 100 100 80 100 100 13 5 8 2 5 3 31 3 5 5 5 5 5 4 1 4 2 4 1 0 0 1 1 3 5

GFSGBSN_prec_cloud_087.txt.gz
Cloud_Cover
100 100 100 100 100 100 100 100 100 100 100 100 100 100 100 100 100 100 100 57 96 89 99 89 48 29 0 11 2 0 0 4 6 20 99 97 3 100 100 14 4 4 98 100 100 100 100
99 100 100 100 100 100 100 100 100 82 100 100 100 100 100 100 100 100 100 32 91 83 51 71 17 15 11 81 0 1 4 6 90 94 83 42 45 100 100 14 7 4 100 100 100 100 100
3 1 54 98 100 100 100 100 100 94 100 100 100 100 100 100 94 100 91 66 100 99 5 96 4 43 92 36 5 2 4 99 100 100 20 51 91 100 83 9 7 100 100 100 100 100 100
4 5 1 63 100 100 100 73 100 100 100 100 100 100 100 100 100 100 100 100 93 31 11 18 6 25 25 2 5 0 67 100 93 12 42 100 100 100 100 14 11 100 100 100 100 100 100
14 31 3 10 44 39 66 83 16 100 100 100 100 100 100 100 100 100 100 100 77 7 13 9 12 5 12 5 0 0 38 100 98 26 30 80 100 100 100 5 4 100 100 100 100 100 100
91 75 35 9 0 0 0 1 29 52 100 100 100 100 100 100 100 100 100 100 99 9 5 5 5 58 2 1 0 0 5 4 81 100 62 100 100 100 100 55 49 100 100 100 100 100 100
2 11 8 14 5 0 0 0 2 6 56 100 100 100 100 100 100 100 100 100 70 94 6 5 5 5 5 0 0 0 5 5 72 85 100 98 100 100 84 34 67 5 100 100 100 100 100
100 74 49 96 100 11 0 3 2 3 14 100 100 100 100 100 100 100 100 100 87 93 5 7 5 5 5 0 0 0 3 96 5 40 91 73 100 100 80 74 57 100 100 100 100 100 100
100 100 98 37 69 100 61 1 9 18 5 99 100 100 100 100 100 100 100 100 100 36 71 42 4 5 5 3 1 0 1 13 97 87 100 72 100 100 100 80 100 100 100 99 100 100 100
100 62 0 0 0 0 0 39 0 4 5 93 100 100 100 100 100 100 100 100 97 50 100 4 5 5 23 4 19 5 5 22 48 99 100 100 100 84 98 99 96 100 100 100 100 100 100
99 15 2 0 0 0 0 2 25 7 5 5 100 100 100 100 100 100 100 100 74 100 100 4 5 5 10 25 15 5 2 82 3 98 98 100 100 100 100 100 92 100 100 100 100 100 100
8 15 5 93 30 3 0 0 0 5 3 5 100 100 100 100 100 100 100 100 92 100 89 46 32 10 55 47 100 4 3 5 5 66 99 100 100 92 100 99 86 100 100 100 100 100 100
5 5 31 100 100 8 4 1 2 6 0 3 100 100 100 100 100 100 100 100 100 100 92 17 23 5 46 100 100 78 26 5 59 100 99 100 100 100 48 100 97 100 100 100 100 100 100
76 10 86 98 100 96 5 5 35 56 15 8 100 100 100 100 100 100 100 100 100 100 28 5 3 5 65 75 32 37 5 34 58 98 100 100 100 100 100 100 100 100 100 100 100 100 100
100 100 100 100 80 98 76 100 97 95 9 74 100 100 100 100 100 100 100 100 100 100 7 5 5 5 17 56 74 41 95 95 100 100 100 100 98 100 100 100 100 98 100 100 100 100 100
100 100 98 91 27 100 90 97 55 100 4 100 100 100 100 100 100 100 100 100 100 90 9 5 5 5 5 5 68 98 61 86 85 98 100 100 100 96 98 99 100 92 66 100 92 100 97
100 100 99 21 100 100 100 97 83 90 54 100 100 100 100 100 100 100 100 100 100 9 7 5 5 5 5 11 87 44 13 5 68 100 98 98 98 91 100 99 100 36 13 34 100 100 14
100 100 73 93 100 100 100 100 100 100 100 100 100 100 100 100 100 100 100 100 85 5 5 5 38 5 2 47 92 28 5 5 99 49 11 5 40 94 74 6 7 5 94 96 60 99 94
100 97 25 100 100 100 100 100 100 100 100 100 100 100 100 100 100 100 100 100 51 6 5 5 62 5 5 10 67 21 5 71 92 92 99 100 92 62 16 15 7 5 5 53 100 99 97
100 99 66 100 100 100 100 100 100 99 100 100 100 100 100 100 100 100 100 100 58 27 5 5 5 5 5 22 75 7 5 16 83 39 64 38 38 78 50 24 15 5 5 3 5 53 100
23 95 100 100 64 100 100 100 100 100 100 100 100 100 100 100 100 100 100 100 100 75 46 5 5 5 5 46 81 63 5 5 8 65 24 10 25 14 5 5 5 5 6 62 83 12 5
7 13 64 94 100 100 100 100 100 100 100 100 100 100 100 100 100 100 100 98 73 48 5 5 5 5 5 5 5 5 5 16 48 70 57 55 5 5 5 5 5 5 5 3 3 0 0
5 81 100 100 100 100 100 100 100 100 100 100 100 100 100 100 100 100 100 84 38 5 5 5 4 5 5 5 5 5 5 5 5 14 34 94 5 5 5 5 3 3 4 6 5 3 1
5 100 99 99 100 100 100 100 100 100 100 100 100 100 100 100 100 100 100 70 5 5 0 5 5 5 5 5 5 5 5 5 5 14 22 41 6 10 56 5 5 0 0 1 5 5 14
5 63 73 100 100 100 100 100 100 100 100 100 100 100 100 100 100 100 100 98 5 5 4 5 5 5 20 5 5 11 24 6 17 5 5 5 5 38 66 44 3 0 0 0 1 2 5
7 81 100 100 100 100 100 100 100 100 100 100 100 100 100 100 100 100 100 100 6 5 10 7 5 5 5 5 5 5 5 5 5 5 5 10 15 52 100 82 11 0 0 0 0 0 0
85 100 89 100 100 100 100 100 100 100 100 100 100 100 100 100 100 100 100 96 26 7 29 5 5 5 5 5 5 5 5 5 10 5 79 88 100 69 100 96 4 0 0 0 0 0 1
100 100 100 100 100 100 100 100 100 100 100 100 100 100 100 100 99 100 100 100 96 19 32 6 23 29 5 5 5 5 5 2 5 5 5 28 44 36 100 100 17 0 0 0 0 0 0
100 100 100 100 100 100 100 100 100 100 100 100 100 100 100 100 84 100 100 100 100 35 26 8 5 5 5 3 31 4 5 5 5 5 5 5 4 6 4 2 0 0 0 0 0 3 5

GFSGBSN_prec_cloud_090.txt.gz
Cloud_Cover
100 100 100 97 99 100 100 100 100 100 100 56 100 100 100 100 100 100 100 100 100 100 100 100 100 100 92 53 5 0 0 0 5 55 94 88 92 27 82 90 100 100 4 4 80 100 92
35 89 5 0 13 40 100 100 100 100 100 100 100 98 100 100 100 100 100 100 100 100 97 100 100 100 28 13 1 0 1 12 100 100 100 89 100 23 100 100 100 11 5 34 97 100 100
46 4 1 0 0 34 100 100 100 55 100 100 100 100 100 100 100 100 100 100 100 100 88 100 100 100 27 5 0 0 0 96 100 89 100 94 96 33 100 100 89 7 6 62 100 100 100
100 100 100 100 47 0 3 7 6 2 40 100 100 100 100 100 100 100 100 100 100 100 100 100 100 99 28 4 0 0 3 92 96 39 5 80 74 80 71 97 54 6 58 100 100 100 100
100 100 100 100 100 97 3 5 22 16 4 14 100 100 100 100 100 100 100 100 100 100 100 100 100 84 11 1 0 0 5 69 82 7 5 62 29 63 100 92 98 43 100 100 100 100 100
100 100 100 100 100 100 100 41 20 100 41 5 56 100 100 100 100 100 100 100 100 100 100 100 100 76 7 0 0 0 4 7 100 47 12 90 100 100 100 62 55 94 100 100 100 100 100
100 100 100 100 100 73 100 100 82 5 87 25 5 69 100 100 100 100 100 100 100 100 100 100 86 74 6 0 0 0 0 0 27 50 81 100 100 100 100 66 95 100 100 100 100 100 100
100 100 100 100 100 100 100 100 100 66 5 47 5 5 100 100 100 100 100 100 100 100 100 32 100 78 0 0 0 0 0 0 7 100 61 80 99 100 88 45 100 100 100 100 100 100 100
100 100 100 100 100 100 100 70 63 83 10 13 10 0 100 100 100 100 100 100 100 100 95 100 100 6 2 1 2 0 0 4 5 90 72 100 100 97 100 100 100 100 100 100 100 100 100
100 100 100 100 100 93 18 40 73 40 100 0 12 5 100 100 100 100 100 100 100 100 100 100 93 5 16 4 2 1 2 17 58 31 65 100 100 92 100 100 100 100 100 100 87 100 100
97 100 100 100 99 5 3 18 88 8 95 15 0 8 84 100 100 100 100 100 100 100 100 100 5 5 12 14 4 2 1 22 5 41 79 100 100 100 100 100 100 100 100 88 69 100 100
94 100 100 100 100 98 46 100 100 91 67 8 1 18 12 100 100 100 100 100 100 100 100 79 49 5 84 89 87 90 1 3 5 84 88 100 100 94 100 100 100 100 100 100 97 100 100
100 100 100 42 100 91 100 100 97 67 4 1 5 0 18 100 100 100 100 100 100 100 98 32 26 5 67 83 97 47 6 4 63 84 100 100 100 87 100 100 100 100 100 100 100 100 100
100 100 100 77 100 100 100 100 93 57 5 5 0 2 93 100 100 100 100 100 100 100 43 5 5 5 74 66 10 8 5 20 10 100 100 93 95 100 100 92 81 100 100 100 100 100 100
100 100 77 100 100 100 100 59 71 26 27 5 11 15 100 100 100 100 100 100 100 100 14 5 5 5 92 5 7 8 22 87 100 100 100 98 95 100 100 100 82 100 100 94 100 100 100
100 92 84 100 100 71 26 100 100 100 76 93 65 100 100 100 100 100 100 100 100 92 3 2 2 5 20 5 5 34 83 85 98 100 97 90 99 100 100 100 100 100 100 100 98 100 100
86 100 46 100 45 3 72 100 100 100 100 100 100 100 100 100 100 100 100 100 100 7 2 0 3 5 5 5 6 23 16 12 27 98 100 78 89 100 93 73 74 100 100 96 100 100 100
100 100 92 100 5 100 100 100 100 100 100 100 100 100 100 100 100 100 100 100 100 5 5 3 5 5 5 5 5 41 5 12 97 80 91 79 24 76 80 44 35 5 21 100 100 100 100
100 100 94 59 100 100 100 100 100 100 100 100 100 100 100 100 100 100 100 98 66 16 5 3 5 18 5 5 6 21 5 5 77 22 55 18 80 91 68 9 4 5 6 34 85 100 100
100 100 68 5 84 98 94 100 100 100 100 100 100 100 100 100 100 100 100 75 48 5 5 5 16 35 5 5 10 5 5 16 86 90 12 6 6 7 5 5 5 4 1 1 5 5 80
100 28 9 5 100 100 100 100 100 100 100 99 100 100 100 100 100 100 100 74 33 13 5 5 46 40 5 14 30 5 11 64 29 9 5 5 4 5 5 5 5 0 0 0 1 5 13
34 5 4 27 100 100 100 100 100 100 100 100 100 100 100 100 100 100 98 68 12 50 5 5 5 7 84 5 5 5 5 5 5 5 26 5 7 5 5 5 5 5 1 0 0 0 0
7 4 23 98 100 100 100 100 100 100 100 100 100 100 100 100 100 98 58 99 100 51 5 5 5 5 56 91 48 5 5 5 5 5 5 5 5 5 5 5 0 1 4 0 0 0 0
5 15 100 100 100 100 100 100 100 100 100 100 100 100 100 100 100 100 69 100 48 8 5 5 5 48 82 83 92 5 5 5 5 5 12 5 48 54 5 4 4 0 0 0 0 0 0
5 10 96 100 100 100 100 100 100 100 100 100 100 100 100 100 100 73 15 54 8 5 5 1 5 18 84 96 63 18 84 61 69 58 27 39 11 8 16 68 1 0 0 0 0 0 0
59 37 30 100 100 100 100 100 100 100 100 100 100 100 100 100 74 68 75 15 55 5 5 41 5 86 94 40 16 5 5 5 5 23 5 7 75 61 95 70 16 0 0 0 0 0 0
5 1 80 98 100 100 100 100 100 100 100 100 100 98 100 100 99 75 30 16 69 5 31 6 9 58 52 5 5 5 5 5 6 5 76 96 94 34 71 93 4 0 0 0 3 0 0
2 29 98 100 100 100 100 100 100 100 100 100 100 100 95 100 100 99 100 100 99 7 5 4 32 43 14 52 5 5 5 2 5 5 5 43 50 23 13 39 30 0 0 2 0 0 0
5 93 97 100 100 100 100 100 100 100 100 77 84 99 84 100 100 100 68 100 100 81 48 8 5 2 5 5 31 5 5 4 5 5 5 5 4 5 5 5 5 0 3 0 0 0 0

GFSGBSN_prec_cloud_093.txt.gz
Cloud_Cover
9 9 1 2 5 0 6 68 83 100 97 91 97 100 100 100 100 100 100 89 100 100 84 100 100 100 100 100 96 5 67 5 1 27 13 38 62 96 86 4 5 42 0 1 3 5 25
85 97 88 91 24 78 10 1 0 22 18 100 64 100 100 100 100 100 100 84 100 96 100 100 100 100 100 100 15 73 11 4 5 50 100 86 84 90 90 43 4 72 75 39 38 5 98
79 90 100 100 98 97 100 95 74 7 5 0 10 24 98 99 100 100 100 100 79 100 100 100 100 100 100 73 9 100 11 0 6 50 86 97 96 100 87 2 44 100 100 100 67 3 95
99 100 100 100 100 100 100 100 100 100 100 5 5 54 57 100 100 100 100 100 100 100 100 100 100 100 100 23 97 77 1 4 52 12 18 73 73 100 96 50 100 100 100 100 5 1 24
100 100 100 100 100 100 100 100 100 100 100 64 6 97 74 99 100 100 100 100 100 100 100 100 100 100 98 88 92 1 0 5 99 29 5 79 98 92 100 91 100 92 100 100 88 94 100
100 100 100 100 100 100 100 100 100 100 100 61 6 5 98 100 100 100 100 100 100 100 100 100 100 100 84 100 47 1 0 8 98 83 14 100 100 100 100 100 100 38 100 100 100 97 100
100 100 100 100 100 100 100 100 100 100 100 100 100 68 5 97 100 100 100 100 100 100 100 99 100 100 100 100 2 0 0 2 5 69 100 100 91 90 100 81 100 96 100 100 100 100 100
100 100 100 100 100 100 100 100 100 100 100 100 100 94 5 88 100 99 100 100 100 100 100 100 100 100 100 27 0 0 0 4 5 26 90 86 100 100 100 79 100 100 100 100 100 100 100
100 100 100 100 100 100 100 100 100 100 96 44 29 3 19 96 100 95 100 100 100 100 100 100 100 100 52 2 0 0 0 0 5 6 17 47 100 99 95 95 100 100 100 100 100 100 100
100 100 100 100 100 100 100 100 99 75 100 74 31 0 8 100 100 100 100 100 100 100 100 100 100 99 5 2 1 4 1 2 3 10 30 100 100 100 100 96 100 99 100 100 100 100 100
100 100 100 99 100 100 100 100 100 100 79 100 100 95 82 96 92 100 100 100 100 100 100 100 100 92 10 4 4 22 0 5 5 75 52 100 99 97 100 100 100 100 100 100 100 100 100
100 100 100 100 100 100 95 99 13 99 25 87 13 90 2 95 100 100 100 100 100 100 100 100 100 70 66 12 56 62 1 2 5 82 100 99 100 100 100 100 100 100 100 100 100 100 100
100 100 100 100 100 85 69 100 82 100 95 33 5 3 7 24 97 100 100 100 100 100 100 100 100 12 53 34 92 11 5 5 30 94 97 56 100 100 100 100 100 100 100 100 95 100 100
100 100 100 91 100 100 100 99 100 100 100 99 9 7 0 0 98 100 100 100 100 100 100 100 53 9 87 13 12 5 12 100 100 67 79 9 100 100 100 100 100 100 100 100 98 97 100
100 100 55 98 100 100 100 100 97 11 25 72 5 31 94 66 100 100 100 100 100 100 100 100 10 5 75 100 43 5 35 53 90 100 13 48 100 100 100 100 100 100 100 100 100 100 100
87 6 51 100 100 100 100 100 5 79 100 100 94 75 66 100 100 100 100 100 100 100 100 42 3 5 6 66 5 40 100 100 90 100 45 53 100 100 100 100 100 100 95 97 100 100 100
63 92 100 100 100 100 100 64 100 100 100 100 78 92 100 100 100 100 100 100 100 100 100 5 5 5 5 11 5 5 83 61 98 84 96 84 67 98 100 100 100 90 99 33 12 31 100
100 100 100 100 100 46 83 100 98 93 98 99 100 100 100 100 100 100 100 100 100 100 27 5 31 1 5 5 5 16 13 40 99 81 97 98 75 100 98 100 100 100 100 100 100 100 6
100 82 94 36 95 87 100 100 100 100 100 100 100 100 100 100 100 100 100 100 100 99 5 5 14 2 5 5 18 32 5 60 100 91 8 5 9 24 6 5 8 95 10 3 30 52 10
58 94 5 3 55 100 100 100 100 100 100 100 100 100 100 100 100 100 100 100 100 100 5 76 30 2 5 5 5 5 5 9 100 96 26 6 24 71 5 3 4 2 2 1 4 4 24
10 2 2 23 29 100 100 100 100 100 100 100 100 100 100 100 100 100 100 100 16 100 100 86 83 4 4 5 5 5 5 5 13 5 5 4 4 5 5 5 5 2 0 0 0 0 0
59 100 100 100 98 99 79 100 100 100 100 100 100 94 100 100 100 100 100 68 41 100 100 52 5 5 5 5 4 5 5 5 5 5 5 5 13 5 5 5 1 0 1 0 2 0 0
21 96 100 100 76 94 100 100 100 68 98 100 81 100 100 100 100 99 97 95 100 100 100 15 5 5 5 5 5 5 5 5 5 5 5 5 5 5 5 5 0 1 0 0 0 0 0
10 74 85 100 100 100 100 100 100 48 100 99 90 91 100 100 100 88 64 55 100 100 40 40 5 5 31 5 5 5 5 5 5 5 5 5 5 5 5 2 1 0 0 0 0 0 0
1 40 17 100 100 100 92 72 44 100 100 98 100 100 100 95 86 100 94 100 100 100 33 5 5 15 33 63 48 6 71 28 5 5 5 5 5 5 15 73 1 0 0 0 0 0 0
0 23 100 100 100 100 99 87 25 28 100 97 100 84 37 75 68 100 92 100 100 55 5 97 5 73 97 78 27 5 5 5 5 5 5 5 6 5 5 75 1 0 0 0 0 0 0
1 83 100 100 100 90 100 61 58 100 100 100 64 85 97 59 23 38 100 100 100 24 28 7 8 89 89 11 6 5 5 5 10 7 81 99 72 5 5 10 2 0 0 0 0 0 0
3 100 100 100 100 100 100 100 100 100 100 58 95 87 81 53 27 93 88 98 21 5 5 4 47 83 92 99 81 5 5 5 5 4 9 59 34 26 5 6 4 0 0 0 0 0 0
6 100 100 100 100 100 100 99 99 100 100 99 62 100 100 88 26 86 9 5 5 5 5 8 5 5 6 5 31 5 5 5 5 5 5 4 3 4 2 2 0 0 0 0 0 0 0

GFSGBSN_prec_cloud_096.txt.gz
Cloud_Cover
100 100 100 100 100 97 100 100 77 59 72 30 100 100 100 88 100 100 100 100 89 100 8 5 22 91 61 52 99 100 100 100 60 10 5 100 100 94 97 98 85 30 4 5 5 5 10
100 100 100 100 100 100 100 100 100 100 100 100 100 100 99 100 100 100 100 100 100 100 95 96 78 95 39 100 100 100 76 78 88 82 84 100 98 97 85 97 84 87 95 5 5 5 5
100 100 100 100 100 91 86 100 100 100 100 50 100 42 100 100 100 100 100 100 100 98 100 80 5 76 92 99 85 91 100 76 78 100 67 83 100 100 100 100 62 30 61 12 15 2 6
100 100 100 100 100 100 100 100 100 100 100 100 49 10 100 100 100 100 100 100 100 99 100 98 50 62 95 100 100 100 100 99 97 52 5 51 89 100 100 30 32 10 72 90 5 11 89
100 100 100 100 100 100 100 100 100 100 100 94 100 73 5 98 100 100 100 100 100 100 100 79 98 99 100 100 100 82 100 100 78 89 56 58 89 89 85 62 24 91 100 100 100 49 36
100 100 100 100 100 100 100 100 100 100 100 74 100 100 60 5 100 100 100 100 100 100 100 100 91 100 100 100 100 100 98 61 60 100 27 100 100 100 84 81 78 95 97 100 100 22 54
100 100 100 100 100 100 100 100 100 91 100 86 100 100 100 100 100 100 100 100 100 100 83 100 100 91 100 100 98 100 65 100 10 68 100 98 89 100 96 65 100 100 100 100 100 67 67
100 100 100 100 100 100 100 100 100 100 100 100 100 100 100 100 100 100 100 100 100 77 95 48 100 100 100 100 98 55 100 77 8 91 84 99 98 95 94 96 89 100 100 100 100 100 84
100 100 100 100 100 100 100 100 100 100 100 73 96 61 17 26 100 100 100 100 100 64 99 100 100 100 100 100 100 100 73 1 5 27 73 68 65 94 100 62 100 100 100 100 100 100 100
100 100 100 100 100 100 100 100 38 87 5 60 90 100 100 82 100 100 84 100 90 100 100 100 100 100 100 100 100 96 5 1 3 8 15 100 48 81 100 98 91 100 100 100 100 100 100
100 100 100 100 100 100 15 52 100 100 100 100 39 99 100 100 78 89 100 73 100 100 100 100 100 100 100 100 96 61 0 2 5 33 80 79 74 100 95 98 93 100 100 100 100 100 100
100 100 100 100 99 94 97 100 100 100 100 100 100 100 97 100 86 94 99 100 92 97 100 100 100 100 100 100 84 2 2 4 6 79 100 50 81 100 100 100 100 100 100 100 100 100 100
100 100 90 99 100 100 100 100 100 94 76 100 100 100 32 10 87 100 95 100 98 100 100 100 100 100 100 89 80 7 5 5 59 97 81 100 94 100 100 100 100 100 100 100 100 100 100
100 78 100 100 100 100 100 100 76 79 42 14 100 100 17 39 5 99 100 100 100 100 100 100 100 100 58 80 15 6 5 18 54 99 100 100 97 100 100 100 100 100 100 100 100 100 100
83 29 100 100 100 100 100 100 100 99 69 100 100 100 22 5 7 44 97 100 100 100 100 100 100 98 100 29 64 19 94 56 9 98 100 100 100 100 100 100 100 100 100 100 100 100 100
5 100 100 87 58 100 100 99 88 53 100 100 100 48 5 5 71 88 100 100 100 100 100 100 71 62 95 42 97 36 86 23 68 100 100 100 100 100 100 100 100 100 100 100 100 100 100
65 100 99 11 13 97 92 71 92 87 96 84 52 78 45 98 95 100 100 100 100 100 100 48 5 18 19 28 100 29 5 16 96 100 100 100 100 100 100 100 100 100 100 100 100 89 83
100 22 3 3 5 65 100 100 83 62 60 62 100 100 100 100 100 100 100 100 100 100 94 13 25 5 5 36 100 8 95 97 100 100 64 61 96 100 100 100 100 100 100 100 16 100 9
70 71 90 5 74 100 100 75 100 100 33 78 100 100 100 100 100 100 100 100 100 98 94 61 73 5 0 5 27 61 32 69 97 100 92 19 35 77 100 100 99 100 43 30 5 8 6
16 40 100 100 100 100 100 100 100 100 83 13 99 90 100 100 100 100 100 100 92 99 98 86 36 5 3 5 5 5 5 92 100 74 100 18 5 15 97 87 6 83 5 5 5 8 5
83 100 100 100 100 100 100 100 100 100 100 100 100 95 98 100 100 100 100 100 7 95 98 94 57 5 4 8 5 5 5 5 5 5 5 2 5 5 9 5 4 1 1 0 0 0 3
61 100 96 100 100 100 100 100 97 100 100 100 89 100 100 100 100 100 100 92 8 92 90 84 83 5 5 4 5 5 3 5 4 3 0 0 5 5 5 2 4 15 6 5 1 0 2
22 32 39 98 100 100 98 99 22 45 100 94 100 100 100 100 100 100 100 49 14 100 96 95 97 5 5 5 5 1 2 0 0 3 0 0 4 3 4 0 0 1 0 0 0 0 0
3 11 100 100 100 93 13 32 92 58 56 77 52 90 98 100 100 85 87 88 100 100 94 93 38 25 5 5 5 5 5 5 5 5 3 3 2 5 4 1 1 0 0 0 0 0 0
6 5 100 100 100 94 9 5 16 32 54 5 6 88 62 90 100 84 98 97 100 92 98 85 5 5 5 5 5 13 7 5 5 5 5 5 5 5 5 3 0 0 0 0 0 0 0
4 74 55 43 16 5 5 8 5 5 100 35 5 59 74 3 31 81 99 100 100 100 84 83 9 5 74 16 20 5 5 5 5 5 5 5 5 4 5 2 0 0 0 0 0 0 0
2 100 100 94 10 5 5 8 5 6 5 5 9 5 5 5 9 85 86 48 100 98 75 5 77 86 32 11 30 5 5 5 5 7 97 32 16 5 5 4 0 0 0 0 0 0 0
15 46 100 100 47 14 10 17 96 5 5 5 6 5 5 5 5 5 45 100 78 11 5 4 66 52 5 88 36 5 0 5 3 4 15 56 56 33 5 5 2 0 0 0 0 0 0
76 45 100 100 100 100 99 73 98 86 16 33 5 5 5 5 6 8 90 91 20 4 2 4 4 2 5 5 4 3 1 5 5 4 1 5 2 4 4 5 5 2 0 0 0 0 0

GFSGBSN_prec_cloud_099.txt.gz
Cloud_Cover
100 100 100 100 100 100 100 100 100 100 100 100 100 100 100 100 100 100 100 100 100 100 100 100 61 8 34 5 5 1 5 8 53 100 75 98 100 95 100 72 76 78 4 3 5 5 5
100 100 100 100 100 100 100 100 100 100 100 86 46 98 100 100 100 100 100 100 100 100 100 100 80 78 62 5 0 0 3 15 6 22 61 100 97 63 100 96 76 50 100 76 12 5 28
100 100 100 100 100 100 100 100 100 100 100 100 100 61 100 100 100 100 100 100 100 100 100 100 100 99 61 38 4 22 100 58 98 98 84 100 100 100 100 36 11 46 85 88 15 14 75
100 100 100 100 100 100 100 100 100 100 100 100 100 100 88 89 100 100 100 100 100 100 100 100 100 100 42 79 5 45 86 84 89 6 23 71 39 100 100 58 97 100 66 5 56 84 20
100 100 100 100 100 100 100 100 100 100 100 82 100 84 100 100 100 100 100 100 100 100 100 100 100 100 53 4 13 63 7 54 65 39 54 63 32 86 100 99 92 94 67 37 85 56 100
100 100 100 100 100 100 100 100 100 100 100 100 100 95 100 100 100 100 100 100 100 100 100 100 100 99 91 84 10 22 65 98 100 62 71 72 100 100 96 100 46 96 98 75 100 100 31
100 100 100 100 100 100 100 100 100 100 100 100 100 100 100 100 100 100 100 100 100 100 100 100 100 98 52 18 76 98 100 100 100 99 84 100 100 94 100 94 100 100 69 37 100 100 96
100 100 100 100 83 100 100 100 100 100 100 100 86 84 100 91 100 100 100 100 100 100 100 100 100 97 86 97 60 100 76 98 97 100 100 97 83 58 100 99 90 100 69 72 100 96 100
100 100 100 100 100 88 84 99 100 100 65 80 84 94 100 6 91 100 100 100 100 97 100 100 84 100 77 44 99 100 100 85 11 92 84 95 96 90 100 97 98 65 73 100 100 98 97
100 100 100 100 20 90 86 100 100 100 100 100 100 100 98 6 40 85 100 100 100 100 100 100 84 68 93 100 100 100 100 77 35 18 100 95 99 84 92 99 80 81 99 100 100 100 100
100 100 49 24 100 99 100 100 100 100 100 100 100 100 99 65 100 84 100 100 100 93 100 94 76 95 100 100 100 94 53 8 8 97 34 86 71 94 100 100 96 64 100 100 100 100 100
100 88 78 90 100 100 100 100 100 100 100 100 94 100 90 100 100 100 88 100 100 100 100 98 86 100 100 100 83 87 33 2 24 74 86 57 61 85 100 100 100 100 100 100 100 100 100
96 5 100 42 15 50 92 100 100 100 100 100 100 100 100 100 100 100 55 100 100 100 92 79 100 100 100 100 100 20 4 77 100 96 87 77 93 100 100 100 100 100 100 100 100 100 100
1 100 100 18 31 100 100 100 100 39 13 94 76 100 100 100 100 98 73 100 100 100 100 100 100 100 100 100 76 68 37 92 25 80 92 100 100 100 100 100 100 100 100 100 100 100 100
14 100 100 99 100 100 100 100 100 100 100 100 98 16 45 8 45 44 100 100 100 100 100 100 100 100 99 89 90 22 87 98 85 100 100 100 100 100 100 100 100 100 100 100 100 100 100
56 100 100 55 100 100 100 100 100 100 100 96 100 81 82 48 51 79 100 100 100 100 100 100 100 99 82 76 58 89 70 87 100 100 100 100 100 100 100 100 100 100 100 100 100 100 100
96 100 100 100 45 100 100 100 100 12 46 51 57 100 50 75 94 100 100 100 100 100 100 100 85 81 66 95 100 95 78 100 100 92 100 100 100 100 100 100 100 100 100 98 99 100 99
94 100 100 100 36 100 100 100 100 33 82 82 90 93 38 100 100 100 100 100 100 100 67 36 28 72 100 90 100 96 100 100 100 100 100 100 100 100 100 100 100 100 100 98 72 100 50
10 100 100 100 57 100 100 100 82 5 15 81 100 100 100 54 97 92 100 100 98 91 40 71 45 43 14 89 90 93 70 100 73 100 100 100 100 100 100 100 71 87 68 99 42 9 5
37 56 56 75 100 100 100 100 38 100 95 45 97 100 100 100 100 100 100 100 79 5 94 60 61 5 17 60 32 99 98 91 10 67 100 99 64 97 100 53 83 4 6 7 51 39 5
70 1 5 80 100 100 100 100 100 26 56 97 100 100 100 100 100 100 87 92 57 11 66 61 11 64 78 53 30 96 100 30 77 5 4 17 39 65 20 100 7 5 5 5 5 5 38
5 5 14 100 100 92 29 31 30 97 100 97 99 99 100 100 100 100 97 34 78 12 39 57 70 10 88 56 25 5 47 46 18 5 3 0 5 5 5 33 9 64 79 78 72 88 52
100 5 84 99 100 100 21 0 40 72 19 100 100 100 85 92 100 94 42 81 42 47 49 5 35 64 27 4 1 1 0 2 2 4 2 2 2 5 4 2 1 5 1 1 0 0 2
100 37 94 100 100 90 20 0 26 2 85 100 98 47 80 100 99 96 10 9 5 5 17 34 5 62 5 1 3 2 2 3 5 0 0 5 3 5 4 1 4 0 0 0 0 0 0
79 96 86 100 32 69 70 8 28 0 0 5 5 9 86 99 100 36 5 5 24 5 5 6 5 5 5 5 43 29 17 5 5 5 2 3 5 5 23 4 0 0 0 0 0 0 0
100 100 100 47 8 75 60 84 6 5 5 6 5 5 1 9 80 48 11 5 6 11 18 5 5 9 5 6 58 82 68 34 40 9 4 0 2 11 5 3 0 0 0 0 0 0 0
100 100 100 88 48 100 100 100 100 98 98 31 5 2 0 4 5 39 9 5 5 5 40 5 5 52 50 71 85 42 33 1 22 36 59 79 50 27 6 5 1 0 0 0 0 0 0
95 100 100 100 5 97 100 100 100 100 50 16 3 0 0 5 4 5 5 5 5 5 24 4 37 32 5 50 42 55 5 4 2 2 5 9 9 15 5 5 4 4 3 0 0 0 0
23 100 99 100 7 20 100 100 100 100 100 99 47 6 4 3 1 4 0 3 5 5 5 5 29 6 11 13 3 2 4 0 3 1 0 4 5 5 5 5 5 5 5 13 5 5 3

GFSGBSN_prec_cloud_102.txt.gz
Cloud_Cover
100 100 100 100 100 100 100 100 100 100 100 100 100 100 100 100 100 100 100 100 100 100 98 100 49 88 91 95 21 5 0 0 0 0 3 100 90 97 100 74 56 42 4 3 2 5 0
100 100 100 100 100 100 100 100 100 100 100 100 100 100 100 100 100 100 100 100 100 100 100 100 100 100 97 100 99 8 5 2 5 5 13 90 100 100 81 8 11 5 6 7 18 5 5
100 100 100 100 100 100 100 100 100 100 100 100 100 100 100 100 100 100 100 100 100 100 100 99 100 100 100 100 98 16 5 5 5 5 48 100 100 88 54 22 47 24 7 5 5 5 5
100 100 100 100 100 100 100 100 100 100 100 100 100 100 100 100 100 100 100 100 100 100 100 100 100 100 100 100 99 90 12 5 8 5 11 64 13 99 99 12 5 5 40 65 0 2 15
100 100 100 100 100 100 47 100 100 100 100 100 100 100 100 100 100 100 100 100 100 100 100 100 100 100 100 100 100 78 5 11 4 6 80 90 5 42 69 88 24 7 44 34 8 39 97
100 100 100 100 100 79 70 71 95 100 100 100 100 100 100 100 100 100 100 100 100 100 98 100 100 100 100 100 89 76 54 5 17 47 94 39 51 91 94 96 44 97 98 52 23 20 99
100 100 100 100 100 100 100 100 14 100 100 100 100 100 100 100 100 100 100 100 100 100 100 100 100 100 100 92 100 100 31 5 18 100 100 100 92 93 5 24 91 34 100 96 2 44 100
100 100 100 100 100 100 70 24 42 100 100 100 100 100 100 100 100 100 100 100 100 100 100 100 100 100 100 100 100 100 6 4 13 99 100 100 58 86 28 76 100 100 100 99 8 74 5
100 100 100 100 100 100 95 94 100 100 100 100 100 100 100 100 97 100 86 100 100 100 100 100 100 100 100 97 100 70 5 29 42 97 91 69 36 5 43 95 100 100 100 69 98 86 58
100 100 100 100 100 87 100 14 100 100 95 96 100 100 100 96 67 99 100 100 100 100 100 100 100 100 100 100 95 12 80 62 100 32 76 58 4 5 76 74 99 92 80 74 99 100 100
100 100 100 100 100 73 76 69 99 90 100 100 60 87 97 100 97 100 100 100 100 100 100 100 100 100 100 93 14 86 100 100 44 81 19 16 83 93 43 78 78 87 74 66 96 100 100
41 29 100 100 100 99 95 14 11 23 29 89 100 95 100 92 100 100 100 100 100 100 100 100 100 100 100 74 100 100 98 10 5 24 29 5 54 50 92 77 100 100 98 100 95 100 100
0 19 100 100 57 100 100 100 5 5 40 98 46 99 86 100 98 82 72 100 98 100 100 100 100 100 100 100 100 21 5 6 40 72 70 8 74 100 96 100 100 100 100 100 100 100 100
0 6 88 95 100 100 100 99 14 8 1 5 5 7 14 100 100 38 40 100 100 100 100 100 100 100 100 90 56 11 60 5 7 61 90 100 100 100 84 100 100 100 100 100 100 100 100
0 6 10 93 90 100 99 5 80 5 5 5 5 3 11 100 85 53 99 100 100 100 100 100 100 100 97 18 32 5 5 89 95 100 100 100 100 100 100 100 100 99 100 100 100 100 100
1 5 5 5 5 86 38 2 0 0 5 4 5 35 29 46 29 90 100 100 100 100 100 100 100 81 10 5 34 93 95 100 100 100 100 100 100 100 100 100 94 100 86 100 100 100 100
5 5 6 15 5 5 26 0 0 0 0 3 5 5 58 24 69 100 100 100 100 100 100 100 92 49 10 24 82 100 81 79 100 100 100 100 100 100 100 100 100 100 100 100 96 100 100
38 5 61 100 100 78 5 3 0 3 6 53 35 92 91 47 91 100 100 100 87 100 70 87 7 97 49 68 92 100 100 100 100 100 100 100 100 100 100 100 70 97 100 100 99 98 94
5 4 5 82 100 98 81 12 32 25 48 79 100 100 100 100 100 98 100 96 98 100 91 60 5 24 59 96 99 100 100 100 100 100 100 97 100 100 100 100 59 88 89 100 73 100 88
33 4 8 99 100 100 100 100 100 100 100 97 97 98 89 100 70 32 77 51 99 11 45 14 5 55 100 100 100 100 99 96 94 98 100 89 100 100 100 98 54 94 99 100 76 100 100
40 44 100 100 100 100 100 100 100 32 9 17 27 60 58 65 94 22 11 58 69 13 17 5 5 81 98 33 10 22 100 100 100 100 100 100 98 58 80 97 25 32 81 48 82 93 97
54 14 100 100 100 100 100 100 100 47 0 17 76 23 47 100 13 12 15 25 46 18 57 23 62 7 55 5 76 50 14 14 18 86 51 5 90 6 5 5 36 45 96 94 79 68 83
100 8 100 100 100 92 100 100 100 99 5 28 5 5 35 100 76 98 54 10 5 5 5 6 15 65 2 0 2 0 0 2 0 0 0 0 5 5 5 5 4 9 68 21 6 24 5
100 37 54 89 73 10 92 100 100 100 26 14 5 79 61 84 66 70 13 5 5 4 6 5 5 5 4 0 4 1 0 0 0 0 0 4 3 3 2 4 14 0 0 0 0 0 0
100 100 72 96 36 5 7 100 100 100 98 48 5 70 100 59 100 42 5 5 0 0 0 5 5 4 2 5 5 5 5 5 2 0 0 0 2 3 5 4 0 0 0 0 0 0 0
77 100 95 100 81 5 5 91 100 100 100 100 60 6 7 48 5 35 5 2 4 5 1 1 0 5 5 2 5 5 5 4 5 2 0 0 0 2 4 4 1 0 0 0 0 0 0
100 76 29 100 98 18 5 67 100 98 99 100 100 100 75 10 3 5 5 3 4 5 5 0 0 5 5 5 5 5 6 1 5 4 5 5 5 5 5 3 0 0 0 0 0 0 0
100 100 100 100 100 94 60 4 38 76 98 92 100 100 100 100 74 5 5 0 0 4 4 0 3 4 2 5 5 18 1 3 0 0 0 4 5 5 5 5 2 0 0 0 0 0 0
27 98 40 100 100 100 98 84 22 93 58 99 78 98 100 100 99 72 65 5 1 3 4 0 2 5 5 5 5 1 1 2 4 1 0 0 0 4 2 2 5 5 5 5 5 4 1

GFSGBSN_prec_cloud_105.txt.gz
Cloud_Cover
100 100 100 100 100 100 100 100 100 100 100 100 100 100 100 100 100 100 100 100 100 100 100 100 100 100 100 98 19 13 5 5 5 5 1 4 5 18 6 5 5 5 3 0 0 0 0
100 100 100 100 100 100 100 100 100 100 100 100 100 100 100 100 100 100 100 100 100 100 100 100 100 100 80 90 58 100 25 5 5 5 30 10 8 77 12 5 5 1 2 1 1 5 3
94 45 37 86 94 100 100 100 100 100 100 100 100 100 100 100 100 100 100 100 100 100 100 100 100 100 100 94 100 99 70 54 45 59 41 99 100 64 52 7 66 54 8 0 0 0 0
85 74 87 100 100 100 100 100 100 100 100 100 100 86 100 85 100 100 100 100 100 100 100 100 100 100 100 100 96 98 20 91 53 53 16 30 5 57 90 16 5 5 4 13 0 0 0
100 94 100 100 100 100 100 100 100 32 16 72 100 100 100 100 99 76 100 100 100 100 100 100 100 100 100 100 100 60 22 7 93 100 54 88 8 63 62 95 51 5 7 9 3 0 5
99 100 100 100 100 96 100 52 99 88 22 91 96 100 100 100 100 98 100 100 100 100 100 100 100 100 100 100 90 100 100 55 100 65 100 89 100 93 60 96 30 5 12 8 5 1 29
100 100 98 44 100 100 100 100 100 100 100 100 100 100 100 100 100 100 100 100 100 100 100 100 100 100 100 99 100 100 20 76 69 100 84 99 78 71 5 5 5 5 5 11 5 4 46
100 100 3 48 100 100 100 100 100 5 96 71 80 100 100 94 100 91 100 100 100 100 100 100 100 100 100 100 100 97 92 83 46 87 97 68 91 5 5 8 65 12 81 100 8 5 58
99 41 5 100 100 100 100 100 100 44 36 100 100 100 100 100 53 85 100 100 100 100 100 100 100 100 100 100 100 100 52 97 100 80 48 74 5 5 5 12 66 59 78 9 39 10 6
87 4 36 47 33 99 100 100 52 65 13 38 76 58 100 100 100 100 79 100 100 100 100 100 100 100 100 100 100 89 100 99 38 57 100 49 11 12 26 100 47 100 36 88 98 100 90
4 9 7 88 6 96 44 4 2 13 10 8 9 14 17 80 99 100 100 100 100 100 100 100 100 100 100 100 99 100 100 32 79 100 80 9 40 14 10 5 58 60 55 82 70 89 100
0 12 26 5 11 1 2 0 0 5 64 39 5 6 5 2 74 94 98 100 100 100 100 100 100 100 100 100 100 100 100 100 80 6 5 5 5 5 8 19 24 41 73 97 89 82 100
0 5 6 5 5 1 0 0 0 4 5 63 5 20 92 86 74 100 99 100 100 92 100 100 100 100 100 100 100 100 100 36 48 73 57 25 5 95 99 99 100 100 97 100 100 100 100
0 19 6 15 5 3 0 0 0 0 4 5 5 3 92 100 100 100 100 100 100 100 100 100 100 100 100 100 68 13 5 6 5 51 84 65 98 100 76 74 100 100 100 100 100 100 100
0 92 28 19 5 0 1 5 1 5 2 0 0 0 12 2 20 99 68 49 100 100 100 99 99 98 79 28 5 5 5 56 61 99 100 100 100 90 78 97 95 100 100 100 100 100 100
0 60 11 65 32 5 2 5 22 24 85 56 18 17 78 94 73 74 92 100 100 100 100 100 100 41 6 19 19 53 68 100 100 100 100 100 100 100 100 100 100 100 100 100 97 100 100
0 11 21 11 28 80 18 4 52 71 100 99 100 100 100 100 90 66 100 100 92 100 100 64 9 91 71 100 100 100 100 100 100 100 100 100 100 100 94 99 100 93 100 100 100 100 100
0 2 59 5 8 100 100 33 4 53 36 99 65 100 100 100 100 100 100 100 100 95 23 5 9 5 89 83 100 100 100 100 100 100 100 100 98 100 100 100 100 80 100 100 100 100 100
22 4 24 51 85 99 93 84 97 5 5 30 17 37 2 5 44 72 100 23 81 13 5 5 5 6 93 100 99 100 100 100 100 100 100 100 100 100 100 92 95 100 100 100 83 91 85
24 15 76 98 20 35 10 27 33 0 5 9 4 6 5 5 27 5 40 5 5 5 5 95 27 63 90 70 54 93 100 89 100 99 98 95 99 99 100 100 90 100 100 72 100 100 95
49 98 91 92 96 10 8 11 21 5 3 3 18 4 7 15 6 5 5 5 5 5 5 5 24 18 18 31 3 14 59 95 94 78 13 76 90 9 6 90 24 88 100 100 96 64 49
100 97 100 100 100 40 12 8 5 5 14 5 5 5 33 24 5 5 5 5 5 5 5 5 5 5 5 79 71 32 5 4 2 36 5 59 67 18 37 77 69 74 51 96 100 100 100
84 100 100 100 90 1 3 3 5 5 5 5 5 7 10 5 5 5 5 5 5 2 5 5 5 4 0 0 2 4 4 78 5 0 0 5 5 5 5 26 68 72 95 100 100 50 6
5 100 95 100 100 30 3 0 0 5 21 52 80 100 72 32 6 5 5 3 0 0 0 1 4 0 0 0 0 0 0 0 0 0 0 0 4 4 4 1 4 2 0 1 2 4 1
5 75 87 90 41 79 49 5 0 1 5 5 76 100 59 5 17 8 5 5 0 0 0 0 0 0 0 0 1 1 0 3 0 0 0 0 0 0 0 4 0 0 0 0 0 0 0
29 6 56 94 81 97 100 4 5 0 5 5 5 5 69 63 5 5 5 4 0 1 0 0 0 0 0 0 1 0 4 0 0 0 0 0 0 0 3 5 1 0 0 0 0 0 0
10 8 100 56 100 88 100 100 34 5 3 5 5 4 83 16 5 6 23 6 5 5 1 0 0 1 0 1 2 2 2 0 0 0 0 0 0 0 4 4 0 0 0 0 0 0 0
66 34 12 66 97 17 98 91 84 98 23 3 2 0 0 16 50 5 5 7 6 5 4 2 0 0 0 1 1 5 0 0 0 0 0 0 1 1 2 3 2 0 0 0 0 0 0
100 72 12 5 18 10 100 100 95 99 42 96 37 6 5 4 4 32 16 5 5 5 5 5 5 5 5 4 5 5 1 1 5 4 5 4 3 1 0 0 0 0 0 0 0 0 0

GFSGBSN_prec_cloud_108.txt.gz
Cloud_Cover
98 100 100 100 100 100 100 100 100 99 100 99 100 100 100 100 100 100 100 100 100 100 100 100 100 100 94 80 100 98 29 6 3 0 0 0 0 4 4 2 0 0 0 0 0 0 0
72 92 98 96 97 98 100 100 100 100 100 84 98 94 100 100 100 100 100 100 100 100 100 100 100 100 100 100 94 100 100 99 16 5 5 0 3 4 5 5 5 1 2 0 0 0 0
100 100 100 98 100 100 100 100 100 100 100 65 96 99 38 100 100 100 100 100 100 100 100 100 100 100 100 100 79 100 100 100 95 5 2 5 18 49 6 5 5 16 7 3 0 0 0
99 47 89 99 94 43 41 100 100 100 100 100 100 4 5 98 100 77 100 100 100 100 100 100 100 100 100 100 100 92 100 75 10 5 5 54 28 13 84 45 5 5 12 32 0 0 0
93 75 78 2 37 100 100 100 100 100 100 31 36 32 23 100 100 90 7 90 100 100 100 100 100 100 100 100 100 100 99 37 81 6 25 93 8 62 76 79 62 5 5 10 5 0 0
99 92 1 5 59 100 100 100 100 96 15 94 100 100 100 100 100 100 11 98 100 100 100 100 100 100 100 100 100 98 74 95 19 5 60 91 68 99 100 100 14 5 13 5 5 0 0
100 0 5 9 84 100 100 100 99 60 5 95 72 100 100 100 100 100 100 100 100 100 100 100 100 100 100 100 100 100 100 34 33 34 15 30 42 67 5 7 9 5 57 98 5 4 7
16 4 4 24 63 54 100 93 100 100 5 5 95 98 75 88 82 100 100 100 100 100 100 100 100 100 100 100 100 85 17 46 5 7 8 53 79 6 28 8 74 86 100 78 5 5 47
3 5 8 5 3 33 59 9 100 95 64 10 5 8 75 16 86 100 100 100 100 100 100 100 100 100 100 100 99 100 97 60 5 5 5 7 47 84 22 5 79 100 100 98 22 8 5
0 2 5 18 5 2 3 2 94 83 7 10 34 5 20 6 15 100 100 100 100 100 100 100 100 100 100 97 84 65 88 20 51 6 5 49 57 8 22 18 100 100 94 65 100 64 97
3 4 5 5 0 5 2 4 86 11 5 5 5 5 100 100 85 100 100 100 100 100 96 100 100 100 78 47 22 53 42 23 34 87 94 100 30 99 63 27 54 53 76 15 6 99 98
8 1 5 5 6 13 5 2 5 5 5 5 5 10 100 100 51 46 86 98 97 74 82 94 73 93 87 67 97 65 100 99 98 100 66 4 5 20 52 21 77 99 100 100 92 100 98
6 0 5 5 0 1 4 0 0 1 0 1 21 5 13 12 100 100 88 65 82 79 99 100 82 100 100 100 100 99 92 52 22 75 85 71 17 45 92 40 100 100 100 100 89 100 100
18 0 4 5 5 0 0 0 5 0 0 0 0 1 7 4 6 38 94 17 33 100 80 89 100 100 97 100 99 97 7 24 50 25 47 98 88 34 68 100 100 100 88 100 98 100 100
80 5 0 1 2 7 0 0 0 4 4 5 7 6 19 47 42 28 22 45 100 93 98 100 100 97 67 5 7 6 5 47 77 81 82 100 60 99 100 100 90 99 100 100 100 100 100
82 34 29 0 2 0 43 0 0 0 0 0 8 91 99 100 100 100 100 100 84 48 54 72 23 5 5 5 48 70 59 100 100 100 100 98 100 97 91 100 100 100 100 100 100 100 100
5 61 67 0 0 0 3 42 8 0 0 0 0 2 2 22 99 64 100 100 91 30 16 32 5 46 97 100 100 100 100 100 100 100 100 100 100 100 100 100 100 100 100 100 100 100 100
5 59 100 22 0 0 0 5 59 0 0 0 0 4 0 0 6 12 84 55 30 5 51 55 99 100 100 100 100 100 100 100 100 100 100 100 100 100 98 100 100 100 100 100 100 100 100
6 37 100 90 29 0 0 0 0 0 0 1 1 22 0 0 7 45 5 5 5 5 16 72 84 51 99 37 49 100 100 100 100 90 97 100 100 100 100 100 89 100 100 100 100 100 100
34 20 100 85 100 12 0 0 0 0 0 0 0 5 0 0 5 5 5 5 5 4 11 33 5 5 24 28 64 100 100 93 100 26 90 96 97 95 100 100 100 100 100 100 100 100 100
5 10 100 61 100 95 8 0 0 0 0 0 3 5 6 39 4 5 5 5 5 5 5 5 5 5 3 5 5 100 97 74 36 100 82 65 44 100 100 86 66 99 100 82 100 48 100
60 5 100 17 16 67 73 0 0 0 0 2 5 5 5 5 5 5 3 5 5 4 2 0 0 3 5 3 3 5 3 14 2 5 2 5 8 58 100 62 6 24 49 55 22 5 97
100 33 79 11 14 20 86 100 5 0 0 1 7 15 5 5 5 5 5 4 5 0 0 0 0 0 0 2 0 0 0 0 0 0 1 3 5 5 13 12 29 80 95 99 51 58 98
100 80 47 11 5 16 42 100 100 29 4 4 6 81 9 5 5 5 5 5 5 2 1 0 0 0 0 0 0 0 0 0 0 0 0 0 0 4 5 1 3 5 2 4 4 0 0
100 100 94 31 5 71 22 89 70 100 57 5 3 5 5 5 5 5 5 5 2 0 0 0 0 0 0 0 0 0 0 0 0 0 0 0 0 3 4 4 0 0 0 0 0 0 0
100 100 100 99 5 21 15 7 96 38 88 55 6 5 1 5 4 5 5 5 2 0 0 0 0 0 0 0 0 0 1 0 0 0 0 0 0 1 3 5 1 0 0 0 0 0 0
5 100 100 100 22 85 5 6 8 76 58 21 23 5 28 4 0 2 5 5 5 5 5 1 4 0 0 0 0 3 0 0 0 0 0 0 0 3 5 5 0 0 0 0 0 0 0
100 14 100 100 100 29 43 38 2 53 18 25 32 53 4 65 20 5 3 5 5 5 5 2 1 5 3 0 2 3 3 0 0 0 0 0 3 4 2 3 1 0 0 0 0 0 0
14 58 92 100 100 99 14 84 5 57 13 12 90 44 42 66 5 5 5 5 53 31 5 5 3 5 5 5 5 5 1 0 0 0 0 2 0 0 2 2 0 0 0 0 0 0 0

GFSGBSN_prec_cloud_111.txt.gz
Cloud_Cover
49 92 74 66 98 38 40 26 63 97 100 100 100 100 98 94 100 100 100 100 100 100 100 100 100 100 100 100 100 100 84 80 9 5 3 0 0 0 0 0 0 0 0 0 0 0 0
91 91 70 94 3 4 39 55 76 88 100 100 100 100 97 75 57 100 100 100 100 100 100 100 100 100 100 100 100 100 100 62 43 6 5 1 0 0 0 4 2 1 2 0 0 0 0
92 85 0 5 5 29 90 100 100 100 100 100 100 100 98 16 52 6 74 100 100 100 100 100 100 100 100 100 100 100 100 96 56 5 5 4 3 3 4 4 5 5 5 0 0 0 0
67 0 0 3 5 15 34 100 100 100 100 23 6 11 29 6 46 76 96 100 100 100 100 100 100 100 100 100 100 100 100 47 5 5 5 5 5 6 49 11 5 5 9 32 0 0 0
5 3 2 4 2 88 9 99 12 98 20 14 25 100 100 100 4 89 100 86 100 100 100 100 100 100 100 100 100 100 100 92 22 5 5 5 5 38 65 48 27 5 5 19 4 0 0
1 5 6 5 35 80 1 100 36 75 7 13 97 100 100 100 92 100 100 84 100 100 100 100 100 100 100 100 100 100 100 85 23 5 10 10 58 96 100 91 5 5 26 5 5 0 2
5 7 4 8 59 97 20 56 94 96 5 5 61 100 100 100 100 85 89 100 100 100 100 100 100 100 100 100 100 100 100 100 22 5 5 17 41 22 5 5 10 93 100 100 84 5 80
5 5 69 1 9 26 18 100 100 100 16 5 5 14 66 100 100 100 100 100 99 100 100 100 100 100 100 100 100 100 100 46 39 31 5 54 40 5 5 5 8 100 100 100 42 0 35
1 7 72 2 90 1 1 98 8 44 29 2 4 5 94 100 100 100 100 100 100 100 100 100 100 100 100 100 100 100 96 40 5 5 5 5 14 5 3 5 7 15 100 99 88 13 10
4 12 88 44 0 0 0 37 31 5 6 5 5 2 5 53 94 97 100 100 99 100 100 100 100 100 100 100 100 99 91 57 45 6 5 5 4 4 25 5 50 61 9 94 100 100 100
54 98 44 44 0 0 0 0 2 37 12 0 0 0 4 90 5 88 93 100 98 100 78 100 100 100 99 93 49 8 5 5 5 5 32 4 5 5 38 5 55 11 29 14 72 100 100
0 45 24 66 0 0 0 0 0 1 11 4 0 3 3 4 28 100 36 85 92 100 100 97 100 92 40 5 5 5 5 5 5 4 5 1 1 24 81 10 30 45 51 64 80 100 100
12 5 99 8 4 0 0 0 0 0 0 4 3 5 3 1 17 5 3 5 5 44 92 98 85 55 5 5 5 5 5 5 21 5 10 6 78 65 60 25 5 49 99 72 100 100 100
2 5 13 21 0 0 0 0 0 0 0 0 4 5 5 53 100 100 99 26 17 100 99 47 98 95 86 85 67 15 10 21 61 90 69 92 85 41 38 90 95 100 100 100 100 100 100
5 100 64 6 68 3 0 0 0 0 0 0 0 3 6 52 83 100 99 100 100 100 100 100 100 100 100 100 100 100 100 92 64 73 41 99 60 23 81 100 76 100 100 100 100 100 100
16 88 40 5 42 54 4 0 0 0 0 0 0 2 2 4 3 4 82 84 74 36 21 8 39 26 52 52 47 72 19 50 62 47 35 100 96 98 100 100 100 100 100 100 100 100 100
5 98 48 15 4 10 22 7 0 0 0 0 0 0 0 0 0 2 80 95 99 48 93 95 84 100 100 100 100 100 100 88 95 100 99 100 100 99 100 100 100 100 100 100 100 100 100
6 44 91 9 18 5 7 28 0 0 0 0 0 0 0 0 0 7 72 41 72 100 86 100 100 100 100 100 100 100 100 100 100 100 100 100 100 100 100 100 100 100 100 100 100 100 100
7 40 100 78 95 56 6 15 0 0 0 0 0 0 0 0 7 22 5 5 5 3 4 6 81 53 70 80 93 100 100 100 99 96 100 100 70 98 100 100 100 100 100 100 100 100 100
66 8 56 97 35 100 89 6 4 0 0 0 0 6 0 0 3 5 8 5 5 5 5 96 18 5 5 5 93 100 100 100 21 98 100 100 98 80 47 100 100 100 100 100 100 100 100
7 93 26 100 100 27 100 11 5 3 1 0 2 3 9 28 5 4 5 5 5 5 5 5 5 4 5 5 4 5 42 94 37 69 85 100 100 99 49 100 100 100 100 100 100 100 100
27 96 100 57 100 100 18 5 7 5 5 5 0 0 0 0 0 0 0 5 5 5 2 2 0 4 0 0 1 0 0 4 5 5 5 22 21 21 5 22 96 5 92 100 100 100 100
16 7 100 99 100 100 100 4 5 5 5 6 5 4 0 1 0 1 4 5 5 5 4 5 2 0 1 0 0 0 0 0 4 4 4 3 5 12 5 5 4 3 4 24 94 100 100
100 78 19 100 100 100 77 36 5 6 18 6 5 5 5 4 0 0 0 4 5 5 2 2 0 0 0 0 0 0 0 0 0 0 0 0 0 6 5 1 1 2 0 0 2 7 45
100 100 65 33 100 100 65 92 99 34 3 12 56 5 4 5 0 0 0 0 0 0 0 0 0 0 0 0 0 0 0 0 0 0 0 0 0 2 5 4 0 0 0 0 0 1 5
100 100 41 6 100 100 100 100 7 77 5 8 5 5 6 10 5 1 0 5 0 0 0 0 0 0 0 0 0 0 0 0 0 0 0 0 0 2 3 2 0 0 0 0 0 0 0
100 100 100 100 94 100 100 100 18 59 13 40 5 5 5 39 5 11 11 0 5 5 1 0 0 5 1 0 1 5 3 0 0 0 0 0 0 3 5 24 1 0 0 0 0 0 0
100 100 100 100 100 100 100 100 100 13 7 95 6 5 5 5 85 12 5 33 0 6 5 5 2 1 1 0 4 4 5 0 0 0 0 0 3 5 5 5 1 0 0 0 0 0 0
74 100 100 100 100 100 100 100 100 5 71 6 5 13 16 5 54 19 10 5 6 5 4 21 5 5 5 4 5 5 5 2 0 1 0 0 0 0 2 2 0 0 0 0 0 0 0

GFSGBSN_prec_cloud_114.txt.gz
Cloud_Cover
6 0 0 3 3 17 4 8 46 96 100 100 100 100 100 100 100 100 100 100 100 100 100 100 100 100 100 100 100 100 100 100 100 100 100 42 39 6 0 0 0 0 0 0 0 0 0
0 0 6 44 54 76 6 5 38 100 96 100 100 100 100 100 100 58 100 87 53 74 100 100 100 100 100 100 100 100 100 100 69 100 91 100 58 79 5 4 0 1 0 0 0 0 0
0 20 100 33 100 88 48 100 4 100 6 74 60 100 100 100 96 18 9 82 5 67 100 100 100 100 100 100 100 100 88 100 100 100 100 100 100 59 5 5 5 5 3 0 0 0 0
3 96 100 100 100 60 86 79 41 100 7 93 93 35 46 99 91 91 62 100 96 5 91 100 85 100 100 100 100 100 100 100 100 100 100 97 89 61 5 5 4 4 4 3 0 0 0
1 74 100 100 6 61 100 100 72 100 10 40 5 5 95 6 36 10 26 100 88 8 78 100 100 100 100 100 100 100 100 100 100 100 100 80 30 5 5 5 3 5 5 8 4 0 0
8 90 100 71 96 100 100 100 56 52 6 20 5 43 100 90 27 50 100 100 50 80 100 100 100 100 100 100 100 100 90 100 100 100 90 41 6 5 5 5 5 5 29 62 25 2 1
12 100 100 1 0 92 100 100 100 100 97 6 44 100 93 100 100 95 100 100 100 100 100 100 100 100 100 100 100 100 100 100 100 100 100 64 5 40 5 5 5 55 100 84 6 4 63
3 100 98 4 0 0 26 96 88 6 2 5 5 16 84 44 52 99 86 100 100 100 100 100 100 100 100 100 100 100 100 98 92 86 73 5 5 2 1 5 5 38 14 5 2 4 23
5 100 76 75 0 0 0 12 82 36 0 3 4 7 40 5 100 100 91 100 100 100 100 100 100 100 100 100 100 99 88 98 100 95 28 5 4 4 1 5 13 7 12 5 43 57 64
37 48 98 33 6 0 0 0 0 0 1 5 0 5 5 5 12 98 100 100 100 100 100 100 100 100 100 100 100 90 98 42 6 4 4 4 2 3 13 5 5 53 4 49 100 100 98
12 4 100 26 0 0 0 0 0 0 2 5 5 2 31 100 6 95 98 100 92 100 100 100 100 100 100 88 92 100 67 5 5 5 4 3 1 5 5 5 5 5 34 5 52 100 100
68 5 49 94 0 0 0 0 0 3 2 5 27 2 4 33 19 72 39 8 90 86 100 100 100 100 100 100 92 41 5 5 4 3 1 0 1 0 0 0 5 5 5 18 60 100 100
91 73 2 88 40 2 0 0 0 3 5 5 5 4 0 4 5 5 28 47 5 64 80 66 100 99 94 72 39 5 4 0 4 5 5 5 4 5 5 31 5 24 99 100 100 100 100
95 99 5 2 52 98 95 12 0 0 0 4 1 6 5 5 5 5 9 8 49 100 93 5 5 5 5 4 1 1 4 5 5 5 48 74 35 49 5 55 63 100 100 100 100 100 100
66 76 33 5 18 70 100 96 0 0 0 0 0 0 0 0 0 1 10 100 100 79 31 73 50 44 14 6 3 5 5 10 54 11 46 96 8 8 6 91 100 100 100 100 100 100 100
5 88 48 35 4 0 38 100 0 0 0 0 0 0 0 0 4 4 31 83 82 50 6 16 19 12 5 5 5 5 6 58 31 29 9 65 97 79 100 100 100 100 100 100 100 100 100
5 7 100 93 92 1 0 4 1 0 0 0 0 0 0 0 0 0 74 93 27 53 77 60 52 55 55 93 48 19 47 18 67 90 100 100 100 100 100 100 100 100 100 100 100 100 100
5 5 69 74 65 40 3 0 0 0 0 0 0 0 0 0 1 11 32 100 12 84 96 97 100 94 98 94 100 100 100 80 64 100 100 100 100 100 100 100 100 100 100 100 100 100 100
5 5 90 79 36 8 9 5 0 0 0 0 0 0 0 0 5 7 5 4 5 5 43 71 93 94 95 73 70 100 100 100 100 100 100 100 100 100 100 100 100 100 100 100 100 100 100
5 38 100 29 24 99 5 5 1 1 0 0 0 1 0 0 0 0 1 3 5 5 5 5 5 12 21 48 72 57 99 100 100 100 100 100 100 100 100 100 100 100 100 100 100 100 100
71 99 100 82 99 59 100 19 5 3 1 0 1 1 8 18 0 1 0 5 0 2 5 5 5 0 2 4 4 5 23 100 100 100 100 100 100 100 100 100 100 100 100 100 100 100 100
100 100 100 100 100 94 75 100 29 4 0 0 0 0 0 0 0 0 0 0 0 0 0 0 0 2 0 3 4 5 4 5 5 6 48 6 96 100 100 100 100 100 100 100 100 100 100
100 100 100 100 100 95 80 100 100 7 5 5 4 0 0 0 0 1 0 3 1 0 0 0 0 0 0 0 0 0 0 0 0 2 1 0 2 5 14 7 6 92 15 70 74 100 98
100 94 100 99 100 100 100 100 100 97 21 6 3 4 0 2 0 0 0 0 0 0 0 0 0 0 0 0 0 0 0 0 0 0 0 0 0 7 5 1 2 0 4 4 5 5 22
100 100 65 100 59 100 100 100 75 80 71 19 21 1 3 1 0 0 0 0 0 0 0 0 0 0 0 0 0 0 0 0 0 0 0 0 0 4 5 4 0 0 0 0 16 6 5
100 100 91 100 100 13 93 95 15 79 10 96 70 53 4 0 5 1 0 0 0 0 0 0 0 0 0 0 0 0 0 0 0 0 0 0 0 2 3 2 0 0 0 0 0 0 0
34 100 100 50 100 100 100 64 5 87 9 17 90 100 11 5 5 5 5 3 0 0 0 0 0 0 0 0 4 5 3 0 3 0 0 2 2 4 5 6 1 0 0 0 0 0 0
100 100 100 100 86 100 80 100 92 38 88 84 24 23 15 1 5 3 5 5 5 1 4 0 0 0 1 1 4 5 0 3 2 0 0 0 2 5 5 5 4 0 0 0 0 0 0
100 100 100 100 100 100 100 100 100 98 99 100 100 100 19 85 15 5 5 3 5 10 5 5 4 0 0 5 6 3 0 2 2 2 0 2 0 4 5 1 0 0 0 0 0 0 0

GFSGBSN_prec_cloud_117.txt.gz
Cloud_Cover
34 72 100 94 88 94 56 57 50 85 90 98 100 100 100 100 100 100 100 100 86 99 90 66 100 100 100 100 98 100 100 100 59 100 90 18 4 3 2 0 0 3 4 5 52 5 5
100 100 70 20 4 34 31 95 78 29 6 96 100 100 100 100 100 100 100 100 100 100 82 45 84 100 100 100 100 100 100 100 100 100 100 100 61 8 6 16 2 3 0 0 5 4 5
47 100 100 99 35 56 100 98 66 77 4 2 1 10 85 100 100 100 100 100 100 96 5 98 99 100 100 100 100 100 100 92 100 100 100 100 100 87 100 36 26 100 28 5 0 0 0
8 94 100 100 100 100 100 100 82 90 57 11 8 74 14 70 89 100 100 100 100 23 5 100 100 100 100 100 100 100 81 98 100 100 98 98 92 84 68 37 21 24 96 5 2 0 0
14 40 100 100 100 100 100 100 100 43 0 51 73 96 51 5 81 21 100 100 53 11 20 100 100 100 100 100 100 100 87 63 88 100 100 100 100 95 57 21 16 5 5 5 5 0 0
45 4 100 100 100 100 100 99 100 93 33 4 16 64 83 77 36 16 58 100 100 65 58 100 100 100 100 100 100 100 100 81 100 100 100 100 94 55 6 43 21 23 24 5 5 1 0
100 2 100 100 100 100 93 0 0 14 16 5 3 5 100 81 99 80 100 100 100 35 100 100 100 100 100 100 100 100 100 68 51 35 28 76 94 25 12 5 5 5 7 5 0 0 4
76 1 98 100 100 18 0 5 0 0 0 1 6 5 8 34 100 100 100 100 100 100 100 100 100 100 100 100 100 100 58 52 28 36 19 6 61 87 62 62 24 5 9 10 2 0 5
0 0 11 99 100 75 0 0 0 0 0 0 0 95 5 93 93 100 100 100 100 100 100 100 100 100 100 100 100 100 100 99 100 78 59 73 64 100 91 71 34 5 9 5 5 4 4
80 45 1 7 2 35 2 0 0 0 0 0 0 3 26 7 93 83 100 100 100 100 100 100 100 100 100 100 100 100 100 83 99 100 100 100 100 100 98 59 16 5 1 5 5 60 42
98 65 0 0 0 0 0 0 0 0 0 0 0 5 5 5 5 27 100 100 100 100 100 100 100 100 100 100 100 100 100 100 100 100 99 96 92 46 5 5 5 3 5 5 13 100 100
19 100 0 0 0 3 8 0 0 0 0 0 4 1 5 1 0 5 35 72 95 100 100 100 99 94 100 100 100 100 100 47 34 13 5 4 4 1 0 0 4 5 5 6 66 94 100
4 100 51 0 4 0 76 70 13 0 0 0 0 0 0 1 3 0 0 5 37 84 86 79 100 100 78 96 46 5 5 5 5 5 5 5 4 3 5 5 5 10 86 41 64 93 76
0 100 100 20 28 0 0 34 100 0 0 0 0 0 0 0 1 5 5 4 22 49 28 91 47 95 92 32 2 1 8 5 5 5 7 31 4 2 5 13 59 7 83 96 94 43 100
17 100 97 100 87 20 0 2 0 0 1 0 0 0 0 0 0 0 2 28 95 59 5 5 5 0 5 5 5 5 5 5 5 5 10 98 8 5 5 6 66 100 100 95 100 100 100
97 97 78 75 100 29 4 0 0 0 0 0 0 0 0 0 0 8 2 50 18 5 5 4 0 1 0 1 2 8 12 60 100 94 78 96 64 33 100 100 100 100 100 100 100 100 100
99 55 4 12 92 52 94 0 0 0 0 0 0 0 0 0 0 0 61 54 8 5 5 5 5 12 84 97 91 69 77 63 100 100 100 86 100 100 100 100 100 100 100 100 100 100 100
100 68 63 4 54 15 14 67 0 0 0 0 0 0 0 0 0 10 8 5 5 5 5 13 5 5 30 62 87 100 100 100 96 100 100 100 100 100 100 100 100 100 100 100 100 100 100
100 100 90 23 29 100 25 5 5 0 0 0 0 0 0 0 0 5 3 5 5 5 5 5 5 5 5 5 50 16 5 37 93 100 100 100 100 100 100 100 100 100 100 100 100 100 100
100 100 100 61 40 100 100 17 5 4 0 0 0 0 0 0 0 0 0 0 4 5 5 5 4 4 5 5 5 5 5 52 82 100 79 100 100 100 100 100 100 100 100 100 47 85 100
45 100 100 99 13 100 100 100 5 4 5 5 3 0 0 4 0 0 0 0 0 0 0 0 0 0 0 0 0 0 5 13 11 5 5 44 100 100 94 27 96 100 100 100 23 70 26
79 89 100 97 100 100 100 97 5 5 5 13 5 0 0 0 0 0 0 0 0 0 0 0 0 0 0 0 0 0 0 0 0 5 5 6 5 5 88 17 5 11 28 9 10 5 12
23 38 100 98 100 37 100 100 60 5 32 32 24 4 1 0 0 0 0 0 0 0 0 0 0 0 0 0 0 0 0 0 0 0 0 0 0 5 4 1 4 5 5 5 5 5 13
58 93 75 100 100 100 100 100 98 92 24 44 95 5 5 4 2 0 0 0 0 0 0 0 0 0 0 0 0 0 0 0 0 0 0 0 0 7 5 4 11 0 4 5 20 28 5
100 73 100 99 100 100 100 78 100 100 99 48 96 29 5 5 9 2 0 0 0 0 0 0 0 0 0 0 0 0 0 0 0 0 4 0 0 4 5 4 0 0 0 0 0 0 1
100 100 95 100 100 100 99 78 100 100 100 100 100 99 8 5 4 38 11 2 0 0 0 0 0 0 0 0 0 0 0 0 0 0 0 0 0 4 5 2 0 0 0 0 0 0 0
100 100 100 92 100 100 100 100 100 100 100 100 100 100 99 100 49 5 5 18 2 2 1 0 0 0 0 0 4 5 2 0 0 0 0 3 5 5 5 5 0 0 0 0 0 0 0
100 100 100 98 98 100 100 100 100 100 94 100 100 100 100 100 100 34 58 3 0 5 5 3 0 0 0 1 5 7 5 5 3 2 0 0 5 5 5 14 10 0 0 0 0 0 0
100 100 100 100 100 84 100 100 100 100 100 100 95 95 100 100 100 99 100 97 5 5 2 40 4 0 0 5 4 5 5 4 5 5 5 7 5 3 0 0 0 0 0 0 0 0 0

GFSGBSN_prec_cloud_120.txt.gz
Cloud_Cover
100 39 100 100 58 89 6 97 0 2 5 6 46 53 100 100 100 100 100 100 99 45 5 5 100 100 100 100 100 100 100 100 100 26 2 1 0 0 0 0 0 27 86 66 20 5 5
0 99 100 89 18 100 100 100 12 20 25 60 100 96 100 100 100 100 100 100 100 79 5 5 55 100 100 100 100 100 100 100 100 100 99 86 10 0 0 3 0 0 2 12 41 46 76
0 7 100 100 43 100 100 100 85 78 100 69 97 38 7 100 100 100 100 100 100 88 5 52 99 100 100 100 100 100 100 100 100 100 100 100 95 6 2 0 0 0 0 0 0 5 4
0 1 32 100 63 100 99 99 97 5 11 86 100 51 3 76 76 100 100 100 36 5 5 44 61 100 100 100 100 100 100 100 100 100 100 100 100 74 60 24 39 4 0 0 0 0 0
0 0 0 86 100 100 95 8 5 1 2 42 73 78 7 38 34 100 100 100 40 5 24 100 100 99 100 100 100 100 95 94 92 100 100 100 99 100 100 95 64 9 5 4 0 0 0
88 0 0 85 100 100 100 100 25 1 5 7 23 80 100 71 96 100 100 100 65 39 72 100 100 100 100 100 100 100 30 37 53 100 100 100 100 100 100 100 87 16 6 5 4 4 0
48 0 0 5 100 100 94 0 6 2 2 5 36 92 75 100 100 99 100 38 96 88 63 100 100 100 100 100 100 100 85 65 54 5 37 81 100 100 100 74 92 30 5 5 5 3 1
100 15 0 0 13 100 100 13 0 1 2 5 31 66 91 46 100 100 73 75 93 98 100 100 100 100 100 100 100 99 66 5 5 17 12 5 28 55 75 100 100 100 96 20 60 5 5
100 96 1 0 0 0 47 3 0 0 0 5 5 44 94 44 100 79 100 100 64 69 100 100 100 100 100 100 100 100 100 99 90 39 13 5 5 4 8 62 100 82 41 17 8 5 5
97 100 23 41 2 1 0 0 0 0 0 0 3 5 25 48 87 91 100 100 100 100 82 100 100 100 100 99 100 91 79 93 99 57 5 3 4 2 5 5 5 5 8 5 5 72 53
5 69 30 4 17 0 0 0 0 0 0 0 0 4 5 5 19 100 98 100 100 100 66 100 100 100 100 100 98 96 88 25 30 5 4 3 5 51 6 5 5 5 5 5 51 100 100
80 39 70 32 42 0 0 0 41 0 0 0 0 0 0 0 0 3 13 39 100 100 95 89 91 84 100 100 100 98 96 48 69 12 23 62 89 25 84 79 89 9 7 51 92 100 97
95 5 18 96 100 17 0 0 0 0 0 0 0 0 0 0 0 0 0 0 43 99 62 12 90 99 100 100 100 100 98 100 98 97 73 94 48 52 26 5 5 13 90 86 90 100 77
100 49 10 83 100 100 0 0 0 0 0 0 0 0 0 0 0 0 0 2 10 71 28 5 5 5 5 6 8 53 86 100 100 58 8 10 4 3 5 5 50 77 76 98 100 93 94
100 97 8 92 100 74 2 0 0 0 0 0 0 0 0 0 0 0 0 9 14 5 3 5 4 0 5 5 4 5 5 5 5 5 36 16 12 5 5 5 54 100 100 79 100 100 100
100 100 36 99 90 99 71 47 0 0 0 0 0 0 0 0 0 0 1 42 10 5 5 4 2 3 5 5 4 5 6 52 96 56 7 19 78 38 51 99 100 100 100 100 100 98 96
100 99 100 55 100 86 40 23 51 1 0 0 0 0 0 0 0 0 67 74 5 5 5 5 5 5 5 26 44 34 14 13 48 79 88 100 100 100 100 100 100 100 100 100 96 100 100
100 100 100 100 100 100 55 31 54 84 1 0 0 0 0 0 8 0 0 5 5 5 5 5 5 5 22 67 87 100 100 100 100 100 100 100 100 100 100 100 100 100 56 82 100 100 100
100 100 100 97 100 100 100 20 19 100 10 1 0 0 0 0 0 0 1 3 5 5 5 5 5 5 5 61 100 100 100 100 100 100 100 100 97 60 100 96 71 94 73 95 68 97 100
100 100 100 100 100 49 100 100 30 100 100 26 0 5 0 0 0 0 0 0 1 0 0 0 2 2 4 2 10 12 18 24 23 5 5 100 44 5 100 58 5 4 3 28 24 99 44
100 100 100 100 100 100 99 98 13 100 100 100 5 2 0 0 0 0 0 0 0 0 0 0 0 0 0 0 0 0 0 0 0 0 5 57 99 5 5 16 36 13 14 5 6 5 5
100 100 100 100 100 100 100 60 43 100 100 100 58 83 5 0 0 0 0 0 0 0 0 0 0 0 0 0 0 0 0 0 0 0 0 3 16 5 5 61 65 69 34 27 47 47 79
100 100 100 100 100 100 100 100 100 100 100 100 100 100 6 5 0 0 0 0 0 0 0 0 0 0 0 0 0 0 0 0 0 0 1 0 5 5 3 4 8 12 50 45 15 6 42
100 100 68 100 100 99 100 100 100 100 100 100 100 100 100 6 5 2 0 0 0 0 0 0 0 0 0 0 0 0 0 0 0 0 2 5 2 5 4 0 0 0 0 1 19 12 5
100 100 100 100 86 100 82 100 100 100 100 100 100 100 100 100 35 5 0 4 0 0 0 0 0 0 0 0 0 0 0 0 0 0 1 5 5 1 0 0 0 0 0 0 0 0 0
100 100 100 100 37 99 100 98 100 87 100 93 100 100 100 100 100 6 5 0 1 1 0 0 0 0 0 0 0 0 0 0 0 0 2 5 5 4 4 0 0 0 0 0 0 0 0
100 100 100 100 100 100 100 100 100 100 86 77 100 99 100 100 100 63 5 5 5 1 0 1 0 0 0 0 0 0 0 0 0 0 3 4 5 5 5 3 0 0 0 0 0 0 0
100 100 100 100 100 100 100 100 100 100 100 98 14 100 100 89 100 90 25 1 9 5 13 5 2 0 0 2 2 0 2 0 0 0 0 0 0 2 5 5 2 0 0 0 0 0 0
100 100 100 100 100 100 100 100 100 100 100 100 100 96 100 100 100 100 97 99 100 100 98 46 5 2 4 0 0 3 4 5 0 0 0 0 0 0 0 0 0 0 0 0 0 0 0